<?xml version="1.0" encoding="UTF-8" standalone="no" ?>
<gpx xmlns="http://www.topografix.com/GPX/1/1" xmlns:xsi="http://www.w3.org/2001/XMLSchema-instance" xsi:schemaLocation="http://www.topografix.com/GPX/1/1 http://www.topografix.com/GPX/1/1/gpx.xsd" version="1.1" creator="VisuGPX - https://www.visugpx.com">
  <metadata>
    <name>Ballade en Vélo entre Evreux et Conche</name>
    <desc><![CDATA[Route et chemin de terre (VTT recommendé)]]></desc>
  </metadata>
  <trk>
    <name><![CDATA[ACTIVE LOG]]></name>
    <trkseg>
      <trkpt lat="49.00243" lon="1.08906">
        <ele>106.36303710938</ele>
        <time>2011-02-11T12:13:04Z</time>
      </trkpt>
      <trkpt lat="49.00243" lon="1.08906">
        <ele>102.51770019531</ele>
        <time>2011-02-11T12:13:09Z</time>
      </trkpt>
      <trkpt lat="49.00243" lon="1.08906">
        <ele>106.36303710938</ele>
        <time>2011-02-11T12:13:15Z</time>
      </trkpt>
      <trkpt lat="49.00243" lon="1.08906">
        <ele>104.4404296875</ele>
        <time>2011-02-11T12:13:18Z</time>
      </trkpt>
      <trkpt lat="49.00243" lon="1.08906">
        <ele>105.40173339844</ele>
        <time>2011-02-11T12:13:40Z</time>
      </trkpt>
      <trkpt lat="49.00243" lon="1.08906">
        <ele>105.40173339844</ele>
        <time>2011-02-11T12:13:45Z</time>
      </trkpt>
      <trkpt lat="49.00243" lon="1.08906">
        <ele>104.4404296875</ele>
        <time>2011-02-11T12:13:47Z</time>
      </trkpt>
      <trkpt lat="49.00243" lon="1.08906">
        <ele>107.32434082031</ele>
        <time>2011-02-11T12:13:48Z</time>
      </trkpt>
      <trkpt lat="49.00243" lon="1.08906">
        <ele>105.88244628906</ele>
        <time>2011-02-11T12:13:49Z</time>
      </trkpt>
      <trkpt lat="49.00243" lon="1.08906">
        <ele>102.99829101562</ele>
        <time>2011-02-11T12:13:53Z</time>
      </trkpt>
      <trkpt lat="49.00243" lon="1.08913">
        <ele>106.84362792969</ele>
        <time>2011-02-11T12:14:10Z</time>
      </trkpt>
      <trkpt lat="49.00243" lon="1.08913">
        <ele>102.99829101562</ele>
        <time>2011-02-11T12:14:11Z</time>
      </trkpt>
      <trkpt lat="49.00243" lon="1.08913">
        <ele>106.84362792969</ele>
        <time>2011-02-11T12:14:18Z</time>
      </trkpt>
      <trkpt lat="49.00243" lon="1.08913">
        <ele>103.47900390625</ele>
        <time>2011-02-11T12:14:19Z</time>
      </trkpt>
      <trkpt lat="49.00243" lon="1.08913">
        <ele>102.99829101562</ele>
        <time>2011-02-11T12:14:21Z</time>
      </trkpt>
      <trkpt lat="49.00244" lon="1.08915">
        <ele>106.84362792969</ele>
        <time>2011-02-11T12:14:30Z</time>
      </trkpt>
      <trkpt lat="49.00244" lon="1.08915">
        <ele>102.99829101562</ele>
        <time>2011-02-11T12:14:31Z</time>
      </trkpt>
      <trkpt lat="49.00244" lon="1.08915">
        <ele>106.36303710938</ele>
        <time>2011-02-11T12:14:32Z</time>
      </trkpt>
      <trkpt lat="49.00245" lon="1.08915">
        <ele>102.037109375</ele>
        <time>2011-02-11T12:14:33Z</time>
      </trkpt>
      <trkpt lat="49.00245" lon="1.08916">
        <ele>105.40173339844</ele>
        <time>2011-02-11T12:14:36Z</time>
      </trkpt>
      <trkpt lat="49.00245" lon="1.08916">
        <ele>105.88244628906</ele>
        <time>2011-02-11T12:14:48Z</time>
      </trkpt>
      <trkpt lat="49.00246" lon="1.08926">
        <ele>106.36303710938</ele>
        <time>2011-02-11T12:14:53Z</time>
      </trkpt>
      <trkpt lat="49.00246" lon="1.08935">
        <ele>106.36303710938</ele>
        <time>2011-02-11T12:14:55Z</time>
      </trkpt>
      <trkpt lat="49.00228" lon="1.08947">
        <ele>102.51770019531</ele>
        <time>2011-02-11T12:15:02Z</time>
      </trkpt>
      <trkpt lat="49.00224" lon="1.08947">
        <ele>105.40173339844</ele>
        <time>2011-02-11T12:15:03Z</time>
      </trkpt>
      <trkpt lat="49.00213" lon="1.08945">
        <ele>106.36303710938</ele>
        <time>2011-02-11T12:15:07Z</time>
      </trkpt>
      <trkpt lat="49.00205" lon="1.08958">
        <ele>105.40173339844</ele>
        <time>2011-02-11T12:15:13Z</time>
      </trkpt>
      <trkpt lat="49.00206" lon="1.08991">
        <ele>106.36303710938</ele>
        <time>2011-02-11T12:15:21Z</time>
      </trkpt>
      <trkpt lat="49.00219" lon="1.09032">
        <ele>104.4404296875</ele>
        <time>2011-02-11T12:15:30Z</time>
      </trkpt>
      <trkpt lat="49.00226" lon="1.09048">
        <ele>101.07568359375</ele>
        <time>2011-02-11T12:15:34Z</time>
      </trkpt>
      <trkpt lat="49.00228" lon="1.09053">
        <ele>105.40173339844</ele>
        <time>2011-02-11T12:15:35Z</time>
      </trkpt>
      <trkpt lat="49.00239" lon="1.09076">
        <ele>102.037109375</ele>
        <time>2011-02-11T12:15:41Z</time>
      </trkpt>
      <trkpt lat="49.00244" lon="1.09082">
        <ele>105.40173339844</ele>
        <time>2011-02-11T12:15:43Z</time>
      </trkpt>
      <trkpt lat="49.00247" lon="1.09085">
        <ele>104.92102050781</ele>
        <time>2011-02-11T12:15:44Z</time>
      </trkpt>
      <trkpt lat="49.0025" lon="1.09089">
        <ele>103.95971679688</ele>
        <time>2011-02-11T12:15:45Z</time>
      </trkpt>
      <trkpt lat="49.00229" lon="1.09132">
        <ele>103.47900390625</ele>
        <time>2011-02-11T12:15:56Z</time>
      </trkpt>
      <trkpt lat="49.00214" lon="1.09138">
        <ele>106.84362792969</ele>
        <time>2011-02-11T12:16:00Z</time>
      </trkpt>
      <trkpt lat="49.0021" lon="1.09139">
        <ele>103.95971679688</ele>
        <time>2011-02-11T12:16:01Z</time>
      </trkpt>
      <trkpt lat="49.00202" lon="1.0914">
        <ele>107.32434082031</ele>
        <time>2011-02-11T12:16:03Z</time>
      </trkpt>
      <trkpt lat="49.00182" lon="1.09144">
        <ele>103.47900390625</ele>
        <time>2011-02-11T12:16:09Z</time>
      </trkpt>
      <trkpt lat="49.00179" lon="1.09146">
        <ele>107.32434082031</ele>
        <time>2011-02-11T12:16:10Z</time>
      </trkpt>
      <trkpt lat="49.00176" lon="1.09147">
        <ele>107.32434082031</ele>
        <time>2011-02-11T12:16:11Z</time>
      </trkpt>
      <trkpt lat="49.0016" lon="1.09159">
        <ele>108.28564453125</ele>
        <time>2011-02-11T12:16:16Z</time>
      </trkpt>
      <trkpt lat="49.00155" lon="1.09167">
        <ele>109.24694824219</ele>
        <time>2011-02-11T12:16:18Z</time>
      </trkpt>
      <trkpt lat="49.00151" lon="1.09176">
        <ele>107.32434082031</ele>
        <time>2011-02-11T12:16:20Z</time>
      </trkpt>
      <trkpt lat="49.00128" lon="1.09214">
        <ele>107.80505371094</ele>
        <time>2011-02-11T12:16:31Z</time>
      </trkpt>
      <trkpt lat="49.00128" lon="1.09221">
        <ele>109.24694824219</ele>
        <time>2011-02-11T12:16:44Z</time>
      </trkpt>
      <trkpt lat="49.00128" lon="1.09221">
        <ele>106.84362792969</ele>
        <time>2011-02-11T12:16:48Z</time>
      </trkpt>
      <trkpt lat="49.00128" lon="1.09221">
        <ele>103.47900390625</ele>
        <time>2011-02-11T12:16:52Z</time>
      </trkpt>
      <trkpt lat="49.00128" lon="1.09221">
        <ele>105.88244628906</ele>
        <time>2011-02-11T12:16:53Z</time>
      </trkpt>
      <trkpt lat="49.00128" lon="1.09221">
        <ele>109.24694824219</ele>
        <time>2011-02-11T12:16:56Z</time>
      </trkpt>
      <trkpt lat="49.00128" lon="1.09221">
        <ele>105.88244628906</ele>
        <time>2011-02-11T12:16:57Z</time>
      </trkpt>
      <trkpt lat="49.00128" lon="1.09221">
        <ele>107.80505371094</ele>
        <time>2011-02-11T12:17:01Z</time>
      </trkpt>
      <trkpt lat="49.00128" lon="1.09221">
        <ele>111.16955566406</ele>
        <time>2011-02-11T12:17:07Z</time>
      </trkpt>
      <trkpt lat="49.00128" lon="1.09221">
        <ele>106.84362792969</ele>
        <time>2011-02-11T12:17:08Z</time>
      </trkpt>
      <trkpt lat="49.00128" lon="1.09221">
        <ele>108.28564453125</ele>
        <time>2011-02-11T12:17:11Z</time>
      </trkpt>
      <trkpt lat="49.00131" lon="1.09231">
        <ele>104.4404296875</ele>
        <time>2011-02-11T12:17:23Z</time>
      </trkpt>
      <trkpt lat="49.00131" lon="1.09231">
        <ele>109.72766113281</ele>
        <time>2011-02-11T12:17:24Z</time>
      </trkpt>
      <trkpt lat="49.00131" lon="1.09231">
        <ele>106.84362792969</ele>
        <time>2011-02-11T12:17:25Z</time>
      </trkpt>
      <trkpt lat="49.0013" lon="1.0923">
        <ele>102.99829101562</ele>
        <time>2011-02-11T12:17:33Z</time>
      </trkpt>
      <trkpt lat="49.0013" lon="1.0923">
        <ele>106.36303710938</ele>
        <time>2011-02-11T12:17:34Z</time>
      </trkpt>
      <trkpt lat="49.0013" lon="1.0923">
        <ele>107.32434082031</ele>
        <time>2011-02-11T12:17:36Z</time>
      </trkpt>
      <trkpt lat="49.00129" lon="1.0923">
        <ele>105.40173339844</ele>
        <time>2011-02-11T12:17:42Z</time>
      </trkpt>
      <trkpt lat="49.00129" lon="1.09229">
        <ele>107.80505371094</ele>
        <time>2011-02-11T12:17:47Z</time>
      </trkpt>
      <trkpt lat="49.00129" lon="1.0923">
        <ele>107.80505371094</ele>
        <time>2011-02-11T12:17:54Z</time>
      </trkpt>
      <trkpt lat="49.00129" lon="1.09227">
        <ele>104.4404296875</ele>
        <time>2011-02-11T12:18:04Z</time>
      </trkpt>
      <trkpt lat="49.00129" lon="1.09227">
        <ele>107.32434082031</ele>
        <time>2011-02-11T12:18:06Z</time>
      </trkpt>
      <trkpt lat="49.00129" lon="1.09227">
        <ele>108.28564453125</ele>
        <time>2011-02-11T12:18:19Z</time>
      </trkpt>
      <trkpt lat="49.00129" lon="1.09227">
        <ele>106.84362792969</ele>
        <time>2011-02-11T12:18:21Z</time>
      </trkpt>
      <trkpt lat="49.00129" lon="1.09227">
        <ele>105.88244628906</ele>
        <time>2011-02-11T12:18:31Z</time>
      </trkpt>
      <trkpt lat="49.0013" lon="1.09228">
        <ele>107.80505371094</ele>
        <time>2011-02-11T12:18:33Z</time>
      </trkpt>
      <trkpt lat="49.0013" lon="1.09228">
        <ele>109.24694824219</ele>
        <time>2011-02-11T12:18:46Z</time>
      </trkpt>
      <trkpt lat="49.0013" lon="1.09228">
        <ele>107.32434082031</ele>
        <time>2011-02-11T12:18:48Z</time>
      </trkpt>
      <trkpt lat="49.0013" lon="1.09229">
        <ele>110.68884277344</ele>
        <time>2011-02-11T12:18:51Z</time>
      </trkpt>
      <trkpt lat="49.0013" lon="1.09229">
        <ele>109.24694824219</ele>
        <time>2011-02-11T12:18:52Z</time>
      </trkpt>
      <trkpt lat="49.0013" lon="1.09229">
        <ele>105.88244628906</ele>
        <time>2011-02-11T12:18:54Z</time>
      </trkpt>
      <trkpt lat="49.0013" lon="1.09229">
        <ele>109.72766113281</ele>
        <time>2011-02-11T12:18:57Z</time>
      </trkpt>
      <trkpt lat="49.0013" lon="1.09228">
        <ele>106.36303710938</ele>
        <time>2011-02-11T12:19:05Z</time>
      </trkpt>
      <trkpt lat="49.00129" lon="1.09229">
        <ele>109.24694824219</ele>
        <time>2011-02-11T12:19:12Z</time>
      </trkpt>
      <trkpt lat="49.0013" lon="1.09229">
        <ele>105.88244628906</ele>
        <time>2011-02-11T12:19:23Z</time>
      </trkpt>
      <trkpt lat="49.0013" lon="1.09229">
        <ele>109.24694824219</ele>
        <time>2011-02-11T12:19:26Z</time>
      </trkpt>
      <trkpt lat="49.0013" lon="1.09229">
        <ele>108.28564453125</ele>
        <time>2011-02-11T12:19:27Z</time>
      </trkpt>
      <trkpt lat="49.0013" lon="1.09229">
        <ele>107.32434082031</ele>
        <time>2011-02-11T12:19:29Z</time>
      </trkpt>
      <trkpt lat="49.00129" lon="1.09229">
        <ele>110.20825195312</ele>
        <time>2011-02-11T12:19:34Z</time>
      </trkpt>
      <trkpt lat="49.00129" lon="1.09229">
        <ele>108.76623535156</ele>
        <time>2011-02-11T12:19:35Z</time>
      </trkpt>
      <trkpt lat="49.0013" lon="1.09228">
        <ele>112.13098144531</ele>
        <time>2011-02-11T12:19:46Z</time>
      </trkpt>
      <trkpt lat="49.0013" lon="1.09228">
        <ele>107.32434082031</ele>
        <time>2011-02-11T12:19:47Z</time>
      </trkpt>
      <trkpt lat="49.0013" lon="1.09229">
        <ele>110.68884277344</ele>
        <time>2011-02-11T12:19:50Z</time>
      </trkpt>
      <trkpt lat="49.0013" lon="1.09229">
        <ele>110.68884277344</ele>
        <time>2011-02-11T12:19:51Z</time>
      </trkpt>
      <trkpt lat="49.0013" lon="1.09229">
        <ele>107.32434082031</ele>
        <time>2011-02-11T12:19:53Z</time>
      </trkpt>
      <trkpt lat="49.0013" lon="1.09229">
        <ele>110.68884277344</ele>
        <time>2011-02-11T12:19:58Z</time>
      </trkpt>
      <trkpt lat="49.0013" lon="1.09229">
        <ele>107.32434082031</ele>
        <time>2011-02-11T12:20:00Z</time>
      </trkpt>
      <trkpt lat="49.0013" lon="1.0923">
        <ele>108.28564453125</ele>
        <time>2011-02-11T12:20:03Z</time>
      </trkpt>
      <trkpt lat="49.00133" lon="1.09239">
        <ele>107.80505371094</ele>
        <time>2011-02-11T12:20:08Z</time>
      </trkpt>
      <trkpt lat="49.00153" lon="1.093">
        <ele>108.28564453125</ele>
        <time>2011-02-11T12:20:25Z</time>
      </trkpt>
      <trkpt lat="49.00159" lon="1.0935">
        <ele>105.88244628906</ele>
        <time>2011-02-11T12:20:38Z</time>
      </trkpt>
      <trkpt lat="49.00159" lon="1.09372">
        <ele>102.037109375</ele>
        <time>2011-02-11T12:20:43Z</time>
      </trkpt>
      <trkpt lat="49.0016" lon="1.09377">
        <ele>102.037109375</ele>
        <time>2011-02-11T12:20:44Z</time>
      </trkpt>
      <trkpt lat="49.00162" lon="1.09395">
        <ele>97.23046875</ele>
        <time>2011-02-11T12:20:48Z</time>
      </trkpt>
      <trkpt lat="49.00162" lon="1.094">
        <ele>98.672485351562</ele>
        <time>2011-02-11T12:20:49Z</time>
      </trkpt>
      <trkpt lat="49.00165" lon="1.09419">
        <ele>95.307739257812</ele>
        <time>2011-02-11T12:20:53Z</time>
      </trkpt>
      <trkpt lat="49.00166" lon="1.09436">
        <ele>91.943237304688</ele>
        <time>2011-02-11T12:20:56Z</time>
      </trkpt>
      <trkpt lat="49.00167" lon="1.09456">
        <ele>88.578735351562</ele>
        <time>2011-02-11T12:21:00Z</time>
      </trkpt>
      <trkpt lat="49.00167" lon="1.09461">
        <ele>91.462524414062</ele>
        <time>2011-02-11T12:21:01Z</time>
      </trkpt>
      <trkpt lat="49.00167" lon="1.0947">
        <ele>88.578735351562</ele>
        <time>2011-02-11T12:21:03Z</time>
      </trkpt>
      <trkpt lat="49.00167" lon="1.09475">
        <ele>89.059326171875</ele>
        <time>2011-02-11T12:21:04Z</time>
      </trkpt>
      <trkpt lat="49.00168" lon="1.0948">
        <ele>85.213989257812</ele>
        <time>2011-02-11T12:21:05Z</time>
      </trkpt>
      <trkpt lat="49.00168" lon="1.09485">
        <ele>87.136596679688</ele>
        <time>2011-02-11T12:21:06Z</time>
      </trkpt>
      <trkpt lat="49.00169" lon="1.09511">
        <ele>83.291381835938</ele>
        <time>2011-02-11T12:21:11Z</time>
      </trkpt>
      <trkpt lat="49.00169" lon="1.09533">
        <ele>79.446044921875</ele>
        <time>2011-02-11T12:21:16Z</time>
      </trkpt>
      <trkpt lat="49.00167" lon="1.09564">
        <ele>76.081420898438</ele>
        <time>2011-02-11T12:21:22Z</time>
      </trkpt>
      <trkpt lat="49.00167" lon="1.09574">
        <ele>75.120239257812</ele>
        <time>2011-02-11T12:21:24Z</time>
      </trkpt>
      <trkpt lat="49.00166" lon="1.09587">
        <ele>74.158813476562</ele>
        <time>2011-02-11T12:21:26Z</time>
      </trkpt>
      <trkpt lat="49.00165" lon="1.09599">
        <ele>70.794189453125</ele>
        <time>2011-02-11T12:21:28Z</time>
      </trkpt>
      <trkpt lat="49.00165" lon="1.09635">
        <ele>66.948974609375</ele>
        <time>2011-02-11T12:21:36Z</time>
      </trkpt>
      <trkpt lat="49.00166" lon="1.09643">
        <ele>65.987670898438</ele>
        <time>2011-02-11T12:21:38Z</time>
      </trkpt>
      <trkpt lat="49.0017" lon="1.09667">
        <ele>62.622924804688</ele>
        <time>2011-02-11T12:21:43Z</time>
      </trkpt>
      <trkpt lat="49.00173" lon="1.09688">
        <ele>59.258422851562</ele>
        <time>2011-02-11T12:21:47Z</time>
      </trkpt>
      <trkpt lat="49.00174" lon="1.09693">
        <ele>59.739135742188</ele>
        <time>2011-02-11T12:21:48Z</time>
      </trkpt>
      <trkpt lat="49.00178" lon="1.09724">
        <ele>59.258422851562</ele>
        <time>2011-02-11T12:21:55Z</time>
      </trkpt>
      <trkpt lat="49.00182" lon="1.09741">
        <ele>58.297119140625</ele>
        <time>2011-02-11T12:21:59Z</time>
      </trkpt>
      <trkpt lat="49.00188" lon="1.09749">
        <ele>59.739135742188</ele>
        <time>2011-02-11T12:22:01Z</time>
      </trkpt>
      <trkpt lat="49.00199" lon="1.09768">
        <ele>61.181030273438</ele>
        <time>2011-02-11T12:22:05Z</time>
      </trkpt>
      <trkpt lat="49.00242" lon="1.09837">
        <ele>62.142333984375</ele>
        <time>2011-02-11T12:22:17Z</time>
      </trkpt>
      <trkpt lat="49.00249" lon="1.09872">
        <ele>57.816528320312</ele>
        <time>2011-02-11T12:22:22Z</time>
      </trkpt>
      <trkpt lat="49.00245" lon="1.0988">
        <ele>58.297119140625</ele>
        <time>2011-02-11T12:22:23Z</time>
      </trkpt>
      <trkpt lat="49.00229" lon="1.09899">
        <ele>58.777709960938</ele>
        <time>2011-02-11T12:22:26Z</time>
      </trkpt>
      <trkpt lat="49.00201" lon="1.09924">
        <ele>58.777709960938</ele>
        <time>2011-02-11T12:22:31Z</time>
      </trkpt>
      <trkpt lat="49.00191" lon="1.09934">
        <ele>55.4130859375</ele>
        <time>2011-02-11T12:22:33Z</time>
      </trkpt>
      <trkpt lat="49.00175" lon="1.09949">
        <ele>58.777709960938</ele>
        <time>2011-02-11T12:22:36Z</time>
      </trkpt>
      <trkpt lat="49.00155" lon="1.09968">
        <ele>58.297119140625</ele>
        <time>2011-02-11T12:22:40Z</time>
      </trkpt>
      <trkpt lat="49.00122" lon="1.1">
        <ele>59.739135742188</ele>
        <time>2011-02-11T12:22:47Z</time>
      </trkpt>
      <trkpt lat="49.00113" lon="1.10009">
        <ele>57.816528320312</ele>
        <time>2011-02-11T12:22:49Z</time>
      </trkpt>
      <trkpt lat="49.00088" lon="1.10034">
        <ele>57.335815429688</ele>
        <time>2011-02-11T12:22:54Z</time>
      </trkpt>
      <trkpt lat="49.00044" lon="1.10056">
        <ele>60.700317382812</ele>
        <time>2011-02-11T12:23:02Z</time>
      </trkpt>
      <trkpt lat="49.00039" lon="1.10058">
        <ele>57.335815429688</ele>
        <time>2011-02-11T12:23:03Z</time>
      </trkpt>
      <trkpt lat="49.00008" lon="1.1007">
        <ele>60.700317382812</ele>
        <time>2011-02-11T12:23:09Z</time>
      </trkpt>
      <trkpt lat="48.99995" lon="1.1008">
        <ele>59.739135742188</ele>
        <time>2011-02-11T12:23:12Z</time>
      </trkpt>
      <trkpt lat="48.99953" lon="1.10108">
        <ele>60.700317382812</ele>
        <time>2011-02-11T12:23:22Z</time>
      </trkpt>
      <trkpt lat="48.9994" lon="1.10107">
        <ele>57.816528320312</ele>
        <time>2011-02-11T12:23:26Z</time>
      </trkpt>
      <trkpt lat="48.99937" lon="1.10086">
        <ele>58.297119140625</ele>
        <time>2011-02-11T12:23:29Z</time>
      </trkpt>
      <trkpt lat="48.99913" lon="1.10009">
        <ele>55.4130859375</ele>
        <time>2011-02-11T12:23:40Z</time>
      </trkpt>
      <trkpt lat="48.99911" lon="1.10002">
        <ele>59.258422851562</ele>
        <time>2011-02-11T12:23:41Z</time>
      </trkpt>
      <trkpt lat="48.99909" lon="1.09995">
        <ele>59.258422851562</ele>
        <time>2011-02-11T12:23:42Z</time>
      </trkpt>
      <trkpt lat="48.99902" lon="1.09974">
        <ele>57.816528320312</ele>
        <time>2011-02-11T12:23:45Z</time>
      </trkpt>
      <trkpt lat="48.99897" lon="1.09961">
        <ele>54.451782226562</ele>
        <time>2011-02-11T12:23:47Z</time>
      </trkpt>
      <trkpt lat="48.99895" lon="1.09954">
        <ele>58.297119140625</ele>
        <time>2011-02-11T12:23:48Z</time>
      </trkpt>
      <trkpt lat="48.99869" lon="1.09883">
        <ele>58.777709960938</ele>
        <time>2011-02-11T12:23:59Z</time>
      </trkpt>
      <trkpt lat="48.99854" lon="1.09839">
        <ele>62.142333984375</ele>
        <time>2011-02-11T12:24:06Z</time>
      </trkpt>
      <trkpt lat="48.99852" lon="1.09833">
        <ele>58.777709960938</ele>
        <time>2011-02-11T12:24:07Z</time>
      </trkpt>
      <trkpt lat="48.99838" lon="1.09796">
        <ele>59.258422851562</ele>
        <time>2011-02-11T12:24:13Z</time>
      </trkpt>
      <trkpt lat="48.99834" lon="1.09784">
        <ele>62.142333984375</ele>
        <time>2011-02-11T12:24:15Z</time>
      </trkpt>
      <trkpt lat="48.99831" lon="1.09772">
        <ele>61.661743164062</ele>
        <time>2011-02-11T12:24:17Z</time>
      </trkpt>
      <trkpt lat="48.9982" lon="1.09759">
        <ele>56.37451171875</ele>
        <time>2011-02-11T12:24:21Z</time>
      </trkpt>
      <trkpt lat="48.99817" lon="1.09762">
        <ele>57.335815429688</ele>
        <time>2011-02-11T12:24:22Z</time>
      </trkpt>
      <trkpt lat="48.99801" lon="1.09786">
        <ele>58.777709960938</ele>
        <time>2011-02-11T12:24:27Z</time>
      </trkpt>
      <trkpt lat="48.99794" lon="1.09796">
        <ele>57.816528320312</ele>
        <time>2011-02-11T12:24:29Z</time>
      </trkpt>
      <trkpt lat="48.99767" lon="1.09833">
        <ele>54.451782226562</ele>
        <time>2011-02-11T12:24:37Z</time>
      </trkpt>
      <trkpt lat="48.99763" lon="1.09839">
        <ele>58.777709960938</ele>
        <time>2011-02-11T12:24:38Z</time>
      </trkpt>
      <trkpt lat="48.99732" lon="1.0988">
        <ele>55.4130859375</ele>
        <time>2011-02-11T12:24:46Z</time>
      </trkpt>
      <trkpt lat="48.99712" lon="1.09908">
        <ele>59.258422851562</ele>
        <time>2011-02-11T12:24:51Z</time>
      </trkpt>
      <trkpt lat="48.99695" lon="1.0993">
        <ele>58.777709960938</ele>
        <time>2011-02-11T12:24:55Z</time>
      </trkpt>
      <trkpt lat="48.9967" lon="1.0996">
        <ele>61.181030273438</ele>
        <time>2011-02-11T12:25:01Z</time>
      </trkpt>
      <trkpt lat="48.99665" lon="1.09964">
        <ele>57.816528320312</ele>
        <time>2011-02-11T12:25:02Z</time>
      </trkpt>
      <trkpt lat="48.99661" lon="1.09968">
        <ele>57.816528320312</ele>
        <time>2011-02-11T12:25:03Z</time>
      </trkpt>
      <trkpt lat="48.99656" lon="1.09972">
        <ele>61.661743164062</ele>
        <time>2011-02-11T12:25:04Z</time>
      </trkpt>
      <trkpt lat="48.99652" lon="1.09976">
        <ele>59.258422851562</ele>
        <time>2011-02-11T12:25:05Z</time>
      </trkpt>
      <trkpt lat="48.99643" lon="1.09982">
        <ele>58.297119140625</ele>
        <time>2011-02-11T12:25:07Z</time>
      </trkpt>
      <trkpt lat="48.99625" lon="1.09993">
        <ele>62.142333984375</ele>
        <time>2011-02-11T12:25:11Z</time>
      </trkpt>
      <trkpt lat="48.99608" lon="1.10002">
        <ele>58.777709960938</ele>
        <time>2011-02-11T12:25:15Z</time>
      </trkpt>
      <trkpt lat="48.99578" lon="1.10017">
        <ele>58.777709960938</ele>
        <time>2011-02-11T12:25:22Z</time>
      </trkpt>
      <trkpt lat="48.99555" lon="1.10004">
        <ele>61.181030273438</ele>
        <time>2011-02-11T12:25:29Z</time>
      </trkpt>
      <trkpt lat="48.99554" lon="1.09998">
        <ele>60.700317382812</ele>
        <time>2011-02-11T12:25:30Z</time>
      </trkpt>
      <trkpt lat="48.9955" lon="1.09984">
        <ele>63.584350585938</ele>
        <time>2011-02-11T12:25:33Z</time>
      </trkpt>
      <trkpt lat="48.99546" lon="1.09968">
        <ele>64.065063476562</ele>
        <time>2011-02-11T12:25:37Z</time>
      </trkpt>
      <trkpt lat="48.99531" lon="1.09924">
        <ele>67.910278320312</ele>
        <time>2011-02-11T12:25:48Z</time>
      </trkpt>
      <trkpt lat="48.9953" lon="1.0992">
        <ele>67.4296875</ele>
        <time>2011-02-11T12:25:49Z</time>
      </trkpt>
      <trkpt lat="48.99528" lon="1.09916">
        <ele>64.545654296875</ele>
        <time>2011-02-11T12:25:50Z</time>
      </trkpt>
      <trkpt lat="48.99526" lon="1.09912">
        <ele>64.545654296875</ele>
        <time>2011-02-11T12:25:51Z</time>
      </trkpt>
      <trkpt lat="48.99525" lon="1.09909">
        <ele>68.390869140625</ele>
        <time>2011-02-11T12:25:52Z</time>
      </trkpt>
      <trkpt lat="48.99493" lon="1.09858">
        <ele>71.27490234375</ele>
        <time>2011-02-11T12:26:08Z</time>
      </trkpt>
      <trkpt lat="48.99491" lon="1.09856">
        <ele>71.27490234375</ele>
        <time>2011-02-11T12:26:09Z</time>
      </trkpt>
      <trkpt lat="48.99481" lon="1.09853">
        <ele>71.27490234375</ele>
        <time>2011-02-11T12:26:13Z</time>
      </trkpt>
      <trkpt lat="48.99465" lon="1.09851">
        <ele>71.755493164062</ele>
        <time>2011-02-11T12:26:19Z</time>
      </trkpt>
      <trkpt lat="48.99462" lon="1.09856">
        <ele>70.794189453125</ele>
        <time>2011-02-11T12:26:21Z</time>
      </trkpt>
      <trkpt lat="48.99443" lon="1.09898">
        <ele>74.158813476562</ele>
        <time>2011-02-11T12:26:31Z</time>
      </trkpt>
      <trkpt lat="48.99433" lon="1.09912">
        <ele>71.27490234375</ele>
        <time>2011-02-11T12:26:35Z</time>
      </trkpt>
      <trkpt lat="48.99396" lon="1.09926">
        <ele>74.158813476562</ele>
        <time>2011-02-11T12:26:47Z</time>
      </trkpt>
      <trkpt lat="48.9939" lon="1.09928">
        <ele>75.600830078125</ele>
        <time>2011-02-11T12:26:49Z</time>
      </trkpt>
      <trkpt lat="48.99333" lon="1.09953">
        <ele>77.042846679688</ele>
        <time>2011-02-11T12:27:10Z</time>
      </trkpt>
      <trkpt lat="48.99294" lon="1.0997">
        <ele>81.368774414062</ele>
        <time>2011-02-11T12:27:25Z</time>
      </trkpt>
      <trkpt lat="48.99291" lon="1.09972">
        <ele>80.88818359375</ele>
        <time>2011-02-11T12:27:26Z</time>
      </trkpt>
      <trkpt lat="48.99277" lon="1.09978">
        <ele>82.330078125</ele>
        <time>2011-02-11T12:27:32Z</time>
      </trkpt>
      <trkpt lat="48.9927" lon="1.09982">
        <ele>80.88818359375</ele>
        <time>2011-02-11T12:27:35Z</time>
      </trkpt>
      <trkpt lat="48.99252" lon="1.09982">
        <ele>83.77197265625</ele>
        <time>2011-02-11T12:27:42Z</time>
      </trkpt>
      <trkpt lat="48.99231" lon="1.0998">
        <ele>85.694580078125</ele>
        <time>2011-02-11T12:27:50Z</time>
      </trkpt>
      <trkpt lat="48.99204" lon="1.09986">
        <ele>87.6171875</ele>
        <time>2011-02-11T12:28:02Z</time>
      </trkpt>
      <trkpt lat="48.992" lon="1.09987">
        <ele>89.059326171875</ele>
        <time>2011-02-11T12:28:04Z</time>
      </trkpt>
      <trkpt lat="48.99195" lon="1.09989">
        <ele>88.098022460938</ele>
        <time>2011-02-11T12:28:06Z</time>
      </trkpt>
      <trkpt lat="48.99187" lon="1.09992">
        <ele>92.423950195312</ele>
        <time>2011-02-11T12:28:10Z</time>
      </trkpt>
      <trkpt lat="48.99185" lon="1.09993">
        <ele>91.943237304688</ele>
        <time>2011-02-11T12:28:11Z</time>
      </trkpt>
      <trkpt lat="48.99176" lon="1.10015">
        <ele>92.423950195312</ele>
        <time>2011-02-11T12:28:19Z</time>
      </trkpt>
      <trkpt lat="48.99173" lon="1.1003">
        <ele>95.307739257812</ele>
        <time>2011-02-11T12:28:24Z</time>
      </trkpt>
      <trkpt lat="48.99153" lon="1.10068">
        <ele>96.269287109375</ele>
        <time>2011-02-11T12:28:42Z</time>
      </trkpt>
      <trkpt lat="48.99132" lon="1.10062">
        <ele>101.07568359375</ele>
        <time>2011-02-11T12:28:51Z</time>
      </trkpt>
      <trkpt lat="48.9913" lon="1.10062">
        <ele>98.672485351562</ele>
        <time>2011-02-11T12:28:52Z</time>
      </trkpt>
      <trkpt lat="48.99115" lon="1.10073">
        <ele>100.59509277344</ele>
        <time>2011-02-11T12:28:59Z</time>
      </trkpt>
      <trkpt lat="48.991" lon="1.10093">
        <ele>102.037109375</ele>
        <time>2011-02-11T12:29:08Z</time>
      </trkpt>
      <trkpt lat="48.9909" lon="1.10107">
        <ele>105.88244628906</ele>
        <time>2011-02-11T12:29:14Z</time>
      </trkpt>
      <trkpt lat="48.99088" lon="1.10109">
        <ele>103.47900390625</ele>
        <time>2011-02-11T12:29:15Z</time>
      </trkpt>
      <trkpt lat="48.99072" lon="1.10131">
        <ele>103.95971679688</ele>
        <time>2011-02-11T12:29:24Z</time>
      </trkpt>
      <trkpt lat="48.99081" lon="1.10178">
        <ele>105.40173339844</ele>
        <time>2011-02-11T12:29:35Z</time>
      </trkpt>
      <trkpt lat="48.99085" lon="1.10188">
        <ele>104.4404296875</ele>
        <time>2011-02-11T12:29:37Z</time>
      </trkpt>
      <trkpt lat="48.99103" lon="1.1021">
        <ele>100.59509277344</ele>
        <time>2011-02-11T12:29:42Z</time>
      </trkpt>
      <trkpt lat="48.99108" lon="1.10211">
        <ele>100.59509277344</ele>
        <time>2011-02-11T12:29:43Z</time>
      </trkpt>
      <trkpt lat="48.99129" lon="1.10231">
        <ele>99.153076171875</ele>
        <time>2011-02-11T12:29:49Z</time>
      </trkpt>
      <trkpt lat="48.99121" lon="1.10256">
        <ele>99.6337890625</ele>
        <time>2011-02-11T12:29:51Z</time>
      </trkpt>
      <trkpt lat="48.99119" lon="1.10272">
        <ele>100.59509277344</ele>
        <time>2011-02-11T12:29:53Z</time>
      </trkpt>
      <trkpt lat="48.99099" lon="1.10293">
        <ele>101.55639648438</ele>
        <time>2011-02-11T12:30:00Z</time>
      </trkpt>
      <trkpt lat="48.99092" lon="1.10288">
        <ele>103.47900390625</ele>
        <time>2011-02-11T12:30:02Z</time>
      </trkpt>
      <trkpt lat="48.99073" lon="1.10252">
        <ele>104.4404296875</ele>
        <time>2011-02-11T12:30:09Z</time>
      </trkpt>
      <trkpt lat="48.99048" lon="1.10186">
        <ele>105.40173339844</ele>
        <time>2011-02-11T12:30:23Z</time>
      </trkpt>
      <trkpt lat="48.9903" lon="1.10133">
        <ele>108.28564453125</ele>
        <time>2011-02-11T12:30:34Z</time>
      </trkpt>
      <trkpt lat="48.99024" lon="1.10119">
        <ele>106.36303710938</ele>
        <time>2011-02-11T12:30:37Z</time>
      </trkpt>
      <trkpt lat="48.98977" lon="1.10033">
        <ele>109.24694824219</ele>
        <time>2011-02-11T12:30:56Z</time>
      </trkpt>
      <trkpt lat="48.9897" lon="1.10022">
        <ele>110.20825195312</ele>
        <time>2011-02-11T12:30:59Z</time>
      </trkpt>
      <trkpt lat="48.98939" lon="1.09974">
        <ele>111.65026855469</ele>
        <time>2011-02-11T12:31:13Z</time>
      </trkpt>
      <trkpt lat="48.98909" lon="1.09932">
        <ele>115.01489257812</ele>
        <time>2011-02-11T12:31:26Z</time>
      </trkpt>
      <trkpt lat="48.98907" lon="1.09928">
        <ele>115.01489257812</ele>
        <time>2011-02-11T12:31:27Z</time>
      </trkpt>
      <trkpt lat="48.98874" lon="1.09886">
        <ele>114.5341796875</ele>
        <time>2011-02-11T12:31:40Z</time>
      </trkpt>
      <trkpt lat="48.98836" lon="1.09839">
        <ele>117.89880371094</ele>
        <time>2011-02-11T12:31:55Z</time>
      </trkpt>
      <trkpt lat="48.98779" lon="1.0977">
        <ele>120.78283691406</ele>
        <time>2011-02-11T12:32:17Z</time>
      </trkpt>
      <trkpt lat="48.98759" lon="1.09746">
        <ele>121.26354980469</ele>
        <time>2011-02-11T12:32:24Z</time>
      </trkpt>
      <trkpt lat="48.98743" lon="1.09727">
        <ele>122.22473144531</ele>
        <time>2011-02-11T12:32:30Z</time>
      </trkpt>
      <trkpt lat="48.98672" lon="1.09639">
        <ele>124.62805175781</ele>
        <time>2011-02-11T12:32:57Z</time>
      </trkpt>
      <trkpt lat="48.98617" lon="1.09572">
        <ele>124.14733886719</ele>
        <time>2011-02-11T12:33:14Z</time>
      </trkpt>
      <trkpt lat="48.98576" lon="1.09535">
        <ele>123.66674804688</ele>
        <time>2011-02-11T12:33:23Z</time>
      </trkpt>
      <trkpt lat="48.98557" lon="1.09521">
        <ele>123.66674804688</ele>
        <time>2011-02-11T12:33:27Z</time>
      </trkpt>
      <trkpt lat="48.9851" lon="1.09486">
        <ele>127.51196289062</ele>
        <time>2011-02-11T12:33:37Z</time>
      </trkpt>
      <trkpt lat="48.98435" lon="1.0943">
        <ele>127.99255371094</ele>
        <time>2011-02-11T12:33:54Z</time>
      </trkpt>
      <trkpt lat="48.98383" lon="1.0939">
        <ele>127.51196289062</ele>
        <time>2011-02-11T12:34:08Z</time>
      </trkpt>
      <trkpt lat="48.98373" lon="1.09382">
        <ele>130.87670898438</ele>
        <time>2011-02-11T12:34:11Z</time>
      </trkpt>
      <trkpt lat="48.98281" lon="1.09311">
        <ele>132.31860351562</ele>
        <time>2011-02-11T12:34:39Z</time>
      </trkpt>
      <trkpt lat="48.98246" lon="1.09284">
        <ele>134.2412109375</ele>
        <time>2011-02-11T12:34:50Z</time>
      </trkpt>
      <trkpt lat="48.98194" lon="1.09245">
        <ele>136.16394042969</ele>
        <time>2011-02-11T12:35:07Z</time>
      </trkpt>
      <trkpt lat="48.98137" lon="1.09201">
        <ele>137.60583496094</ele>
        <time>2011-02-11T12:35:25Z</time>
      </trkpt>
      <trkpt lat="48.9813" lon="1.09195">
        <ele>135.68310546875</ele>
        <time>2011-02-11T12:35:27Z</time>
      </trkpt>
      <trkpt lat="48.98091" lon="1.09162">
        <ele>138.56726074219</ele>
        <time>2011-02-11T12:35:38Z</time>
      </trkpt>
      <trkpt lat="48.98042" lon="1.09125">
        <ele>138.08654785156</ele>
        <time>2011-02-11T12:35:51Z</time>
      </trkpt>
      <trkpt lat="48.97988" lon="1.09081">
        <ele>137.12524414062</ele>
        <time>2011-02-11T12:36:03Z</time>
      </trkpt>
      <trkpt lat="48.97974" lon="1.0907">
        <ele>138.56726074219</ele>
        <time>2011-02-11T12:36:06Z</time>
      </trkpt>
      <trkpt lat="48.97925" lon="1.09031">
        <ele>137.60583496094</ele>
        <time>2011-02-11T12:36:16Z</time>
      </trkpt>
      <trkpt lat="48.97915" lon="1.09023">
        <ele>138.56726074219</ele>
        <time>2011-02-11T12:36:18Z</time>
      </trkpt>
      <trkpt lat="48.97812" lon="1.08942">
        <ele>139.0478515625</ele>
        <time>2011-02-11T12:36:39Z</time>
      </trkpt>
      <trkpt lat="48.97784" lon="1.08921">
        <ele>137.12524414062</ele>
        <time>2011-02-11T12:36:44Z</time>
      </trkpt>
      <trkpt lat="48.97735" lon="1.08882">
        <ele>138.08654785156</ele>
        <time>2011-02-11T12:36:53Z</time>
      </trkpt>
      <trkpt lat="48.97725" lon="1.08874">
        <ele>136.64465332031</ele>
        <time>2011-02-11T12:36:55Z</time>
      </trkpt>
      <trkpt lat="48.97703" lon="1.08858">
        <ele>135.20251464844</ele>
        <time>2011-02-11T12:36:59Z</time>
      </trkpt>
      <trkpt lat="48.97697" lon="1.08853">
        <ele>139.0478515625</ele>
        <time>2011-02-11T12:37:00Z</time>
      </trkpt>
      <trkpt lat="48.97691" lon="1.08848">
        <ele>138.56726074219</ele>
        <time>2011-02-11T12:37:01Z</time>
      </trkpt>
      <trkpt lat="48.97674" lon="1.08835">
        <ele>137.12524414062</ele>
        <time>2011-02-11T12:37:04Z</time>
      </trkpt>
      <trkpt lat="48.97627" lon="1.08798">
        <ele>135.20251464844</ele>
        <time>2011-02-11T12:37:13Z</time>
      </trkpt>
      <trkpt lat="48.97522" lon="1.08717">
        <ele>135.68310546875</ele>
        <time>2011-02-11T12:37:32Z</time>
      </trkpt>
      <trkpt lat="48.97482" lon="1.08687">
        <ele>132.31860351562</ele>
        <time>2011-02-11T12:37:40Z</time>
      </trkpt>
      <trkpt lat="48.97473" lon="1.0868">
        <ele>131.35729980469</ele>
        <time>2011-02-11T12:37:42Z</time>
      </trkpt>
      <trkpt lat="48.9746" lon="1.08667">
        <ele>134.2412109375</ele>
        <time>2011-02-11T12:37:45Z</time>
      </trkpt>
      <trkpt lat="48.97427" lon="1.0865">
        <ele>132.79931640625</ele>
        <time>2011-02-11T12:37:52Z</time>
      </trkpt>
      <trkpt lat="48.97334" lon="1.08524">
        <ele>136.64465332031</ele>
        <time>2011-02-11T12:38:15Z</time>
      </trkpt>
      <trkpt lat="48.97326" lon="1.08514">
        <ele>132.31860351562</ele>
        <time>2011-02-11T12:38:17Z</time>
      </trkpt>
      <trkpt lat="48.97321" lon="1.08509">
        <ele>133.27990722656</ele>
        <time>2011-02-11T12:38:18Z</time>
      </trkpt>
      <trkpt lat="48.97298" lon="1.08487">
        <ele>132.79931640625</ele>
        <time>2011-02-11T12:38:23Z</time>
      </trkpt>
      <trkpt lat="48.97222" lon="1.08427">
        <ele>135.20251464844</ele>
        <time>2011-02-11T12:38:39Z</time>
      </trkpt>
      <trkpt lat="48.97194" lon="1.08402">
        <ele>132.79931640625</ele>
        <time>2011-02-11T12:38:45Z</time>
      </trkpt>
      <trkpt lat="48.97093" lon="1.08331">
        <ele>136.64465332031</ele>
        <time>2011-02-11T12:39:05Z</time>
      </trkpt>
      <trkpt lat="48.97046" lon="1.08293">
        <ele>136.64465332031</ele>
        <time>2011-02-11T12:39:15Z</time>
      </trkpt>
      <trkpt lat="48.96992" lon="1.08248">
        <ele>136.64465332031</ele>
        <time>2011-02-11T12:39:26Z</time>
      </trkpt>
      <trkpt lat="48.96962" lon="1.08196">
        <ele>137.60583496094</ele>
        <time>2011-02-11T12:39:35Z</time>
      </trkpt>
      <trkpt lat="48.96953" lon="1.08173">
        <ele>136.64465332031</ele>
        <time>2011-02-11T12:39:38Z</time>
      </trkpt>
      <trkpt lat="48.96941" lon="1.08133">
        <ele>137.60583496094</ele>
        <time>2011-02-11T12:39:43Z</time>
      </trkpt>
      <trkpt lat="48.96929" lon="1.08093">
        <ele>137.60583496094</ele>
        <time>2011-02-11T12:39:48Z</time>
      </trkpt>
      <trkpt lat="48.96926" lon="1.08085">
        <ele>136.64465332031</ele>
        <time>2011-02-11T12:39:49Z</time>
      </trkpt>
      <trkpt lat="48.96891" lon="1.07962">
        <ele>136.16394042969</ele>
        <time>2011-02-11T12:40:04Z</time>
      </trkpt>
      <trkpt lat="48.96883" lon="1.07929">
        <ele>137.60583496094</ele>
        <time>2011-02-11T12:40:08Z</time>
      </trkpt>
      <trkpt lat="48.96878" lon="1.07881">
        <ele>137.60583496094</ele>
        <time>2011-02-11T12:40:13Z</time>
      </trkpt>
      <trkpt lat="48.96878" lon="1.07824">
        <ele>135.68310546875</ele>
        <time>2011-02-11T12:40:19Z</time>
      </trkpt>
      <trkpt lat="48.9688" lon="1.07796">
        <ele>136.16394042969</ele>
        <time>2011-02-11T12:40:22Z</time>
      </trkpt>
      <trkpt lat="48.96923" lon="1.07669">
        <ele>135.20251464844</ele>
        <time>2011-02-11T12:40:36Z</time>
      </trkpt>
      <trkpt lat="48.96913" lon="1.07626">
        <ele>131.35729980469</ele>
        <time>2011-02-11T12:40:42Z</time>
      </trkpt>
      <trkpt lat="48.96888" lon="1.07627">
        <ele>129.43469238281</ele>
        <time>2011-02-11T12:40:45Z</time>
      </trkpt>
      <trkpt lat="48.96857" lon="1.07668">
        <ele>126.06994628906</ele>
        <time>2011-02-11T12:40:50Z</time>
      </trkpt>
      <trkpt lat="48.96837" lon="1.0771">
        <ele>124.62805175781</ele>
        <time>2011-02-11T12:40:54Z</time>
      </trkpt>
      <trkpt lat="48.96823" lon="1.07744">
        <ele>121.26354980469</ele>
        <time>2011-02-11T12:40:57Z</time>
      </trkpt>
      <trkpt lat="48.96817" lon="1.07754">
        <ele>121.26354980469</ele>
        <time>2011-02-11T12:40:58Z</time>
      </trkpt>
      <trkpt lat="48.96811" lon="1.07765">
        <ele>121.26354980469</ele>
        <time>2011-02-11T12:40:59Z</time>
      </trkpt>
      <trkpt lat="48.96782" lon="1.07798">
        <ele>117.41821289062</ele>
        <time>2011-02-11T12:41:03Z</time>
      </trkpt>
      <trkpt lat="48.96774" lon="1.07806">
        <ele>117.89880371094</ele>
        <time>2011-02-11T12:41:04Z</time>
      </trkpt>
      <trkpt lat="48.9672" lon="1.07827">
        <ele>115.49560546875</ele>
        <time>2011-02-11T12:41:10Z</time>
      </trkpt>
      <trkpt lat="48.96674" lon="1.07832">
        <ele>113.57299804688</ele>
        <time>2011-02-11T12:41:15Z</time>
      </trkpt>
      <trkpt lat="48.96656" lon="1.07834">
        <ele>114.05358886719</ele>
        <time>2011-02-11T12:41:17Z</time>
      </trkpt>
      <trkpt lat="48.96639" lon="1.0783">
        <ele>115.49560546875</ele>
        <time>2011-02-11T12:41:19Z</time>
      </trkpt>
      <trkpt lat="48.96632" lon="1.07824">
        <ele>112.13098144531</ele>
        <time>2011-02-11T12:41:20Z</time>
      </trkpt>
      <trkpt lat="48.9662" lon="1.07806">
        <ele>112.61157226562</ele>
        <time>2011-02-11T12:41:22Z</time>
      </trkpt>
      <trkpt lat="48.96604" lon="1.07769">
        <ele>114.05358886719</ele>
        <time>2011-02-11T12:41:26Z</time>
      </trkpt>
      <trkpt lat="48.96588" lon="1.07739">
        <ele>116.45678710938</ele>
        <time>2011-02-11T12:41:30Z</time>
      </trkpt>
      <trkpt lat="48.9655" lon="1.07668">
        <ele>119.3408203125</ele>
        <time>2011-02-11T12:41:41Z</time>
      </trkpt>
      <trkpt lat="48.96526" lon="1.07614">
        <ele>121.26354980469</ele>
        <time>2011-02-11T12:41:51Z</time>
      </trkpt>
      <trkpt lat="48.96502" lon="1.07558">
        <ele>125.10876464844</ele>
        <time>2011-02-11T12:42:03Z</time>
      </trkpt>
      <trkpt lat="48.96482" lon="1.07511">
        <ele>125.58935546875</ele>
        <time>2011-02-11T12:42:14Z</time>
      </trkpt>
      <trkpt lat="48.96454" lon="1.07443">
        <ele>129.43469238281</ele>
        <time>2011-02-11T12:42:31Z</time>
      </trkpt>
      <trkpt lat="48.96452" lon="1.07438">
        <ele>127.99255371094</ele>
        <time>2011-02-11T12:42:32Z</time>
      </trkpt>
      <trkpt lat="48.9642" lon="1.07362">
        <ele>128.9541015625</ele>
        <time>2011-02-11T12:42:50Z</time>
      </trkpt>
      <trkpt lat="48.96408" lon="1.07336">
        <ele>131.837890625</ele>
        <time>2011-02-11T12:42:56Z</time>
      </trkpt>
      <trkpt lat="48.964" lon="1.07319">
        <ele>128.9541015625</ele>
        <time>2011-02-11T12:43:00Z</time>
      </trkpt>
      <trkpt lat="48.96398" lon="1.07314">
        <ele>129.91528320312</ele>
        <time>2011-02-11T12:43:01Z</time>
      </trkpt>
      <trkpt lat="48.96332" lon="1.07199">
        <ele>131.837890625</ele>
        <time>2011-02-11T12:43:30Z</time>
      </trkpt>
      <trkpt lat="48.96311" lon="1.07173">
        <ele>131.35729980469</ele>
        <time>2011-02-11T12:43:38Z</time>
      </trkpt>
      <trkpt lat="48.9629" lon="1.07148">
        <ele>134.2412109375</ele>
        <time>2011-02-11T12:43:45Z</time>
      </trkpt>
      <trkpt lat="48.96281" lon="1.07137">
        <ele>131.837890625</ele>
        <time>2011-02-11T12:43:48Z</time>
      </trkpt>
      <trkpt lat="48.96253" lon="1.07105">
        <ele>135.20251464844</ele>
        <time>2011-02-11T12:43:57Z</time>
      </trkpt>
      <trkpt lat="48.96247" lon="1.07098">
        <ele>131.35729980469</ele>
        <time>2011-02-11T12:43:59Z</time>
      </trkpt>
      <trkpt lat="48.96244" lon="1.07094">
        <ele>131.35729980469</ele>
        <time>2011-02-11T12:44:00Z</time>
      </trkpt>
      <trkpt lat="48.96239" lon="1.07088">
        <ele>132.79931640625</ele>
        <time>2011-02-11T12:44:02Z</time>
      </trkpt>
      <trkpt lat="48.96222" lon="1.07068">
        <ele>132.31860351562</ele>
        <time>2011-02-11T12:44:08Z</time>
      </trkpt>
      <trkpt lat="48.96208" lon="1.07053">
        <ele>135.68310546875</ele>
        <time>2011-02-11T12:44:13Z</time>
      </trkpt>
      <trkpt lat="48.96137" lon="1.06971">
        <ele>135.20251464844</ele>
        <time>2011-02-11T12:44:38Z</time>
      </trkpt>
      <trkpt lat="48.96132" lon="1.06965">
        <ele>136.64465332031</ele>
        <time>2011-02-11T12:44:40Z</time>
      </trkpt>
      <trkpt lat="48.96124" lon="1.06956">
        <ele>135.20251464844</ele>
        <time>2011-02-11T12:44:43Z</time>
      </trkpt>
      <trkpt lat="48.96083" lon="1.06913">
        <ele>138.56726074219</ele>
        <time>2011-02-11T12:44:57Z</time>
      </trkpt>
      <trkpt lat="48.9608" lon="1.0691">
        <ele>135.20251464844</ele>
        <time>2011-02-11T12:44:58Z</time>
      </trkpt>
      <trkpt lat="48.96075" lon="1.06904">
        <ele>138.56726074219</ele>
        <time>2011-02-11T12:45:00Z</time>
      </trkpt>
      <trkpt lat="48.96045" lon="1.06873">
        <ele>135.20251464844</ele>
        <time>2011-02-11T12:45:10Z</time>
      </trkpt>
      <trkpt lat="48.96042" lon="1.0687">
        <ele>138.56726074219</ele>
        <time>2011-02-11T12:45:11Z</time>
      </trkpt>
      <trkpt lat="48.96001" lon="1.06831">
        <ele>142.41247558594</ele>
        <time>2011-02-11T12:45:24Z</time>
      </trkpt>
      <trkpt lat="48.95998" lon="1.06828">
        <ele>138.56726074219</ele>
        <time>2011-02-11T12:45:25Z</time>
      </trkpt>
      <trkpt lat="48.95944" lon="1.06773">
        <ele>142.89306640625</ele>
        <time>2011-02-11T12:45:44Z</time>
      </trkpt>
      <trkpt lat="48.95933" lon="1.06763">
        <ele>143.85437011719</ele>
        <time>2011-02-11T12:45:48Z</time>
      </trkpt>
      <trkpt lat="48.95919" lon="1.0675">
        <ele>142.89306640625</ele>
        <time>2011-02-11T12:45:53Z</time>
      </trkpt>
      <trkpt lat="48.95895" lon="1.06729">
        <ele>146.73840332031</ele>
        <time>2011-02-11T12:46:03Z</time>
      </trkpt>
      <trkpt lat="48.95893" lon="1.06726">
        <ele>145.77709960938</ele>
        <time>2011-02-11T12:46:04Z</time>
      </trkpt>
      <trkpt lat="48.95875" lon="1.06708">
        <ele>142.41247558594</ele>
        <time>2011-02-11T12:46:11Z</time>
      </trkpt>
      <trkpt lat="48.95867" lon="1.067">
        <ele>147.21899414062</ele>
        <time>2011-02-11T12:46:14Z</time>
      </trkpt>
      <trkpt lat="48.95822" lon="1.06656">
        <ele>147.21899414062</ele>
        <time>2011-02-11T12:46:31Z</time>
      </trkpt>
      <trkpt lat="48.95799" lon="1.06613">
        <ele>148.18041992188</ele>
        <time>2011-02-11T12:46:40Z</time>
      </trkpt>
      <trkpt lat="48.95788" lon="1.06593">
        <ele>150.58361816406</ele>
        <time>2011-02-11T12:46:44Z</time>
      </trkpt>
      <trkpt lat="48.95763" lon="1.06558">
        <ele>150.58361816406</ele>
        <time>2011-02-11T12:46:53Z</time>
      </trkpt>
      <trkpt lat="48.9576" lon="1.06555">
        <ele>146.73840332031</ele>
        <time>2011-02-11T12:46:54Z</time>
      </trkpt>
      <trkpt lat="48.95756" lon="1.06553">
        <ele>149.1416015625</ele>
        <time>2011-02-11T12:46:55Z</time>
      </trkpt>
      <trkpt lat="48.95735" lon="1.06539">
        <ele>149.62231445312</ele>
        <time>2011-02-11T12:47:01Z</time>
      </trkpt>
      <trkpt lat="48.95728" lon="1.06534">
        <ele>148.18041992188</ele>
        <time>2011-02-11T12:47:03Z</time>
      </trkpt>
      <trkpt lat="48.95681" lon="1.06493">
        <ele>144.33520507812</ele>
        <time>2011-02-11T12:47:15Z</time>
      </trkpt>
      <trkpt lat="48.95677" lon="1.06489">
        <ele>147.69970703125</ele>
        <time>2011-02-11T12:47:16Z</time>
      </trkpt>
      <trkpt lat="48.956" lon="1.06413">
        <ele>149.1416015625</ele>
        <time>2011-02-11T12:47:34Z</time>
      </trkpt>
      <trkpt lat="48.95574" lon="1.06389">
        <ele>145.77709960938</ele>
        <time>2011-02-11T12:47:40Z</time>
      </trkpt>
      <trkpt lat="48.95547" lon="1.06361">
        <ele>148.18041992188</ele>
        <time>2011-02-11T12:47:46Z</time>
      </trkpt>
      <trkpt lat="48.95536" lon="1.06351">
        <ele>145.77709960938</ele>
        <time>2011-02-11T12:47:48Z</time>
      </trkpt>
      <trkpt lat="48.95477" lon="1.063">
        <ele>141.45104980469</ele>
        <time>2011-02-11T12:47:59Z</time>
      </trkpt>
      <trkpt lat="48.95472" lon="1.06296">
        <ele>145.77709960938</ele>
        <time>2011-02-11T12:48:00Z</time>
      </trkpt>
      <trkpt lat="48.95445" lon="1.06271">
        <ele>143.85437011719</ele>
        <time>2011-02-11T12:48:05Z</time>
      </trkpt>
      <trkpt lat="48.95348" lon="1.06184">
        <ele>140.00915527344</ele>
        <time>2011-02-11T12:48:21Z</time>
      </trkpt>
      <trkpt lat="48.95306" lon="1.06144">
        <ele>144.81579589844</ele>
        <time>2011-02-11T12:48:29Z</time>
      </trkpt>
      <trkpt lat="48.95302" lon="1.06139">
        <ele>140.48986816406</ele>
        <time>2011-02-11T12:48:30Z</time>
      </trkpt>
      <trkpt lat="48.95297" lon="1.06134">
        <ele>144.33520507812</ele>
        <time>2011-02-11T12:48:31Z</time>
      </trkpt>
      <trkpt lat="48.95264" lon="1.06105">
        <ele>140.48986816406</ele>
        <time>2011-02-11T12:48:38Z</time>
      </trkpt>
      <trkpt lat="48.95239" lon="1.06082">
        <ele>143.85437011719</ele>
        <time>2011-02-11T12:48:43Z</time>
      </trkpt>
      <trkpt lat="48.95131" lon="1.05988">
        <ele>141.45104980469</ele>
        <time>2011-02-11T12:49:04Z</time>
      </trkpt>
      <trkpt lat="48.95037" lon="1.05903">
        <ele>142.89306640625</ele>
        <time>2011-02-11T12:49:23Z</time>
      </trkpt>
      <trkpt lat="48.95028" lon="1.05895">
        <ele>139.52844238281</ele>
        <time>2011-02-11T12:49:25Z</time>
      </trkpt>
      <trkpt lat="48.95023" lon="1.05891">
        <ele>142.89306640625</ele>
        <time>2011-02-11T12:49:26Z</time>
      </trkpt>
      <trkpt lat="48.94998" lon="1.0587">
        <ele>141.93176269531</ele>
        <time>2011-02-11T12:49:31Z</time>
      </trkpt>
      <trkpt lat="48.94943" lon="1.05816">
        <ele>138.08654785156</ele>
        <time>2011-02-11T12:49:41Z</time>
      </trkpt>
      <trkpt lat="48.94872" lon="1.05742">
        <ele>134.2412109375</ele>
        <time>2011-02-11T12:49:52Z</time>
      </trkpt>
      <trkpt lat="48.94865" lon="1.05734">
        <ele>134.2412109375</ele>
        <time>2011-02-11T12:49:53Z</time>
      </trkpt>
      <trkpt lat="48.94831" lon="1.05697">
        <ele>130.39599609375</ele>
        <time>2011-02-11T12:49:58Z</time>
      </trkpt>
      <trkpt lat="48.94789" lon="1.0565">
        <ele>129.91528320312</ele>
        <time>2011-02-11T12:50:04Z</time>
      </trkpt>
      <trkpt lat="48.94767" lon="1.05624">
        <ele>127.99255371094</ele>
        <time>2011-02-11T12:50:07Z</time>
      </trkpt>
      <trkpt lat="48.94715" lon="1.05566">
        <ele>124.62805175781</ele>
        <time>2011-02-11T12:50:14Z</time>
      </trkpt>
      <trkpt lat="48.947" lon="1.0555">
        <ele>123.18615722656</ele>
        <time>2011-02-11T12:50:16Z</time>
      </trkpt>
      <trkpt lat="48.94677" lon="1.05525">
        <ele>120.78283691406</ele>
        <time>2011-02-11T12:50:19Z</time>
      </trkpt>
      <trkpt lat="48.94642" lon="1.05455">
        <ele>119.82141113281</ele>
        <time>2011-02-11T12:50:25Z</time>
      </trkpt>
      <trkpt lat="48.94631" lon="1.05412">
        <ele>115.01489257812</ele>
        <time>2011-02-11T12:50:28Z</time>
      </trkpt>
      <trkpt lat="48.94606" lon="1.05312">
        <ele>112.13098144531</ele>
        <time>2011-02-11T12:50:35Z</time>
      </trkpt>
      <trkpt lat="48.94568" lon="1.05168">
        <ele>108.76623535156</ele>
        <time>2011-02-11T12:50:46Z</time>
      </trkpt>
      <trkpt lat="48.94556" lon="1.05121">
        <ele>108.76623535156</ele>
        <time>2011-02-11T12:50:50Z</time>
      </trkpt>
      <trkpt lat="48.94552" lon="1.05097">
        <ele>106.84362792969</ele>
        <time>2011-02-11T12:50:52Z</time>
      </trkpt>
      <trkpt lat="48.94562" lon="1.04973">
        <ele>107.32434082031</ele>
        <time>2011-02-11T12:51:02Z</time>
      </trkpt>
      <trkpt lat="48.94575" lon="1.04909">
        <ele>107.80505371094</ele>
        <time>2011-02-11T12:51:07Z</time>
      </trkpt>
      <trkpt lat="48.94567" lon="1.04857">
        <ele>101.55639648438</ele>
        <time>2011-02-11T12:51:11Z</time>
      </trkpt>
      <trkpt lat="48.94552" lon="1.04839">
        <ele>102.037109375</ele>
        <time>2011-02-11T12:51:13Z</time>
      </trkpt>
      <trkpt lat="48.9452" lon="1.0476">
        <ele>98.672485351562</ele>
        <time>2011-02-11T12:51:20Z</time>
      </trkpt>
      <trkpt lat="48.94523" lon="1.04731">
        <ele>100.59509277344</ele>
        <time>2011-02-11T12:51:22Z</time>
      </trkpt>
      <trkpt lat="48.94525" lon="1.04718">
        <ele>98.672485351562</ele>
        <time>2011-02-11T12:51:23Z</time>
      </trkpt>
      <trkpt lat="48.94525" lon="1.04678">
        <ele>96.269287109375</ele>
        <time>2011-02-11T12:51:26Z</time>
      </trkpt>
      <trkpt lat="48.94521" lon="1.04653">
        <ele>100.59509277344</ele>
        <time>2011-02-11T12:51:28Z</time>
      </trkpt>
      <trkpt lat="48.94518" lon="1.04642">
        <ele>99.6337890625</ele>
        <time>2011-02-11T12:51:29Z</time>
      </trkpt>
      <trkpt lat="48.94514" lon="1.04632">
        <ele>98.19189453125</ele>
        <time>2011-02-11T12:51:30Z</time>
      </trkpt>
      <trkpt lat="48.94504" lon="1.04607">
        <ele>96.749877929688</ele>
        <time>2011-02-11T12:51:33Z</time>
      </trkpt>
      <trkpt lat="48.945" lon="1.04599">
        <ele>96.749877929688</ele>
        <time>2011-02-11T12:51:34Z</time>
      </trkpt>
      <trkpt lat="48.94494" lon="1.04585">
        <ele>100.11450195312</ele>
        <time>2011-02-11T12:51:36Z</time>
      </trkpt>
      <trkpt lat="48.94491" lon="1.04579">
        <ele>100.11450195312</ele>
        <time>2011-02-11T12:51:37Z</time>
      </trkpt>
      <trkpt lat="48.94473" lon="1.04541">
        <ele>102.037109375</ele>
        <time>2011-02-11T12:51:44Z</time>
      </trkpt>
      <trkpt lat="48.94445" lon="1.04449">
        <ele>100.59509277344</ele>
        <time>2011-02-11T12:51:59Z</time>
      </trkpt>
      <trkpt lat="48.94435" lon="1.04423">
        <ele>103.95971679688</ele>
        <time>2011-02-11T12:52:04Z</time>
      </trkpt>
      <trkpt lat="48.9443" lon="1.04413">
        <ele>100.59509277344</ele>
        <time>2011-02-11T12:52:06Z</time>
      </trkpt>
      <trkpt lat="48.94424" lon="1.044">
        <ele>101.07568359375</ele>
        <time>2011-02-11T12:52:09Z</time>
      </trkpt>
      <trkpt lat="48.94416" lon="1.04386">
        <ele>100.11450195312</ele>
        <time>2011-02-11T12:52:12Z</time>
      </trkpt>
      <trkpt lat="48.94413" lon="1.04382">
        <ele>101.55639648438</ele>
        <time>2011-02-11T12:52:13Z</time>
      </trkpt>
      <trkpt lat="48.94392" lon="1.04347">
        <ele>104.4404296875</ele>
        <time>2011-02-11T12:52:20Z</time>
      </trkpt>
      <trkpt lat="48.94381" lon="1.04294">
        <ele>104.4404296875</ele>
        <time>2011-02-11T12:52:28Z</time>
      </trkpt>
      <trkpt lat="48.94394" lon="1.04184">
        <ele>104.92102050781</ele>
        <time>2011-02-11T12:52:46Z</time>
      </trkpt>
      <trkpt lat="48.94397" lon="1.04178">
        <ele>104.92102050781</ele>
        <time>2011-02-11T12:52:47Z</time>
      </trkpt>
      <trkpt lat="48.94432" lon="1.0411">
        <ele>107.32434082031</ele>
        <time>2011-02-11T12:53:01Z</time>
      </trkpt>
      <trkpt lat="48.9445" lon="1.04078">
        <ele>107.32434082031</ele>
        <time>2011-02-11T12:53:09Z</time>
      </trkpt>
      <trkpt lat="48.94471" lon="1.04042">
        <ele>107.32434082031</ele>
        <time>2011-02-11T12:53:18Z</time>
      </trkpt>
      <trkpt lat="48.94496" lon="1.03989">
        <ele>110.68884277344</ele>
        <time>2011-02-11T12:53:31Z</time>
      </trkpt>
      <trkpt lat="48.94498" lon="1.03985">
        <ele>110.68884277344</ele>
        <time>2011-02-11T12:53:32Z</time>
      </trkpt>
      <trkpt lat="48.94515" lon="1.03932">
        <ele>111.16955566406</ele>
        <time>2011-02-11T12:53:46Z</time>
      </trkpt>
      <trkpt lat="48.94522" lon="1.03896">
        <ele>115.01489257812</ele>
        <time>2011-02-11T12:53:56Z</time>
      </trkpt>
      <trkpt lat="48.94526" lon="1.03867">
        <ele>115.49560546875</ele>
        <time>2011-02-11T12:54:05Z</time>
      </trkpt>
      <trkpt lat="48.94527" lon="1.03848">
        <ele>118.37939453125</ele>
        <time>2011-02-11T12:54:11Z</time>
      </trkpt>
      <trkpt lat="48.94527" lon="1.03844">
        <ele>116.9375</ele>
        <time>2011-02-11T12:54:12Z</time>
      </trkpt>
      <trkpt lat="48.94524" lon="1.03813">
        <ele>120.30212402344</ele>
        <time>2011-02-11T12:54:21Z</time>
      </trkpt>
      <trkpt lat="48.94524" lon="1.0381">
        <ele>119.82141113281</ele>
        <time>2011-02-11T12:54:22Z</time>
      </trkpt>
      <trkpt lat="48.94512" lon="1.03755">
        <ele>123.18615722656</ele>
        <time>2011-02-11T12:54:38Z</time>
      </trkpt>
      <trkpt lat="48.94508" lon="1.03746">
        <ele>121.744140625</ele>
        <time>2011-02-11T12:54:41Z</time>
      </trkpt>
      <trkpt lat="48.94505" lon="1.03733">
        <ele>125.10876464844</ele>
        <time>2011-02-11T12:54:45Z</time>
      </trkpt>
      <trkpt lat="48.94504" lon="1.0373">
        <ele>120.78283691406</ele>
        <time>2011-02-11T12:54:46Z</time>
      </trkpt>
      <trkpt lat="48.94504" lon="1.03728">
        <ele>120.78283691406</ele>
        <time>2011-02-11T12:54:47Z</time>
      </trkpt>
      <trkpt lat="48.94502" lon="1.03722">
        <ele>124.62805175781</ele>
        <time>2011-02-11T12:54:49Z</time>
      </trkpt>
      <trkpt lat="48.94502" lon="1.03719">
        <ele>124.62805175781</ele>
        <time>2011-02-11T12:54:50Z</time>
      </trkpt>
      <trkpt lat="48.94498" lon="1.03698">
        <ele>124.62805175781</ele>
        <time>2011-02-11T12:54:57Z</time>
      </trkpt>
      <trkpt lat="48.94494" lon="1.0368">
        <ele>125.10876464844</ele>
        <time>2011-02-11T12:55:03Z</time>
      </trkpt>
      <trkpt lat="48.94487" lon="1.0365">
        <ele>128.47338867188</ele>
        <time>2011-02-11T12:55:13Z</time>
      </trkpt>
      <trkpt lat="48.94472" lon="1.03593">
        <ele>133.27990722656</ele>
        <time>2011-02-11T12:55:33Z</time>
      </trkpt>
      <trkpt lat="48.94471" lon="1.0359">
        <ele>131.35729980469</ele>
        <time>2011-02-11T12:55:34Z</time>
      </trkpt>
      <trkpt lat="48.9447" lon="1.03587">
        <ele>128.47338867188</ele>
        <time>2011-02-11T12:55:35Z</time>
      </trkpt>
      <trkpt lat="48.94469" lon="1.03585">
        <ele>130.87670898438</ele>
        <time>2011-02-11T12:55:36Z</time>
      </trkpt>
      <trkpt lat="48.94465" lon="1.03567">
        <ele>132.79931640625</ele>
        <time>2011-02-11T12:55:42Z</time>
      </trkpt>
      <trkpt lat="48.94464" lon="1.03561">
        <ele>132.31860351562</ele>
        <time>2011-02-11T12:55:44Z</time>
      </trkpt>
      <trkpt lat="48.94458" lon="1.03536">
        <ele>135.20251464844</ele>
        <time>2011-02-11T12:55:52Z</time>
      </trkpt>
      <trkpt lat="48.94447" lon="1.03499">
        <ele>136.16394042969</ele>
        <time>2011-02-11T12:56:04Z</time>
      </trkpt>
      <trkpt lat="48.94441" lon="1.03482">
        <ele>137.60583496094</ele>
        <time>2011-02-11T12:56:11Z</time>
      </trkpt>
      <trkpt lat="48.94414" lon="1.03402">
        <ele>138.56726074219</ele>
        <time>2011-02-11T12:56:36Z</time>
      </trkpt>
      <trkpt lat="48.94411" lon="1.03394">
        <ele>140.48986816406</ele>
        <time>2011-02-11T12:56:38Z</time>
      </trkpt>
      <trkpt lat="48.9441" lon="1.0339">
        <ele>137.60583496094</ele>
        <time>2011-02-11T12:56:39Z</time>
      </trkpt>
      <trkpt lat="48.94408" lon="1.03386">
        <ele>138.56726074219</ele>
        <time>2011-02-11T12:56:40Z</time>
      </trkpt>
      <trkpt lat="48.94397" lon="1.03357">
        <ele>138.56726074219</ele>
        <time>2011-02-11T12:56:48Z</time>
      </trkpt>
      <trkpt lat="48.94362" lon="1.0327">
        <ele>137.60583496094</ele>
        <time>2011-02-11T12:57:08Z</time>
      </trkpt>
      <trkpt lat="48.94357" lon="1.03252">
        <ele>140.48986816406</ele>
        <time>2011-02-11T12:57:12Z</time>
      </trkpt>
      <trkpt lat="48.94356" lon="1.03247">
        <ele>136.64465332031</ele>
        <time>2011-02-11T12:57:13Z</time>
      </trkpt>
      <trkpt lat="48.94353" lon="1.03238">
        <ele>140.97045898438</ele>
        <time>2011-02-11T12:57:15Z</time>
      </trkpt>
      <trkpt lat="48.94352" lon="1.03233">
        <ele>139.52844238281</ele>
        <time>2011-02-11T12:57:16Z</time>
      </trkpt>
      <trkpt lat="48.94348" lon="1.03218">
        <ele>141.93176269531</ele>
        <time>2011-02-11T12:57:19Z</time>
      </trkpt>
      <trkpt lat="48.94343" lon="1.03197">
        <ele>138.56726074219</ele>
        <time>2011-02-11T12:57:23Z</time>
      </trkpt>
      <trkpt lat="48.9434" lon="1.03186">
        <ele>141.45104980469</ele>
        <time>2011-02-11T12:57:25Z</time>
      </trkpt>
      <trkpt lat="48.9432" lon="1.03099">
        <ele>141.45104980469</ele>
        <time>2011-02-11T12:57:43Z</time>
      </trkpt>
      <trkpt lat="48.94306" lon="1.0303">
        <ele>144.33520507812</ele>
        <time>2011-02-11T12:57:57Z</time>
      </trkpt>
      <trkpt lat="48.94305" lon="1.03025">
        <ele>144.33520507812</ele>
        <time>2011-02-11T12:57:58Z</time>
      </trkpt>
      <trkpt lat="48.943" lon="1.02998">
        <ele>141.45104980469</ele>
        <time>2011-02-11T12:58:03Z</time>
      </trkpt>
      <trkpt lat="48.94299" lon="1.02992">
        <ele>145.29638671875</ele>
        <time>2011-02-11T12:58:04Z</time>
      </trkpt>
      <trkpt lat="48.94283" lon="1.02916">
        <ele>141.93176269531</ele>
        <time>2011-02-11T12:58:18Z</time>
      </trkpt>
      <trkpt lat="48.94269" lon="1.02871">
        <ele>145.77709960938</ele>
        <time>2011-02-11T12:58:26Z</time>
      </trkpt>
      <trkpt lat="48.94234" lon="1.02818">
        <ele>143.85437011719</ele>
        <time>2011-02-11T12:58:38Z</time>
      </trkpt>
      <trkpt lat="48.94228" lon="1.0281">
        <ele>141.93176269531</ele>
        <time>2011-02-11T12:58:40Z</time>
      </trkpt>
      <trkpt lat="48.94188" lon="1.02762">
        <ele>145.29638671875</ele>
        <time>2011-02-11T12:58:52Z</time>
      </trkpt>
      <trkpt lat="48.94171" lon="1.02743">
        <ele>145.29638671875</ele>
        <time>2011-02-11T12:58:57Z</time>
      </trkpt>
      <trkpt lat="48.94141" lon="1.02707">
        <ele>143.85437011719</ele>
        <time>2011-02-11T12:59:07Z</time>
      </trkpt>
      <trkpt lat="48.94136" lon="1.027">
        <ele>147.69970703125</ele>
        <time>2011-02-11T12:59:09Z</time>
      </trkpt>
      <trkpt lat="48.94086" lon="1.02642">
        <ele>144.81579589844</ele>
        <time>2011-02-11T12:59:24Z</time>
      </trkpt>
      <trkpt lat="48.94082" lon="1.02638">
        <ele>147.69970703125</ele>
        <time>2011-02-11T12:59:25Z</time>
      </trkpt>
      <trkpt lat="48.94067" lon="1.02621">
        <ele>144.33520507812</ele>
        <time>2011-02-11T12:59:29Z</time>
      </trkpt>
      <trkpt lat="48.94064" lon="1.02617">
        <ele>146.2578125</ele>
        <time>2011-02-11T12:59:30Z</time>
      </trkpt>
      <trkpt lat="48.94054" lon="1.02591">
        <ele>147.69970703125</ele>
        <time>2011-02-11T12:59:35Z</time>
      </trkpt>
      <trkpt lat="48.94058" lon="1.02542">
        <ele>145.77709960938</ele>
        <time>2011-02-11T12:59:42Z</time>
      </trkpt>
      <trkpt lat="48.94025" lon="1.02505">
        <ele>146.2578125</ele>
        <time>2011-02-11T12:59:51Z</time>
      </trkpt>
      <trkpt lat="48.93979" lon="1.02458">
        <ele>142.89306640625</ele>
        <time>2011-02-11T13:00:02Z</time>
      </trkpt>
      <trkpt lat="48.9396" lon="1.0244">
        <ele>143.37365722656</ele>
        <time>2011-02-11T13:00:07Z</time>
      </trkpt>
      <trkpt lat="48.93949" lon="1.02427">
        <ele>145.77709960938</ele>
        <time>2011-02-11T13:00:10Z</time>
      </trkpt>
      <trkpt lat="48.93948" lon="1.02421">
        <ele>144.81579589844</ele>
        <time>2011-02-11T13:00:11Z</time>
      </trkpt>
      <trkpt lat="48.93949" lon="1.02406">
        <ele>143.37365722656</ele>
        <time>2011-02-11T13:00:13Z</time>
      </trkpt>
      <trkpt lat="48.93994" lon="1.02317">
        <ele>140.48986816406</ele>
        <time>2011-02-11T13:00:26Z</time>
      </trkpt>
      <trkpt lat="48.94006" lon="1.02297">
        <ele>144.81579589844</ele>
        <time>2011-02-11T13:00:29Z</time>
      </trkpt>
      <trkpt lat="48.9401" lon="1.0229">
        <ele>143.37365722656</ele>
        <time>2011-02-11T13:00:30Z</time>
      </trkpt>
      <trkpt lat="48.94046" lon="1.02199">
        <ele>142.89306640625</ele>
        <time>2011-02-11T13:00:42Z</time>
      </trkpt>
      <trkpt lat="48.94072" lon="1.02116">
        <ele>138.08654785156</ele>
        <time>2011-02-11T13:00:52Z</time>
      </trkpt>
      <trkpt lat="48.94089" lon="1.02067">
        <ele>138.56726074219</ele>
        <time>2011-02-11T13:00:57Z</time>
      </trkpt>
      <trkpt lat="48.94107" lon="1.01976">
        <ele>137.60583496094</ele>
        <time>2011-02-11T13:01:04Z</time>
      </trkpt>
      <trkpt lat="48.94116" lon="1.0188">
        <ele>140.97045898438</ele>
        <time>2011-02-11T13:01:13Z</time>
      </trkpt>
      <trkpt lat="48.94121" lon="1.01771">
        <ele>145.29638671875</ele>
        <time>2011-02-11T13:01:27Z</time>
      </trkpt>
      <trkpt lat="48.94121" lon="1.01765">
        <ele>141.93176269531</ele>
        <time>2011-02-11T13:01:28Z</time>
      </trkpt>
      <trkpt lat="48.94121" lon="1.01758">
        <ele>144.81579589844</ele>
        <time>2011-02-11T13:01:29Z</time>
      </trkpt>
      <trkpt lat="48.94115" lon="1.01673">
        <ele>146.2578125</ele>
        <time>2011-02-11T13:01:42Z</time>
      </trkpt>
      <trkpt lat="48.94114" lon="1.01653">
        <ele>142.41247558594</ele>
        <time>2011-02-11T13:01:45Z</time>
      </trkpt>
      <trkpt lat="48.94113" lon="1.0164">
        <ele>146.73840332031</ele>
        <time>2011-02-11T13:01:47Z</time>
      </trkpt>
      <trkpt lat="48.94112" lon="1.01607">
        <ele>143.37365722656</ele>
        <time>2011-02-11T13:01:52Z</time>
      </trkpt>
      <trkpt lat="48.94112" lon="1.01575">
        <ele>145.29638671875</ele>
        <time>2011-02-11T13:01:57Z</time>
      </trkpt>
      <trkpt lat="48.9411" lon="1.01448">
        <ele>145.77709960938</ele>
        <time>2011-02-11T13:02:16Z</time>
      </trkpt>
      <trkpt lat="48.94108" lon="1.01435">
        <ele>145.29638671875</ele>
        <time>2011-02-11T13:02:18Z</time>
      </trkpt>
      <trkpt lat="48.94105" lon="1.01423">
        <ele>148.18041992188</ele>
        <time>2011-02-11T13:02:20Z</time>
      </trkpt>
      <trkpt lat="48.94101" lon="1.01404">
        <ele>144.81579589844</ele>
        <time>2011-02-11T13:02:23Z</time>
      </trkpt>
      <trkpt lat="48.94096" lon="1.01386">
        <ele>147.21899414062</ele>
        <time>2011-02-11T13:02:26Z</time>
      </trkpt>
      <trkpt lat="48.94048" lon="1.01283">
        <ele>150.58361816406</ele>
        <time>2011-02-11T13:02:46Z</time>
      </trkpt>
      <trkpt lat="48.94042" lon="1.01268">
        <ele>147.69970703125</ele>
        <time>2011-02-11T13:02:49Z</time>
      </trkpt>
      <trkpt lat="48.94033" lon="1.01237">
        <ele>151.06420898438</ele>
        <time>2011-02-11T13:02:54Z</time>
      </trkpt>
      <trkpt lat="48.94024" lon="1.01181">
        <ele>146.2578125</ele>
        <time>2011-02-11T13:03:03Z</time>
      </trkpt>
      <trkpt lat="48.94023" lon="1.01175">
        <ele>147.69970703125</ele>
        <time>2011-02-11T13:03:04Z</time>
      </trkpt>
      <trkpt lat="48.94016" lon="1.01139">
        <ele>150.58361816406</ele>
        <time>2011-02-11T13:03:10Z</time>
      </trkpt>
      <trkpt lat="48.94006" lon="1.01099">
        <ele>150.58361816406</ele>
        <time>2011-02-11T13:03:17Z</time>
      </trkpt>
      <trkpt lat="48.94002" lon="1.01087">
        <ele>148.66101074219</ele>
        <time>2011-02-11T13:03:19Z</time>
      </trkpt>
      <trkpt lat="48.93981" lon="1.0097">
        <ele>148.18041992188</ele>
        <time>2011-02-11T13:03:34Z</time>
      </trkpt>
      <trkpt lat="48.9398" lon="1.0096">
        <ele>145.29638671875</ele>
        <time>2011-02-11T13:03:35Z</time>
      </trkpt>
      <trkpt lat="48.9398" lon="1.00951">
        <ele>146.73840332031</ele>
        <time>2011-02-11T13:03:36Z</time>
      </trkpt>
      <trkpt lat="48.93992" lon="1.00841">
        <ele>148.18041992188</ele>
        <time>2011-02-11T13:03:50Z</time>
      </trkpt>
      <trkpt lat="48.94011" lon="1.00747">
        <ele>149.62231445312</ele>
        <time>2011-02-11T13:04:05Z</time>
      </trkpt>
      <trkpt lat="48.94009" lon="1.0074">
        <ele>146.2578125</ele>
        <time>2011-02-11T13:04:07Z</time>
      </trkpt>
      <trkpt lat="48.94006" lon="1.0074">
        <ele>148.18041992188</ele>
        <time>2011-02-11T13:04:08Z</time>
      </trkpt>
      <trkpt lat="48.93993" lon="1.00739">
        <ele>148.66101074219</ele>
        <time>2011-02-11T13:04:11Z</time>
      </trkpt>
      <trkpt lat="48.93937" lon="1.00708">
        <ele>143.37365722656</ele>
        <time>2011-02-11T13:04:21Z</time>
      </trkpt>
      <trkpt lat="48.9393" lon="1.00705">
        <ele>143.85437011719</ele>
        <time>2011-02-11T13:04:22Z</time>
      </trkpt>
      <trkpt lat="48.93882" lon="1.00697">
        <ele>140.97045898438</ele>
        <time>2011-02-11T13:04:29Z</time>
      </trkpt>
      <trkpt lat="48.93844" lon="1.00708">
        <ele>144.81579589844</ele>
        <time>2011-02-11T13:04:36Z</time>
      </trkpt>
      <trkpt lat="48.9384" lon="1.00709">
        <ele>143.85437011719</ele>
        <time>2011-02-11T13:04:37Z</time>
      </trkpt>
      <trkpt lat="48.93827" lon="1.00713">
        <ele>146.73840332031</ele>
        <time>2011-02-11T13:04:40Z</time>
      </trkpt>
      <trkpt lat="48.93805" lon="1.00717">
        <ele>144.33520507812</ele>
        <time>2011-02-11T13:04:46Z</time>
      </trkpt>
      <trkpt lat="48.93728" lon="1.00709">
        <ele>147.69970703125</ele>
        <time>2011-02-11T13:05:04Z</time>
      </trkpt>
      <trkpt lat="48.93708" lon="1.00705">
        <ele>143.37365722656</ele>
        <time>2011-02-11T13:05:08Z</time>
      </trkpt>
      <trkpt lat="48.93703" lon="1.00704">
        <ele>145.29638671875</ele>
        <time>2011-02-11T13:05:09Z</time>
      </trkpt>
      <trkpt lat="48.93693" lon="1.00701">
        <ele>146.2578125</ele>
        <time>2011-02-11T13:05:11Z</time>
      </trkpt>
      <trkpt lat="48.93643" lon="1.00688">
        <ele>145.77709960938</ele>
        <time>2011-02-11T13:05:20Z</time>
      </trkpt>
      <trkpt lat="48.93604" lon="1.00676">
        <ele>142.89306640625</ele>
        <time>2011-02-11T13:05:27Z</time>
      </trkpt>
      <trkpt lat="48.93592" lon="1.00672">
        <ele>146.73840332031</ele>
        <time>2011-02-11T13:05:29Z</time>
      </trkpt>
      <trkpt lat="48.93587" lon="1.0067">
        <ele>145.77709960938</ele>
        <time>2011-02-11T13:05:30Z</time>
      </trkpt>
      <trkpt lat="48.93575" lon="1.00666">
        <ele>142.89306640625</ele>
        <time>2011-02-11T13:05:32Z</time>
      </trkpt>
      <trkpt lat="48.93564" lon="1.00661">
        <ele>144.33520507812</ele>
        <time>2011-02-11T13:05:34Z</time>
      </trkpt>
      <trkpt lat="48.93499" lon="1.00633">
        <ele>144.33520507812</ele>
        <time>2011-02-11T13:05:46Z</time>
      </trkpt>
      <trkpt lat="48.93446" lon="1.00608">
        <ele>147.21899414062</ele>
        <time>2011-02-11T13:05:56Z</time>
      </trkpt>
      <trkpt lat="48.93436" lon="1.00604">
        <ele>143.85437011719</ele>
        <time>2011-02-11T13:05:58Z</time>
      </trkpt>
      <trkpt lat="48.9341" lon="1.00593">
        <ele>147.69970703125</ele>
        <time>2011-02-11T13:06:03Z</time>
      </trkpt>
      <trkpt lat="48.93405" lon="1.00592">
        <ele>143.37365722656</ele>
        <time>2011-02-11T13:06:04Z</time>
      </trkpt>
      <trkpt lat="48.93361" lon="1.00576">
        <ele>146.73840332031</ele>
        <time>2011-02-11T13:06:13Z</time>
      </trkpt>
      <trkpt lat="48.93334" lon="1.00571">
        <ele>150.10302734375</ele>
        <time>2011-02-11T13:06:19Z</time>
      </trkpt>
      <trkpt lat="48.9333" lon="1.00571">
        <ele>147.21899414062</ele>
        <time>2011-02-11T13:06:20Z</time>
      </trkpt>
      <trkpt lat="48.93323" lon="1.00569">
        <ele>150.58361816406</ele>
        <time>2011-02-11T13:06:22Z</time>
      </trkpt>
      <trkpt lat="48.93316" lon="1.00567">
        <ele>147.69970703125</ele>
        <time>2011-02-11T13:06:24Z</time>
      </trkpt>
      <trkpt lat="48.93308" lon="1.00566">
        <ele>146.73840332031</ele>
        <time>2011-02-11T13:06:26Z</time>
      </trkpt>
      <trkpt lat="48.93296" lon="1.00565">
        <ele>148.18041992188</ele>
        <time>2011-02-11T13:06:29Z</time>
      </trkpt>
      <trkpt lat="48.93227" lon="1.00545">
        <ele>150.10302734375</ele>
        <time>2011-02-11T13:06:45Z</time>
      </trkpt>
      <trkpt lat="48.93176" lon="1.00528">
        <ele>151.06420898438</ele>
        <time>2011-02-11T13:06:57Z</time>
      </trkpt>
      <trkpt lat="48.93159" lon="1.00526">
        <ele>151.06420898438</ele>
        <time>2011-02-11T13:07:01Z</time>
      </trkpt>
      <trkpt lat="48.93082" lon="1.00565">
        <ele>152.98693847656</ele>
        <time>2011-02-11T13:07:20Z</time>
      </trkpt>
      <trkpt lat="48.93067" lon="1.00576">
        <ele>155.39025878906</ele>
        <time>2011-02-11T13:07:24Z</time>
      </trkpt>
      <trkpt lat="48.93058" lon="1.00582">
        <ele>152.02575683594</ele>
        <time>2011-02-11T13:07:26Z</time>
      </trkpt>
      <trkpt lat="48.92992" lon="1.00632">
        <ele>152.50634765625</ele>
        <time>2011-02-11T13:07:43Z</time>
      </trkpt>
      <trkpt lat="48.9297" lon="1.00651">
        <ele>154.42895507812</ele>
        <time>2011-02-11T13:07:49Z</time>
      </trkpt>
      <trkpt lat="48.92962" lon="1.00657">
        <ele>153.46765136719</ele>
        <time>2011-02-11T13:07:51Z</time>
      </trkpt>
      <trkpt lat="48.92942" lon="1.00674">
        <ele>154.90954589844</ele>
        <time>2011-02-11T13:07:56Z</time>
      </trkpt>
      <trkpt lat="48.92928" lon="1.0069">
        <ele>151.06420898438</ele>
        <time>2011-02-11T13:08:00Z</time>
      </trkpt>
      <trkpt lat="48.92921" lon="1.00699">
        <ele>156.3515625</ele>
        <time>2011-02-11T13:08:02Z</time>
      </trkpt>
      <trkpt lat="48.92917" lon="1.00704">
        <ele>153.94836425781</ele>
        <time>2011-02-11T13:08:03Z</time>
      </trkpt>
      <trkpt lat="48.92875" lon="1.00758">
        <ele>154.42895507812</ele>
        <time>2011-02-11T13:08:14Z</time>
      </trkpt>
      <trkpt lat="48.92836" lon="1.00784">
        <ele>158.27416992188</ele>
        <time>2011-02-11T13:08:23Z</time>
      </trkpt>
      <trkpt lat="48.92831" lon="1.00787">
        <ele>158.27416992188</ele>
        <time>2011-02-11T13:08:24Z</time>
      </trkpt>
      <trkpt lat="48.92827" lon="1.00788">
        <ele>154.42895507812</ele>
        <time>2011-02-11T13:08:25Z</time>
      </trkpt>
      <trkpt lat="48.92823" lon="1.0079">
        <ele>158.75476074219</ele>
        <time>2011-02-11T13:08:26Z</time>
      </trkpt>
      <trkpt lat="48.92814" lon="1.00793">
        <ele>155.39025878906</ele>
        <time>2011-02-11T13:08:28Z</time>
      </trkpt>
      <trkpt lat="48.9281" lon="1.00794">
        <ele>159.71618652344</ele>
        <time>2011-02-11T13:08:29Z</time>
      </trkpt>
      <trkpt lat="48.92805" lon="1.00795">
        <ele>159.23547363281</ele>
        <time>2011-02-11T13:08:30Z</time>
      </trkpt>
      <trkpt lat="48.9278" lon="1.00793">
        <ele>155.87097167969</ele>
        <time>2011-02-11T13:08:36Z</time>
      </trkpt>
      <trkpt lat="48.92776" lon="1.00792">
        <ele>156.3515625</ele>
        <time>2011-02-11T13:08:37Z</time>
      </trkpt>
      <trkpt lat="48.92757" lon="1.00787">
        <ele>160.67749023438</ele>
        <time>2011-02-11T13:08:42Z</time>
      </trkpt>
      <trkpt lat="48.92754" lon="1.00786">
        <ele>161.158203125</ele>
        <time>2011-02-11T13:08:43Z</time>
      </trkpt>
      <trkpt lat="48.92746" lon="1.00784">
        <ele>159.23547363281</ele>
        <time>2011-02-11T13:08:45Z</time>
      </trkpt>
      <trkpt lat="48.9273" lon="1.00781">
        <ele>155.39025878906</ele>
        <time>2011-02-11T13:08:49Z</time>
      </trkpt>
      <trkpt lat="48.92722" lon="1.00779">
        <ele>159.71618652344</ele>
        <time>2011-02-11T13:08:51Z</time>
      </trkpt>
      <trkpt lat="48.92717" lon="1.00779">
        <ele>158.75476074219</ele>
        <time>2011-02-11T13:08:52Z</time>
      </trkpt>
      <trkpt lat="48.92678" lon="1.00772">
        <ele>160.67749023438</ele>
        <time>2011-02-11T13:09:00Z</time>
      </trkpt>
      <trkpt lat="48.92674" lon="1.00771">
        <ele>157.31286621094</ele>
        <time>2011-02-11T13:09:01Z</time>
      </trkpt>
      <trkpt lat="48.92669" lon="1.00771">
        <ele>161.158203125</ele>
        <time>2011-02-11T13:09:02Z</time>
      </trkpt>
      <trkpt lat="48.92647" lon="1.00766">
        <ele>159.23547363281</ele>
        <time>2011-02-11T13:09:07Z</time>
      </trkpt>
      <trkpt lat="48.92639" lon="1.00763">
        <ele>159.23547363281</ele>
        <time>2011-02-11T13:09:09Z</time>
      </trkpt>
      <trkpt lat="48.926" lon="1.00725">
        <ele>161.63891601562</ele>
        <time>2011-02-11T13:09:20Z</time>
      </trkpt>
      <trkpt lat="48.92584" lon="1.00695">
        <ele>157.79357910156</ele>
        <time>2011-02-11T13:09:26Z</time>
      </trkpt>
      <trkpt lat="48.92581" lon="1.00689">
        <ele>161.158203125</ele>
        <time>2011-02-11T13:09:27Z</time>
      </trkpt>
      <trkpt lat="48.92568" lon="1.00663">
        <ele>160.19689941406</ele>
        <time>2011-02-11T13:09:32Z</time>
      </trkpt>
      <trkpt lat="48.92549" lon="1.00644">
        <ele>160.19689941406</ele>
        <time>2011-02-11T13:09:37Z</time>
      </trkpt>
      <trkpt lat="48.92545" lon="1.00641">
        <ele>160.19689941406</ele>
        <time>2011-02-11T13:09:38Z</time>
      </trkpt>
      <trkpt lat="48.92512" lon="1.00626">
        <ele>163.08081054688</ele>
        <time>2011-02-11T13:09:45Z</time>
      </trkpt>
      <trkpt lat="48.9245" lon="1.00604">
        <ele>163.5615234375</ele>
        <time>2011-02-11T13:09:59Z</time>
      </trkpt>
      <trkpt lat="48.92427" lon="1.00599">
        <ele>162.11950683594</ele>
        <time>2011-02-11T13:10:04Z</time>
      </trkpt>
      <trkpt lat="48.92418" lon="1.00598">
        <ele>164.04211425781</ele>
        <time>2011-02-11T13:10:06Z</time>
      </trkpt>
      <trkpt lat="48.9238" lon="1.00589">
        <ele>161.63891601562</ele>
        <time>2011-02-11T13:10:15Z</time>
      </trkpt>
      <trkpt lat="48.92364" lon="1.00584">
        <ele>163.5615234375</ele>
        <time>2011-02-11T13:10:19Z</time>
      </trkpt>
      <trkpt lat="48.92349" lon="1.00579">
        <ele>164.52270507812</ele>
        <time>2011-02-11T13:10:23Z</time>
      </trkpt>
      <trkpt lat="48.9233" lon="1.00572">
        <ele>168.84875488281</ele>
        <time>2011-02-11T13:10:28Z</time>
      </trkpt>
      <trkpt lat="48.92328" lon="1.00569">
        <ele>166.92602539062</ele>
        <time>2011-02-11T13:10:29Z</time>
      </trkpt>
      <trkpt lat="48.92294" lon="1.00509">
        <ele>163.5615234375</ele>
        <time>2011-02-11T13:10:42Z</time>
      </trkpt>
      <trkpt lat="48.9228" lon="1.00486">
        <ele>166.92602539062</ele>
        <time>2011-02-11T13:10:47Z</time>
      </trkpt>
      <trkpt lat="48.92234" lon="1.00435">
        <ele>166.4453125</ele>
        <time>2011-02-11T13:11:01Z</time>
      </trkpt>
      <trkpt lat="48.92227" lon="1.00428">
        <ele>167.40673828125</ele>
        <time>2011-02-11T13:11:03Z</time>
      </trkpt>
      <trkpt lat="48.92224" lon="1.00424">
        <ele>168.36804199219</ele>
        <time>2011-02-11T13:11:04Z</time>
      </trkpt>
      <trkpt lat="48.92216" lon="1.00415">
        <ele>165.96472167969</ele>
        <time>2011-02-11T13:11:06Z</time>
      </trkpt>
      <trkpt lat="48.92209" lon="1.00406">
        <ele>165.48413085938</ele>
        <time>2011-02-11T13:11:08Z</time>
      </trkpt>
      <trkpt lat="48.92196" lon="1.00377">
        <ele>168.36804199219</ele>
        <time>2011-02-11T13:11:13Z</time>
      </trkpt>
      <trkpt lat="48.92184" lon="1.00345">
        <ele>164.04211425781</ele>
        <time>2011-02-11T13:11:19Z</time>
      </trkpt>
      <trkpt lat="48.92176" lon="1.00324">
        <ele>167.88732910156</ele>
        <time>2011-02-11T13:11:24Z</time>
      </trkpt>
      <trkpt lat="48.92175" lon="1.0032">
        <ele>164.52270507812</ele>
        <time>2011-02-11T13:11:25Z</time>
      </trkpt>
      <trkpt lat="48.92187" lon="1.00273">
        <ele>167.88732910156</ele>
        <time>2011-02-11T13:11:35Z</time>
      </trkpt>
      <trkpt lat="48.92188" lon="1.00268">
        <ele>164.52270507812</ele>
        <time>2011-02-11T13:11:36Z</time>
      </trkpt>
      <trkpt lat="48.92214" lon="1.00207">
        <ele>165.96472167969</ele>
        <time>2011-02-11T13:11:49Z</time>
      </trkpt>
      <trkpt lat="48.92216" lon="1.00202">
        <ele>162.60009765625</ele>
        <time>2011-02-11T13:11:50Z</time>
      </trkpt>
      <trkpt lat="48.92218" lon="1.00197">
        <ele>165.00341796875</ele>
        <time>2011-02-11T13:11:51Z</time>
      </trkpt>
      <trkpt lat="48.92237" lon="1.00154">
        <ele>163.5615234375</ele>
        <time>2011-02-11T13:11:59Z</time>
      </trkpt>
      <trkpt lat="48.92239" lon="1.00148">
        <ele>166.4453125</ele>
        <time>2011-02-11T13:12:00Z</time>
      </trkpt>
      <trkpt lat="48.92242" lon="1.00143">
        <ele>161.63891601562</ele>
        <time>2011-02-11T13:12:01Z</time>
      </trkpt>
      <trkpt lat="48.92244" lon="1.00138">
        <ele>165.00341796875</ele>
        <time>2011-02-11T13:12:02Z</time>
      </trkpt>
      <trkpt lat="48.92249" lon="1.00129">
        <ele>165.96472167969</ele>
        <time>2011-02-11T13:12:04Z</time>
      </trkpt>
      <trkpt lat="48.92255" lon="1.00118">
        <ele>163.5615234375</ele>
        <time>2011-02-11T13:12:06Z</time>
      </trkpt>
      <trkpt lat="48.92306" lon="1.00035">
        <ele>160.67749023438</ele>
        <time>2011-02-11T13:12:19Z</time>
      </trkpt>
      <trkpt lat="48.924" lon="0.99882">
        <ele>162.60009765625</ele>
        <time>2011-02-11T13:12:37Z</time>
      </trkpt>
      <trkpt lat="48.92406" lon="0.99873">
        <ele>158.27416992188</ele>
        <time>2011-02-11T13:12:38Z</time>
      </trkpt>
      <trkpt lat="48.92514" lon="0.99694">
        <ele>155.39025878906</ele>
        <time>2011-02-11T13:12:55Z</time>
      </trkpt>
      <trkpt lat="48.92534" lon="0.99662">
        <ele>159.23547363281</ele>
        <time>2011-02-11T13:12:58Z</time>
      </trkpt>
      <trkpt lat="48.9254" lon="0.99652">
        <ele>155.87097167969</ele>
        <time>2011-02-11T13:12:59Z</time>
      </trkpt>
      <trkpt lat="48.92553" lon="0.99631">
        <ele>159.71618652344</ele>
        <time>2011-02-11T13:13:01Z</time>
      </trkpt>
      <trkpt lat="48.9256" lon="0.9962">
        <ele>155.39025878906</ele>
        <time>2011-02-11T13:13:02Z</time>
      </trkpt>
      <trkpt lat="48.92566" lon="0.9961">
        <ele>155.87097167969</ele>
        <time>2011-02-11T13:13:03Z</time>
      </trkpt>
      <trkpt lat="48.92691" lon="0.99401">
        <ele>154.42895507812</ele>
        <time>2011-02-11T13:13:24Z</time>
      </trkpt>
      <trkpt lat="48.92723" lon="0.99348">
        <ele>157.31286621094</ele>
        <time>2011-02-11T13:13:30Z</time>
      </trkpt>
      <trkpt lat="48.92789" lon="0.9924">
        <ele>157.79357910156</ele>
        <time>2011-02-11T13:13:43Z</time>
      </trkpt>
      <trkpt lat="48.92814" lon="0.992">
        <ele>154.90954589844</ele>
        <time>2011-02-11T13:13:48Z</time>
      </trkpt>
      <trkpt lat="48.92823" lon="0.99185">
        <ele>158.75476074219</ele>
        <time>2011-02-11T13:13:50Z</time>
      </trkpt>
      <trkpt lat="48.92827" lon="0.99178">
        <ele>158.27416992188</ele>
        <time>2011-02-11T13:13:51Z</time>
      </trkpt>
      <trkpt lat="48.92858" lon="0.99128">
        <ele>160.67749023438</ele>
        <time>2011-02-11T13:13:58Z</time>
      </trkpt>
      <trkpt lat="48.92862" lon="0.99121">
        <ele>157.31286621094</ele>
        <time>2011-02-11T13:13:59Z</time>
      </trkpt>
      <trkpt lat="48.92866" lon="0.99114">
        <ele>158.27416992188</ele>
        <time>2011-02-11T13:14:00Z</time>
      </trkpt>
      <trkpt lat="48.92943" lon="0.98985">
        <ele>157.79357910156</ele>
        <time>2011-02-11T13:14:18Z</time>
      </trkpt>
      <trkpt lat="48.93012" lon="0.98871">
        <ele>162.11950683594</ele>
        <time>2011-02-11T13:14:33Z</time>
      </trkpt>
      <trkpt lat="48.93021" lon="0.98855">
        <ele>159.23547363281</ele>
        <time>2011-02-11T13:14:35Z</time>
      </trkpt>
      <trkpt lat="48.93031" lon="0.9884">
        <ele>155.87097167969</ele>
        <time>2011-02-11T13:14:37Z</time>
      </trkpt>
      <trkpt lat="48.93045" lon="0.98816">
        <ele>158.75476074219</ele>
        <time>2011-02-11T13:14:40Z</time>
      </trkpt>
      <trkpt lat="48.93054" lon="0.98801">
        <ele>159.71618652344</ele>
        <time>2011-02-11T13:14:42Z</time>
      </trkpt>
      <trkpt lat="48.93072" lon="0.9877">
        <ele>156.83215332031</ele>
        <time>2011-02-11T13:14:46Z</time>
      </trkpt>
      <trkpt lat="48.93077" lon="0.98762">
        <ele>156.83215332031</ele>
        <time>2011-02-11T13:14:47Z</time>
      </trkpt>
      <trkpt lat="48.93082" lon="0.98754">
        <ele>160.67749023438</ele>
        <time>2011-02-11T13:14:48Z</time>
      </trkpt>
      <trkpt lat="48.93086" lon="0.98747">
        <ele>160.19689941406</ele>
        <time>2011-02-11T13:14:49Z</time>
      </trkpt>
      <trkpt lat="48.93175" lon="0.986">
        <ele>157.31286621094</ele>
        <time>2011-02-11T13:15:08Z</time>
      </trkpt>
      <trkpt lat="48.93203" lon="0.98553">
        <ele>161.158203125</ele>
        <time>2011-02-11T13:15:14Z</time>
      </trkpt>
      <trkpt lat="48.93208" lon="0.98545">
        <ele>160.67749023438</ele>
        <time>2011-02-11T13:15:15Z</time>
      </trkpt>
      <trkpt lat="48.9326" lon="0.98462">
        <ele>156.83215332031</ele>
        <time>2011-02-11T13:15:26Z</time>
      </trkpt>
      <trkpt lat="48.93308" lon="0.98384">
        <ele>160.19689941406</ele>
        <time>2011-02-11T13:15:36Z</time>
      </trkpt>
      <trkpt lat="48.93333" lon="0.98343">
        <ele>155.87097167969</ele>
        <time>2011-02-11T13:15:41Z</time>
      </trkpt>
      <trkpt lat="48.93338" lon="0.98335">
        <ele>160.67749023438</ele>
        <time>2011-02-11T13:15:42Z</time>
      </trkpt>
      <trkpt lat="48.93343" lon="0.98327">
        <ele>159.23547363281</ele>
        <time>2011-02-11T13:15:43Z</time>
      </trkpt>
      <trkpt lat="48.9343" lon="0.98183">
        <ele>159.71618652344</ele>
        <time>2011-02-11T13:16:00Z</time>
      </trkpt>
      <trkpt lat="48.93498" lon="0.98068">
        <ele>154.90954589844</ele>
        <time>2011-02-11T13:16:14Z</time>
      </trkpt>
      <trkpt lat="48.93502" lon="0.98061">
        <ele>158.75476074219</ele>
        <time>2011-02-11T13:16:15Z</time>
      </trkpt>
      <trkpt lat="48.93511" lon="0.98045">
        <ele>159.23547363281</ele>
        <time>2011-02-11T13:16:17Z</time>
      </trkpt>
      <trkpt lat="48.93561" lon="0.97963">
        <ele>163.08081054688</ele>
        <time>2011-02-11T13:16:28Z</time>
      </trkpt>
      <trkpt lat="48.93565" lon="0.97955">
        <ele>159.71618652344</ele>
        <time>2011-02-11T13:16:29Z</time>
      </trkpt>
      <trkpt lat="48.93632" lon="0.97844">
        <ele>163.5615234375</ele>
        <time>2011-02-11T13:16:44Z</time>
      </trkpt>
      <trkpt lat="48.93636" lon="0.97836">
        <ele>160.19689941406</ele>
        <time>2011-02-11T13:16:45Z</time>
      </trkpt>
      <trkpt lat="48.93659" lon="0.978">
        <ele>163.08081054688</ele>
        <time>2011-02-11T13:16:50Z</time>
      </trkpt>
      <trkpt lat="48.93663" lon="0.97793">
        <ele>159.23547363281</ele>
        <time>2011-02-11T13:16:51Z</time>
      </trkpt>
      <trkpt lat="48.937" lon="0.97734">
        <ele>158.27416992188</ele>
        <time>2011-02-11T13:16:59Z</time>
      </trkpt>
      <trkpt lat="48.9377" lon="0.97618">
        <ele>157.79357910156</ele>
        <time>2011-02-11T13:17:13Z</time>
      </trkpt>
      <trkpt lat="48.93812" lon="0.97547">
        <ele>154.42895507812</ele>
        <time>2011-02-11T13:17:21Z</time>
      </trkpt>
      <trkpt lat="48.93828" lon="0.97521">
        <ele>157.31286621094</ele>
        <time>2011-02-11T13:17:24Z</time>
      </trkpt>
      <trkpt lat="48.93875" lon="0.97443">
        <ele>154.42895507812</ele>
        <time>2011-02-11T13:17:33Z</time>
      </trkpt>
      <trkpt lat="48.9388" lon="0.97434">
        <ele>156.83215332031</ele>
        <time>2011-02-11T13:17:34Z</time>
      </trkpt>
      <trkpt lat="48.93885" lon="0.97426">
        <ele>160.67749023438</ele>
        <time>2011-02-11T13:17:35Z</time>
      </trkpt>
      <trkpt lat="48.9389" lon="0.97418">
        <ele>156.83215332031</ele>
        <time>2011-02-11T13:17:36Z</time>
      </trkpt>
      <trkpt lat="48.93918" lon="0.97371">
        <ele>160.19689941406</ele>
        <time>2011-02-11T13:17:42Z</time>
      </trkpt>
      <trkpt lat="48.93923" lon="0.97363">
        <ele>156.3515625</ele>
        <time>2011-02-11T13:17:43Z</time>
      </trkpt>
      <trkpt lat="48.93941" lon="0.97331">
        <ele>161.158203125</ele>
        <time>2011-02-11T13:17:47Z</time>
      </trkpt>
      <trkpt lat="48.93956" lon="0.97308">
        <ele>157.31286621094</ele>
        <time>2011-02-11T13:17:50Z</time>
      </trkpt>
      <trkpt lat="48.93989" lon="0.97253">
        <ele>158.75476074219</ele>
        <time>2011-02-11T13:17:57Z</time>
      </trkpt>
      <trkpt lat="48.93998" lon="0.97238">
        <ele>157.79357910156</ele>
        <time>2011-02-11T13:17:59Z</time>
      </trkpt>
      <trkpt lat="48.94035" lon="0.97179">
        <ele>155.87097167969</ele>
        <time>2011-02-11T13:18:07Z</time>
      </trkpt>
      <trkpt lat="48.9404" lon="0.97172">
        <ele>160.67749023438</ele>
        <time>2011-02-11T13:18:08Z</time>
      </trkpt>
      <trkpt lat="48.94044" lon="0.97164">
        <ele>157.31286621094</ele>
        <time>2011-02-11T13:18:09Z</time>
      </trkpt>
      <trkpt lat="48.94071" lon="0.97121">
        <ele>158.75476074219</ele>
        <time>2011-02-11T13:18:15Z</time>
      </trkpt>
      <trkpt lat="48.94079" lon="0.97107">
        <ele>157.79357910156</ele>
        <time>2011-02-11T13:18:17Z</time>
      </trkpt>
      <trkpt lat="48.941" lon="0.97073">
        <ele>159.71618652344</ele>
        <time>2011-02-11T13:18:22Z</time>
      </trkpt>
      <trkpt lat="48.94135" lon="0.97013">
        <ele>160.67749023438</ele>
        <time>2011-02-11T13:18:31Z</time>
      </trkpt>
      <trkpt lat="48.94143" lon="0.97">
        <ele>158.75476074219</ele>
        <time>2011-02-11T13:18:33Z</time>
      </trkpt>
      <trkpt lat="48.94151" lon="0.96987">
        <ele>162.11950683594</ele>
        <time>2011-02-11T13:18:35Z</time>
      </trkpt>
      <trkpt lat="48.94155" lon="0.9698">
        <ele>161.158203125</ele>
        <time>2011-02-11T13:18:36Z</time>
      </trkpt>
      <trkpt lat="48.94159" lon="0.96974">
        <ele>157.79357910156</ele>
        <time>2011-02-11T13:18:37Z</time>
      </trkpt>
      <trkpt lat="48.94163" lon="0.96967">
        <ele>159.71618652344</ele>
        <time>2011-02-11T13:18:38Z</time>
      </trkpt>
      <trkpt lat="48.94215" lon="0.96881">
        <ele>160.19689941406</ele>
        <time>2011-02-11T13:18:51Z</time>
      </trkpt>
      <trkpt lat="48.94232" lon="0.96854">
        <ele>163.5615234375</ele>
        <time>2011-02-11T13:18:55Z</time>
      </trkpt>
      <trkpt lat="48.9424" lon="0.9684">
        <ele>160.67749023438</ele>
        <time>2011-02-11T13:18:57Z</time>
      </trkpt>
      <trkpt lat="48.94257" lon="0.96813">
        <ele>161.63891601562</ele>
        <time>2011-02-11T13:19:01Z</time>
      </trkpt>
      <trkpt lat="48.94306" lon="0.9673">
        <ele>162.60009765625</ele>
        <time>2011-02-11T13:19:13Z</time>
      </trkpt>
      <trkpt lat="48.94339" lon="0.96675">
        <ele>159.23547363281</ele>
        <time>2011-02-11T13:19:21Z</time>
      </trkpt>
      <trkpt lat="48.94343" lon="0.96668">
        <ele>163.5615234375</ele>
        <time>2011-02-11T13:19:22Z</time>
      </trkpt>
      <trkpt lat="48.94368" lon="0.96625">
        <ele>162.11950683594</ele>
        <time>2011-02-11T13:19:28Z</time>
      </trkpt>
      <trkpt lat="48.94416" lon="0.96548">
        <ele>163.5615234375</ele>
        <time>2011-02-11T13:19:39Z</time>
      </trkpt>
      <trkpt lat="48.94442" lon="0.96506">
        <ele>166.92602539062</ele>
        <time>2011-02-11T13:19:45Z</time>
      </trkpt>
      <trkpt lat="48.94447" lon="0.96498">
        <ele>162.11950683594</ele>
        <time>2011-02-11T13:19:46Z</time>
      </trkpt>
      <trkpt lat="48.94486" lon="0.96435">
        <ele>164.04211425781</ele>
        <time>2011-02-11T13:19:55Z</time>
      </trkpt>
      <trkpt lat="48.94568" lon="0.96299">
        <ele>161.63891601562</ele>
        <time>2011-02-11T13:20:13Z</time>
      </trkpt>
      <trkpt lat="48.94578" lon="0.96283">
        <ele>163.08081054688</ele>
        <time>2011-02-11T13:20:15Z</time>
      </trkpt>
      <trkpt lat="48.94592" lon="0.96259">
        <ele>160.67749023438</ele>
        <time>2011-02-11T13:20:18Z</time>
      </trkpt>
      <trkpt lat="48.94617" lon="0.96217">
        <ele>162.11950683594</ele>
        <time>2011-02-11T13:20:23Z</time>
      </trkpt>
      <trkpt lat="48.94632" lon="0.96192">
        <ele>158.75476074219</ele>
        <time>2011-02-11T13:20:26Z</time>
      </trkpt>
      <trkpt lat="48.94637" lon="0.96183">
        <ele>163.08081054688</ele>
        <time>2011-02-11T13:20:27Z</time>
      </trkpt>
      <trkpt lat="48.94648" lon="0.96166">
        <ele>165.00341796875</ele>
        <time>2011-02-11T13:20:29Z</time>
      </trkpt>
      <trkpt lat="48.94668" lon="0.96132">
        <ele>162.11950683594</ele>
        <time>2011-02-11T13:20:33Z</time>
      </trkpt>
      <trkpt lat="48.94719" lon="0.96048">
        <ele>159.23547363281</ele>
        <time>2011-02-11T13:20:43Z</time>
      </trkpt>
      <trkpt lat="48.94755" lon="0.95988">
        <ele>161.158203125</ele>
        <time>2011-02-11T13:20:50Z</time>
      </trkpt>
      <trkpt lat="48.94766" lon="0.95971">
        <ele>158.75476074219</ele>
        <time>2011-02-11T13:20:52Z</time>
      </trkpt>
      <trkpt lat="48.94828" lon="0.95867">
        <ele>156.83215332031</ele>
        <time>2011-02-11T13:21:04Z</time>
      </trkpt>
      <trkpt lat="48.94838" lon="0.95849">
        <ele>157.79357910156</ele>
        <time>2011-02-11T13:21:06Z</time>
      </trkpt>
      <trkpt lat="48.9486" lon="0.95814">
        <ele>154.42895507812</ele>
        <time>2011-02-11T13:21:10Z</time>
      </trkpt>
      <trkpt lat="48.94886" lon="0.95771">
        <ele>157.79357910156</ele>
        <time>2011-02-11T13:21:15Z</time>
      </trkpt>
      <trkpt lat="48.94902" lon="0.95745">
        <ele>154.42895507812</ele>
        <time>2011-02-11T13:21:18Z</time>
      </trkpt>
      <trkpt lat="48.94907" lon="0.95737">
        <ele>157.79357910156</ele>
        <time>2011-02-11T13:21:19Z</time>
      </trkpt>
      <trkpt lat="48.94928" lon="0.95702">
        <ele>156.83215332031</ele>
        <time>2011-02-11T13:21:23Z</time>
      </trkpt>
      <trkpt lat="48.94984" lon="0.9561">
        <ele>152.98693847656</ele>
        <time>2011-02-11T13:21:33Z</time>
      </trkpt>
      <trkpt lat="48.95001" lon="0.95582">
        <ele>155.39025878906</ele>
        <time>2011-02-11T13:21:36Z</time>
      </trkpt>
      <trkpt lat="48.95024" lon="0.95545">
        <ele>153.94836425781</ele>
        <time>2011-02-11T13:21:40Z</time>
      </trkpt>
      <trkpt lat="48.95041" lon="0.95518">
        <ele>155.39025878906</ele>
        <time>2011-02-11T13:21:43Z</time>
      </trkpt>
      <trkpt lat="48.95089" lon="0.95438">
        <ele>158.75476074219</ele>
        <time>2011-02-11T13:21:52Z</time>
      </trkpt>
      <trkpt lat="48.95094" lon="0.9543">
        <ele>153.46765136719</ele>
        <time>2011-02-11T13:21:53Z</time>
      </trkpt>
      <trkpt lat="48.9512" lon="0.95387">
        <ele>153.94836425781</ele>
        <time>2011-02-11T13:21:58Z</time>
      </trkpt>
      <trkpt lat="48.95189" lon="0.95273">
        <ele>152.02575683594</ele>
        <time>2011-02-11T13:22:12Z</time>
      </trkpt>
      <trkpt lat="48.95194" lon="0.95265">
        <ele>155.39025878906</ele>
        <time>2011-02-11T13:22:13Z</time>
      </trkpt>
      <trkpt lat="48.95198" lon="0.95257">
        <ele>155.39025878906</ele>
        <time>2011-02-11T13:22:14Z</time>
      </trkpt>
      <trkpt lat="48.95216" lon="0.95228">
        <ele>151.06420898438</ele>
        <time>2011-02-11T13:22:18Z</time>
      </trkpt>
      <trkpt lat="48.9522" lon="0.95221">
        <ele>152.98693847656</ele>
        <time>2011-02-11T13:22:19Z</time>
      </trkpt>
      <trkpt lat="48.95236" lon="0.95196">
        <ele>154.90954589844</ele>
        <time>2011-02-11T13:22:23Z</time>
      </trkpt>
      <trkpt lat="48.95243" lon="0.95185">
        <ele>152.98693847656</ele>
        <time>2011-02-11T13:22:25Z</time>
      </trkpt>
      <trkpt lat="48.95249" lon="0.95177">
        <ele>154.42895507812</ele>
        <time>2011-02-11T13:22:27Z</time>
      </trkpt>
      <trkpt lat="48.95254" lon="0.95171">
        <ele>153.46765136719</ele>
        <time>2011-02-11T13:22:29Z</time>
      </trkpt>
      <trkpt lat="48.9527" lon="0.95153">
        <ele>155.39025878906</ele>
        <time>2011-02-11T13:22:36Z</time>
      </trkpt>
      <trkpt lat="48.95307" lon="0.95084">
        <ele>152.50634765625</ele>
        <time>2011-02-11T13:22:46Z</time>
      </trkpt>
      <trkpt lat="48.9531" lon="0.95076">
        <ele>156.3515625</ele>
        <time>2011-02-11T13:22:47Z</time>
      </trkpt>
      <trkpt lat="48.95314" lon="0.95068">
        <ele>155.39025878906</ele>
        <time>2011-02-11T13:22:48Z</time>
      </trkpt>
      <trkpt lat="48.95327" lon="0.95045">
        <ele>153.46765136719</ele>
        <time>2011-02-11T13:22:51Z</time>
      </trkpt>
      <trkpt lat="48.95373" lon="0.94969">
        <ele>152.98693847656</ele>
        <time>2011-02-11T13:23:01Z</time>
      </trkpt>
      <trkpt lat="48.95382" lon="0.94954">
        <ele>158.27416992188</ele>
        <time>2011-02-11T13:23:03Z</time>
      </trkpt>
      <trkpt lat="48.95387" lon="0.94946">
        <ele>153.94836425781</ele>
        <time>2011-02-11T13:23:04Z</time>
      </trkpt>
      <trkpt lat="48.95455" lon="0.94834">
        <ele>149.62231445312</ele>
        <time>2011-02-11T13:23:20Z</time>
      </trkpt>
      <trkpt lat="48.95484" lon="0.94786">
        <ele>153.94836425781</ele>
        <time>2011-02-11T13:23:27Z</time>
      </trkpt>
      <trkpt lat="48.95541" lon="0.94698">
        <ele>150.58361816406</ele>
        <time>2011-02-11T13:23:39Z</time>
      </trkpt>
      <trkpt lat="48.95563" lon="0.9467">
        <ele>150.58361816406</ele>
        <time>2011-02-11T13:23:43Z</time>
      </trkpt>
      <trkpt lat="48.95575" lon="0.94655">
        <ele>151.544921875</ele>
        <time>2011-02-11T13:23:45Z</time>
      </trkpt>
      <trkpt lat="48.95581" lon="0.94648">
        <ele>154.42895507812</ele>
        <time>2011-02-11T13:23:46Z</time>
      </trkpt>
      <trkpt lat="48.95592" lon="0.94634">
        <ele>151.06420898438</ele>
        <time>2011-02-11T13:23:48Z</time>
      </trkpt>
      <trkpt lat="48.95598" lon="0.94627">
        <ele>152.02575683594</ele>
        <time>2011-02-11T13:23:49Z</time>
      </trkpt>
      <trkpt lat="48.95604" lon="0.9462">
        <ele>153.94836425781</ele>
        <time>2011-02-11T13:23:50Z</time>
      </trkpt>
      <trkpt lat="48.95623" lon="0.946">
        <ele>148.66101074219</ele>
        <time>2011-02-11T13:23:53Z</time>
      </trkpt>
      <trkpt lat="48.95684" lon="0.94543">
        <ele>144.33520507812</ele>
        <time>2011-02-11T13:24:02Z</time>
      </trkpt>
      <trkpt lat="48.95692" lon="0.94536">
        <ele>146.73840332031</ele>
        <time>2011-02-11T13:24:03Z</time>
      </trkpt>
      <trkpt lat="48.9574" lon="0.94491">
        <ele>142.41247558594</ele>
        <time>2011-02-11T13:24:10Z</time>
      </trkpt>
      <trkpt lat="48.95747" lon="0.94484">
        <ele>145.77709960938</ele>
        <time>2011-02-11T13:24:11Z</time>
      </trkpt>
      <trkpt lat="48.95777" lon="0.94451">
        <ele>142.41247558594</ele>
        <time>2011-02-11T13:24:16Z</time>
      </trkpt>
      <trkpt lat="48.95783" lon="0.94446">
        <ele>144.33520507812</ele>
        <time>2011-02-11T13:24:17Z</time>
      </trkpt>
      <trkpt lat="48.95796" lon="0.94436">
        <ele>145.77709960938</ele>
        <time>2011-02-11T13:24:19Z</time>
      </trkpt>
      <trkpt lat="48.95816" lon="0.94419">
        <ele>140.48986816406</ele>
        <time>2011-02-11T13:24:22Z</time>
      </trkpt>
      <trkpt lat="48.95822" lon="0.94413">
        <ele>143.85437011719</ele>
        <time>2011-02-11T13:24:23Z</time>
      </trkpt>
      <trkpt lat="48.9584" lon="0.94394">
        <ele>145.29638671875</ele>
        <time>2011-02-11T13:24:26Z</time>
      </trkpt>
      <trkpt lat="48.95853" lon="0.94382">
        <ele>141.93176269531</ele>
        <time>2011-02-11T13:24:28Z</time>
      </trkpt>
      <trkpt lat="48.95899" lon="0.94336">
        <ele>141.93176269531</ele>
        <time>2011-02-11T13:24:36Z</time>
      </trkpt>
      <trkpt lat="48.95913" lon="0.94321">
        <ele>139.52844238281</ele>
        <time>2011-02-11T13:24:39Z</time>
      </trkpt>
      <trkpt lat="48.95945" lon="0.94284">
        <ele>139.0478515625</ele>
        <time>2011-02-11T13:24:46Z</time>
      </trkpt>
      <trkpt lat="48.95959" lon="0.94276">
        <ele>141.45104980469</ele>
        <time>2011-02-11T13:24:49Z</time>
      </trkpt>
      <trkpt lat="48.95975" lon="0.94264">
        <ele>141.45104980469</ele>
        <time>2011-02-11T13:24:53Z</time>
      </trkpt>
      <trkpt lat="48.96009" lon="0.94253">
        <ele>138.08654785156</ele>
        <time>2011-02-11T13:25:00Z</time>
      </trkpt>
      <trkpt lat="48.96014" lon="0.94252">
        <ele>141.45104980469</ele>
        <time>2011-02-11T13:25:01Z</time>
      </trkpt>
      <trkpt lat="48.96033" lon="0.94257">
        <ele>138.08654785156</ele>
        <time>2011-02-11T13:25:06Z</time>
      </trkpt>
      <trkpt lat="48.96036" lon="0.9426">
        <ele>141.93176269531</ele>
        <time>2011-02-11T13:25:08Z</time>
      </trkpt>
      <trkpt lat="48.96037" lon="0.94262">
        <ele>141.45104980469</ele>
        <time>2011-02-11T13:25:09Z</time>
      </trkpt>
      <trkpt lat="48.96039" lon="0.94274">
        <ele>138.08654785156</ele>
        <time>2011-02-11T13:25:13Z</time>
      </trkpt>
      <trkpt lat="48.96054" lon="0.94292">
        <ele>141.93176269531</ele>
        <time>2011-02-11T13:25:18Z</time>
      </trkpt>
      <trkpt lat="48.96057" lon="0.94295">
        <ele>139.0478515625</ele>
        <time>2011-02-11T13:25:19Z</time>
      </trkpt>
      <trkpt lat="48.96081" lon="0.94327">
        <ele>139.0478515625</ele>
        <time>2011-02-11T13:25:28Z</time>
      </trkpt>
      <trkpt lat="48.96087" lon="0.94313">
        <ele>137.60583496094</ele>
        <time>2011-02-11T13:25:32Z</time>
      </trkpt>
      <trkpt lat="48.961" lon="0.94295">
        <ele>138.56726074219</ele>
        <time>2011-02-11T13:25:40Z</time>
      </trkpt>
      <trkpt lat="48.96104" lon="0.94294">
        <ele>141.45104980469</ele>
        <time>2011-02-11T13:25:42Z</time>
      </trkpt>
      <trkpt lat="48.96106" lon="0.94293">
        <ele>136.64465332031</ele>
        <time>2011-02-11T13:25:43Z</time>
      </trkpt>
      <trkpt lat="48.96121" lon="0.94293">
        <ele>137.12524414062</ele>
        <time>2011-02-11T13:25:51Z</time>
      </trkpt>
      <trkpt lat="48.96129" lon="0.94283">
        <ele>139.52844238281</ele>
        <time>2011-02-11T13:25:56Z</time>
      </trkpt>
      <trkpt lat="48.96144" lon="0.94281">
        <ele>138.56726074219</ele>
        <time>2011-02-11T13:26:03Z</time>
      </trkpt>
      <trkpt lat="48.9615" lon="0.94277">
        <ele>140.97045898438</ele>
        <time>2011-02-11T13:26:06Z</time>
      </trkpt>
      <trkpt lat="48.96152" lon="0.94276">
        <ele>140.00915527344</ele>
        <time>2011-02-11T13:26:07Z</time>
      </trkpt>
      <trkpt lat="48.96158" lon="0.94273">
        <ele>140.97045898438</ele>
        <time>2011-02-11T13:26:11Z</time>
      </trkpt>
      <trkpt lat="48.96161" lon="0.94272">
        <ele>139.52844238281</ele>
        <time>2011-02-11T13:26:13Z</time>
      </trkpt>
      <trkpt lat="48.96163" lon="0.94271">
        <ele>140.48986816406</ele>
        <time>2011-02-11T13:26:15Z</time>
      </trkpt>
      <trkpt lat="48.96165" lon="0.94269">
        <ele>138.56726074219</ele>
        <time>2011-02-11T13:26:17Z</time>
      </trkpt>
      <trkpt lat="48.96173" lon="0.94283">
        <ele>143.37365722656</ele>
        <time>2011-02-11T13:26:24Z</time>
      </trkpt>
      <trkpt lat="48.96174" lon="0.94285">
        <ele>139.52844238281</ele>
        <time>2011-02-11T13:26:25Z</time>
      </trkpt>
      <trkpt lat="48.96177" lon="0.94292">
        <ele>140.48986816406</ele>
        <time>2011-02-11T13:26:28Z</time>
      </trkpt>
      <trkpt lat="48.96196" lon="0.94292">
        <ele>141.93176269531</ele>
        <time>2011-02-11T13:26:38Z</time>
      </trkpt>
      <trkpt lat="48.962" lon="0.94293">
        <ele>139.52844238281</ele>
        <time>2011-02-11T13:26:40Z</time>
      </trkpt>
      <trkpt lat="48.96211" lon="0.94291">
        <ele>140.48986816406</ele>
        <time>2011-02-11T13:26:45Z</time>
      </trkpt>
      <trkpt lat="48.96219" lon="0.94285">
        <ele>140.00915527344</ele>
        <time>2011-02-11T13:26:49Z</time>
      </trkpt>
      <trkpt lat="48.96236" lon="0.94251">
        <ele>135.68310546875</ele>
        <time>2011-02-11T13:26:59Z</time>
      </trkpt>
      <trkpt lat="48.96234" lon="0.94226">
        <ele>138.56726074219</ele>
        <time>2011-02-11T13:27:07Z</time>
      </trkpt>
      <trkpt lat="48.96234" lon="0.94199">
        <ele>137.12524414062</ele>
        <time>2011-02-11T13:27:15Z</time>
      </trkpt>
      <trkpt lat="48.96234" lon="0.94189">
        <ele>139.0478515625</ele>
        <time>2011-02-11T13:27:18Z</time>
      </trkpt>
      <trkpt lat="48.96237" lon="0.94187">
        <ele>135.68310546875</ele>
        <time>2011-02-11T13:27:22Z</time>
      </trkpt>
      <trkpt lat="48.96259" lon="0.94175">
        <ele>137.60583496094</ele>
        <time>2011-02-11T13:27:34Z</time>
      </trkpt>
      <trkpt lat="48.96281" lon="0.9417">
        <ele>134.2412109375</ele>
        <time>2011-02-11T13:27:42Z</time>
      </trkpt>
      <trkpt lat="48.96286" lon="0.94167">
        <ele>137.60583496094</ele>
        <time>2011-02-11T13:27:44Z</time>
      </trkpt>
      <trkpt lat="48.96299" lon="0.94165">
        <ele>135.68310546875</ele>
        <time>2011-02-11T13:27:49Z</time>
      </trkpt>
      <trkpt lat="48.96305" lon="0.9416">
        <ele>140.48986816406</ele>
        <time>2011-02-11T13:27:52Z</time>
      </trkpt>
      <trkpt lat="48.96307" lon="0.94158">
        <ele>136.64465332031</ele>
        <time>2011-02-11T13:27:53Z</time>
      </trkpt>
      <trkpt lat="48.96319" lon="0.94153">
        <ele>135.68310546875</ele>
        <time>2011-02-11T13:27:59Z</time>
      </trkpt>
      <trkpt lat="48.96321" lon="0.94156">
        <ele>134.72192382812</ele>
        <time>2011-02-11T13:28:02Z</time>
      </trkpt>
      <trkpt lat="48.9634" lon="0.94161">
        <ele>135.20251464844</ele>
        <time>2011-02-11T13:28:10Z</time>
      </trkpt>
      <trkpt lat="48.96357" lon="0.94157">
        <ele>136.16394042969</ele>
        <time>2011-02-11T13:28:24Z</time>
      </trkpt>
      <trkpt lat="48.96355" lon="0.94158">
        <ele>132.79931640625</ele>
        <time>2011-02-11T13:28:31Z</time>
      </trkpt>
      <trkpt lat="48.96355" lon="0.94158">
        <ele>136.16394042969</ele>
        <time>2011-02-11T13:28:38Z</time>
      </trkpt>
      <trkpt lat="48.96354" lon="0.94158">
        <ele>132.79931640625</ele>
        <time>2011-02-11T13:28:44Z</time>
      </trkpt>
      <trkpt lat="48.96354" lon="0.94158">
        <ele>136.16394042969</ele>
        <time>2011-02-11T13:28:48Z</time>
      </trkpt>
      <trkpt lat="48.96354" lon="0.94159">
        <ele>136.16394042969</ele>
        <time>2011-02-11T13:29:01Z</time>
      </trkpt>
      <trkpt lat="48.96354" lon="0.94159">
        <ele>133.27990722656</ele>
        <time>2011-02-11T13:29:04Z</time>
      </trkpt>
      <trkpt lat="48.96354" lon="0.94159">
        <ele>138.56726074219</ele>
        <time>2011-02-11T13:29:05Z</time>
      </trkpt>
      <trkpt lat="48.96355" lon="0.94159">
        <ele>135.20251464844</ele>
        <time>2011-02-11T13:29:06Z</time>
      </trkpt>
      <trkpt lat="48.96355" lon="0.94159">
        <ele>134.72192382812</ele>
        <time>2011-02-11T13:29:08Z</time>
      </trkpt>
      <trkpt lat="48.96356" lon="0.94159">
        <ele>135.20251464844</ele>
        <time>2011-02-11T13:29:15Z</time>
      </trkpt>
      <trkpt lat="48.96357" lon="0.94159">
        <ele>134.72192382812</ele>
        <time>2011-02-11T13:29:28Z</time>
      </trkpt>
      <trkpt lat="48.96357" lon="0.94159">
        <ele>138.08654785156</ele>
        <time>2011-02-11T13:29:41Z</time>
      </trkpt>
      <trkpt lat="48.96356" lon="0.94157">
        <ele>134.72192382812</ele>
        <time>2011-02-11T13:29:47Z</time>
      </trkpt>
      <trkpt lat="48.96356" lon="0.94157">
        <ele>136.16394042969</ele>
        <time>2011-02-11T13:29:58Z</time>
      </trkpt>
      <trkpt lat="48.96356" lon="0.94157">
        <ele>134.2412109375</ele>
        <time>2011-02-11T13:30:05Z</time>
      </trkpt>
      <trkpt lat="48.96356" lon="0.94157">
        <ele>135.68310546875</ele>
        <time>2011-02-11T13:30:08Z</time>
      </trkpt>
      <trkpt lat="48.96356" lon="0.94157">
        <ele>137.60583496094</ele>
        <time>2011-02-11T13:30:12Z</time>
      </trkpt>
      <trkpt lat="48.96356" lon="0.94157">
        <ele>133.76049804688</ele>
        <time>2011-02-11T13:30:14Z</time>
      </trkpt>
      <trkpt lat="48.96356" lon="0.94157">
        <ele>137.12524414062</ele>
        <time>2011-02-11T13:30:17Z</time>
      </trkpt>
      <trkpt lat="48.96356" lon="0.94157">
        <ele>136.16394042969</ele>
        <time>2011-02-11T13:30:18Z</time>
      </trkpt>
      <trkpt lat="48.96356" lon="0.94157">
        <ele>139.0478515625</ele>
        <time>2011-02-11T13:30:27Z</time>
      </trkpt>
      <trkpt lat="48.96356" lon="0.94157">
        <ele>133.76049804688</ele>
        <time>2011-02-11T13:30:28Z</time>
      </trkpt>
      <trkpt lat="48.96356" lon="0.94156">
        <ele>137.12524414062</ele>
        <time>2011-02-11T13:30:29Z</time>
      </trkpt>
      <trkpt lat="48.96356" lon="0.94156">
        <ele>133.27990722656</ele>
        <time>2011-02-11T13:30:30Z</time>
      </trkpt>
      <trkpt lat="48.96356" lon="0.94157">
        <ele>135.68310546875</ele>
        <time>2011-02-11T13:30:33Z</time>
      </trkpt>
      <trkpt lat="48.96355" lon="0.94157">
        <ele>134.72192382812</ele>
        <time>2011-02-11T13:30:52Z</time>
      </trkpt>
      <trkpt lat="48.96355" lon="0.94157">
        <ele>135.68310546875</ele>
        <time>2011-02-11T13:30:56Z</time>
      </trkpt>
      <trkpt lat="48.96355" lon="0.94157">
        <ele>132.31860351562</ele>
        <time>2011-02-11T13:31:17Z</time>
      </trkpt>
      <trkpt lat="48.96355" lon="0.94157">
        <ele>139.0478515625</ele>
        <time>2011-02-11T13:31:18Z</time>
      </trkpt>
      <trkpt lat="48.96355" lon="0.94157">
        <ele>135.20251464844</ele>
        <time>2011-02-11T13:31:20Z</time>
      </trkpt>
      <trkpt lat="48.96355" lon="0.94157">
        <ele>135.20251464844</ele>
        <time>2011-02-11T13:31:21Z</time>
      </trkpt>
      <trkpt lat="48.96355" lon="0.94157">
        <ele>138.08654785156</ele>
        <time>2011-02-11T13:31:25Z</time>
      </trkpt>
      <trkpt lat="48.96355" lon="0.94157">
        <ele>134.72192382812</ele>
        <time>2011-02-11T13:31:28Z</time>
      </trkpt>
      <trkpt lat="48.96355" lon="0.94157">
        <ele>135.68310546875</ele>
        <time>2011-02-11T13:31:35Z</time>
      </trkpt>
      <trkpt lat="48.96355" lon="0.94157">
        <ele>139.52844238281</ele>
        <time>2011-02-11T13:31:43Z</time>
      </trkpt>
      <trkpt lat="48.96355" lon="0.94157">
        <ele>136.16394042969</ele>
        <time>2011-02-11T13:31:44Z</time>
      </trkpt>
      <trkpt lat="48.96355" lon="0.94157">
        <ele>137.60583496094</ele>
        <time>2011-02-11T13:31:49Z</time>
      </trkpt>
      <trkpt lat="48.96357" lon="0.94157">
        <ele>137.60583496094</ele>
        <time>2011-02-11T13:31:51Z</time>
      </trkpt>
      <trkpt lat="48.96365" lon="0.94157">
        <ele>134.2412109375</ele>
        <time>2011-02-11T13:31:54Z</time>
      </trkpt>
      <trkpt lat="48.96375" lon="0.94157">
        <ele>136.64465332031</ele>
        <time>2011-02-11T13:31:57Z</time>
      </trkpt>
      <trkpt lat="48.96382" lon="0.94155">
        <ele>133.27990722656</ele>
        <time>2011-02-11T13:31:59Z</time>
      </trkpt>
      <trkpt lat="48.96385" lon="0.94155">
        <ele>135.20251464844</ele>
        <time>2011-02-11T13:32:00Z</time>
      </trkpt>
      <trkpt lat="48.96401" lon="0.94155">
        <ele>133.27990722656</ele>
        <time>2011-02-11T13:32:05Z</time>
      </trkpt>
      <trkpt lat="48.96405" lon="0.94155">
        <ele>133.76049804688</ele>
        <time>2011-02-11T13:32:07Z</time>
      </trkpt>
      <trkpt lat="48.96411" lon="0.94154">
        <ele>132.31860351562</ele>
        <time>2011-02-11T13:32:10Z</time>
      </trkpt>
      <trkpt lat="48.96415" lon="0.94153">
        <ele>134.2412109375</ele>
        <time>2011-02-11T13:32:12Z</time>
      </trkpt>
      <trkpt lat="48.96423" lon="0.94153">
        <ele>133.27990722656</ele>
        <time>2011-02-11T13:32:14Z</time>
      </trkpt>
      <trkpt lat="48.96453" lon="0.94162">
        <ele>129.91528320312</ele>
        <time>2011-02-11T13:32:21Z</time>
      </trkpt>
      <trkpt lat="48.96462" lon="0.94166">
        <ele>133.27990722656</ele>
        <time>2011-02-11T13:32:24Z</time>
      </trkpt>
      <trkpt lat="48.96465" lon="0.94169">
        <ele>128.9541015625</ele>
        <time>2011-02-11T13:32:25Z</time>
      </trkpt>
      <trkpt lat="48.96502" lon="0.94197">
        <ele>125.10876464844</ele>
        <time>2011-02-11T13:32:32Z</time>
      </trkpt>
      <trkpt lat="48.96508" lon="0.94202">
        <ele>125.58935546875</ele>
        <time>2011-02-11T13:32:33Z</time>
      </trkpt>
      <trkpt lat="48.96543" lon="0.94234">
        <ele>127.51196289062</ele>
        <time>2011-02-11T13:32:39Z</time>
      </trkpt>
      <trkpt lat="48.96559" lon="0.9425">
        <ele>125.10876464844</ele>
        <time>2011-02-11T13:32:42Z</time>
      </trkpt>
      <trkpt lat="48.96563" lon="0.94255">
        <ele>125.58935546875</ele>
        <time>2011-02-11T13:32:43Z</time>
      </trkpt>
      <trkpt lat="48.96591" lon="0.94267">
        <ele>122.22473144531</ele>
        <time>2011-02-11T13:32:48Z</time>
      </trkpt>
      <trkpt lat="48.96596" lon="0.94269">
        <ele>126.55065917969</ele>
        <time>2011-02-11T13:32:49Z</time>
      </trkpt>
      <trkpt lat="48.96605" lon="0.94275">
        <ele>120.30212402344</ele>
        <time>2011-02-11T13:32:51Z</time>
      </trkpt>
      <trkpt lat="48.9661" lon="0.94278">
        <ele>124.14733886719</ele>
        <time>2011-02-11T13:32:52Z</time>
      </trkpt>
      <trkpt lat="48.96621" lon="0.94286">
        <ele>120.30212402344</ele>
        <time>2011-02-11T13:32:54Z</time>
      </trkpt>
      <trkpt lat="48.96628" lon="0.9429">
        <ele>120.78283691406</ele>
        <time>2011-02-11T13:32:55Z</time>
      </trkpt>
      <trkpt lat="48.96641" lon="0.94299">
        <ele>124.14733886719</ele>
        <time>2011-02-11T13:32:57Z</time>
      </trkpt>
      <trkpt lat="48.96661" lon="0.94313">
        <ele>120.78283691406</ele>
        <time>2011-02-11T13:33:00Z</time>
      </trkpt>
      <trkpt lat="48.96726" lon="0.94356">
        <ele>117.89880371094</ele>
        <time>2011-02-11T13:33:09Z</time>
      </trkpt>
      <trkpt lat="48.96769" lon="0.94384">
        <ele>117.41821289062</ele>
        <time>2011-02-11T13:33:15Z</time>
      </trkpt>
      <trkpt lat="48.9679" lon="0.94391">
        <ele>116.9375</ele>
        <time>2011-02-11T13:33:18Z</time>
      </trkpt>
      <trkpt lat="48.96798" lon="0.94391">
        <ele>119.82141113281</ele>
        <time>2011-02-11T13:33:19Z</time>
      </trkpt>
      <trkpt lat="48.96806" lon="0.9439">
        <ele>116.9375</ele>
        <time>2011-02-11T13:33:20Z</time>
      </trkpt>
      <trkpt lat="48.96813" lon="0.94388">
        <ele>116.45678710938</ele>
        <time>2011-02-11T13:33:21Z</time>
      </trkpt>
      <trkpt lat="48.96885" lon="0.94351">
        <ele>121.26354980469</ele>
        <time>2011-02-11T13:33:35Z</time>
      </trkpt>
      <trkpt lat="48.96927" lon="0.94336">
        <ele>124.62805175781</ele>
        <time>2011-02-11T13:33:50Z</time>
      </trkpt>
      <trkpt lat="48.96954" lon="0.94371">
        <ele>127.51196289062</ele>
        <time>2011-02-11T13:34:03Z</time>
      </trkpt>
      <trkpt lat="48.96957" lon="0.94379">
        <ele>128.47338867188</ele>
        <time>2011-02-11T13:34:05Z</time>
      </trkpt>
      <trkpt lat="48.96979" lon="0.94425">
        <ele>129.43469238281</ele>
        <time>2011-02-11T13:34:18Z</time>
      </trkpt>
      <trkpt lat="48.96982" lon="0.94431">
        <ele>133.76049804688</ele>
        <time>2011-02-11T13:34:20Z</time>
      </trkpt>
      <trkpt lat="48.96983" lon="0.94435">
        <ele>129.91528320312</ele>
        <time>2011-02-11T13:34:21Z</time>
      </trkpt>
      <trkpt lat="48.96985" lon="0.94438">
        <ele>133.27990722656</ele>
        <time>2011-02-11T13:34:22Z</time>
      </trkpt>
      <trkpt lat="48.97" lon="0.9447">
        <ele>132.79931640625</ele>
        <time>2011-02-11T13:34:32Z</time>
      </trkpt>
      <trkpt lat="48.97006" lon="0.9448">
        <ele>131.35729980469</ele>
        <time>2011-02-11T13:34:35Z</time>
      </trkpt>
      <trkpt lat="48.97015" lon="0.94498">
        <ele>138.08654785156</ele>
        <time>2011-02-11T13:34:40Z</time>
      </trkpt>
      <trkpt lat="48.97017" lon="0.94502">
        <ele>132.79931640625</ele>
        <time>2011-02-11T13:34:41Z</time>
      </trkpt>
      <trkpt lat="48.97019" lon="0.94506">
        <ele>137.12524414062</ele>
        <time>2011-02-11T13:34:42Z</time>
      </trkpt>
      <trkpt lat="48.97029" lon="0.94523">
        <ele>133.76049804688</ele>
        <time>2011-02-11T13:34:47Z</time>
      </trkpt>
      <trkpt lat="48.97031" lon="0.94526">
        <ele>138.08654785156</ele>
        <time>2011-02-11T13:34:48Z</time>
      </trkpt>
      <trkpt lat="48.97038" lon="0.94537">
        <ele>133.27990722656</ele>
        <time>2011-02-11T13:34:51Z</time>
      </trkpt>
      <trkpt lat="48.97043" lon="0.94543">
        <ele>139.0478515625</ele>
        <time>2011-02-11T13:34:53Z</time>
      </trkpt>
      <trkpt lat="48.97099" lon="0.9462">
        <ele>141.45104980469</ele>
        <time>2011-02-11T13:35:15Z</time>
      </trkpt>
      <trkpt lat="48.97102" lon="0.94624">
        <ele>138.56726074219</ele>
        <time>2011-02-11T13:35:16Z</time>
      </trkpt>
      <trkpt lat="48.97104" lon="0.94628">
        <ele>141.93176269531</ele>
        <time>2011-02-11T13:35:17Z</time>
      </trkpt>
      <trkpt lat="48.97138" lon="0.94668">
        <ele>142.41247558594</ele>
        <time>2011-02-11T13:35:30Z</time>
      </trkpt>
      <trkpt lat="48.97155" lon="0.94688">
        <ele>145.77709960938</ele>
        <time>2011-02-11T13:35:37Z</time>
      </trkpt>
      <trkpt lat="48.97169" lon="0.94705">
        <ele>144.33520507812</ele>
        <time>2011-02-11T13:35:43Z</time>
      </trkpt>
      <trkpt lat="48.97186" lon="0.94724">
        <ele>147.69970703125</ele>
        <time>2011-02-11T13:35:50Z</time>
      </trkpt>
      <trkpt lat="48.97188" lon="0.94727">
        <ele>147.21899414062</ele>
        <time>2011-02-11T13:35:51Z</time>
      </trkpt>
      <trkpt lat="48.97214" lon="0.94753">
        <ele>148.66101074219</ele>
        <time>2011-02-11T13:36:00Z</time>
      </trkpt>
      <trkpt lat="48.97238" lon="0.9477">
        <ele>148.66101074219</ele>
        <time>2011-02-11T13:36:05Z</time>
      </trkpt>
      <trkpt lat="48.97243" lon="0.94773">
        <ele>143.85437011719</ele>
        <time>2011-02-11T13:36:06Z</time>
      </trkpt>
      <trkpt lat="48.97248" lon="0.94776">
        <ele>147.69970703125</ele>
        <time>2011-02-11T13:36:07Z</time>
      </trkpt>
      <trkpt lat="48.97258" lon="0.94783">
        <ele>144.33520507812</ele>
        <time>2011-02-11T13:36:09Z</time>
      </trkpt>
      <trkpt lat="48.97263" lon="0.94786">
        <ele>146.2578125</ele>
        <time>2011-02-11T13:36:10Z</time>
      </trkpt>
      <trkpt lat="48.97289" lon="0.94802">
        <ele>147.21899414062</ele>
        <time>2011-02-11T13:36:15Z</time>
      </trkpt>
      <trkpt lat="48.97334" lon="0.94829">
        <ele>147.69970703125</ele>
        <time>2011-02-11T13:36:24Z</time>
      </trkpt>
      <trkpt lat="48.97339" lon="0.94832">
        <ele>143.85437011719</ele>
        <time>2011-02-11T13:36:25Z</time>
      </trkpt>
      <trkpt lat="48.97345" lon="0.94835">
        <ele>146.2578125</ele>
        <time>2011-02-11T13:36:26Z</time>
      </trkpt>
      <trkpt lat="48.97383" lon="0.94859">
        <ele>145.77709960938</ele>
        <time>2011-02-11T13:36:33Z</time>
      </trkpt>
      <trkpt lat="48.97442" lon="0.94873">
        <ele>146.73840332031</ele>
        <time>2011-02-11T13:36:43Z</time>
      </trkpt>
      <trkpt lat="48.97492" lon="0.94875">
        <ele>148.66101074219</ele>
        <time>2011-02-11T13:36:51Z</time>
      </trkpt>
      <trkpt lat="48.97505" lon="0.94876">
        <ele>146.73840332031</ele>
        <time>2011-02-11T13:36:53Z</time>
      </trkpt>
      <trkpt lat="48.97538" lon="0.94877">
        <ele>150.10302734375</ele>
        <time>2011-02-11T13:36:58Z</time>
      </trkpt>
      <trkpt lat="48.97551" lon="0.94879">
        <ele>145.77709960938</ele>
        <time>2011-02-11T13:37:00Z</time>
      </trkpt>
      <trkpt lat="48.97605" lon="0.94888">
        <ele>146.73840332031</ele>
        <time>2011-02-11T13:37:08Z</time>
      </trkpt>
      <trkpt lat="48.97612" lon="0.94889">
        <ele>150.10302734375</ele>
        <time>2011-02-11T13:37:09Z</time>
      </trkpt>
      <trkpt lat="48.97618" lon="0.94891">
        <ele>149.1416015625</ele>
        <time>2011-02-11T13:37:10Z</time>
      </trkpt>
      <trkpt lat="48.97663" lon="0.94905">
        <ele>145.77709960938</ele>
        <time>2011-02-11T13:37:17Z</time>
      </trkpt>
      <trkpt lat="48.9767" lon="0.94907">
        <ele>149.62231445312</ele>
        <time>2011-02-11T13:37:18Z</time>
      </trkpt>
      <trkpt lat="48.97697" lon="0.94919">
        <ele>147.69970703125</ele>
        <time>2011-02-11T13:37:22Z</time>
      </trkpt>
      <trkpt lat="48.9774" lon="0.94946">
        <ele>144.33520507812</ele>
        <time>2011-02-11T13:37:28Z</time>
      </trkpt>
      <trkpt lat="48.97857" lon="0.95026">
        <ele>140.48986816406</ele>
        <time>2011-02-11T13:37:43Z</time>
      </trkpt>
      <trkpt lat="48.97864" lon="0.95031">
        <ele>141.45104980469</ele>
        <time>2011-02-11T13:37:44Z</time>
      </trkpt>
      <trkpt lat="48.97954" lon="0.9509">
        <ele>136.64465332031</ele>
        <time>2011-02-11T13:37:56Z</time>
      </trkpt>
      <trkpt lat="48.9796" lon="0.95095">
        <ele>143.85437011719</ele>
        <time>2011-02-11T13:37:57Z</time>
      </trkpt>
      <trkpt lat="48.97967" lon="0.95099">
        <ele>140.00915527344</ele>
        <time>2011-02-11T13:37:58Z</time>
      </trkpt>
      <trkpt lat="48.97972" lon="0.95103">
        <ele>144.81579589844</ele>
        <time>2011-02-11T13:37:59Z</time>
      </trkpt>
      <trkpt lat="48.97994" lon="0.95119">
        <ele>140.00915527344</ele>
        <time>2011-02-11T13:38:04Z</time>
      </trkpt>
      <trkpt lat="48.97997" lon="0.95121">
        <ele>146.73840332031</ele>
        <time>2011-02-11T13:38:05Z</time>
      </trkpt>
      <trkpt lat="48.98" lon="0.95123">
        <ele>142.41247558594</ele>
        <time>2011-02-11T13:38:06Z</time>
      </trkpt>
      <trkpt lat="48.98002" lon="0.95125">
        <ele>146.73840332031</ele>
        <time>2011-02-11T13:38:07Z</time>
      </trkpt>
      <trkpt lat="48.98013" lon="0.95131">
        <ele>143.37365722656</ele>
        <time>2011-02-11T13:38:12Z</time>
      </trkpt>
      <trkpt lat="48.98017" lon="0.95135">
        <ele>149.1416015625</ele>
        <time>2011-02-11T13:38:14Z</time>
      </trkpt>
      <trkpt lat="48.9802" lon="0.95137">
        <ele>147.69970703125</ele>
        <time>2011-02-11T13:38:15Z</time>
      </trkpt>
      <trkpt lat="48.98033" lon="0.95146">
        <ele>143.37365722656</ele>
        <time>2011-02-11T13:38:19Z</time>
      </trkpt>
      <trkpt lat="48.98043" lon="0.95153">
        <ele>146.2578125</ele>
        <time>2011-02-11T13:38:22Z</time>
      </trkpt>
      <trkpt lat="48.98067" lon="0.95167">
        <ele>142.41247558594</ele>
        <time>2011-02-11T13:38:28Z</time>
      </trkpt>
      <trkpt lat="48.98071" lon="0.9517">
        <ele>145.77709960938</ele>
        <time>2011-02-11T13:38:29Z</time>
      </trkpt>
      <trkpt lat="48.98089" lon="0.95182">
        <ele>144.33520507812</ele>
        <time>2011-02-11T13:38:33Z</time>
      </trkpt>
      <trkpt lat="48.98098" lon="0.95188">
        <ele>143.85437011719</ele>
        <time>2011-02-11T13:38:35Z</time>
      </trkpt>
      <trkpt lat="48.98107" lon="0.95195">
        <ele>148.18041992188</ele>
        <time>2011-02-11T13:38:37Z</time>
      </trkpt>
      <trkpt lat="48.98111" lon="0.95198">
        <ele>145.77709960938</ele>
        <time>2011-02-11T13:38:38Z</time>
      </trkpt>
      <trkpt lat="48.98198" lon="0.95255">
        <ele>148.66101074219</ele>
        <time>2011-02-11T13:38:55Z</time>
      </trkpt>
      <trkpt lat="48.98208" lon="0.95262">
        <ele>144.81579589844</ele>
        <time>2011-02-11T13:38:57Z</time>
      </trkpt>
      <trkpt lat="48.98212" lon="0.95265">
        <ele>150.10302734375</ele>
        <time>2011-02-11T13:38:58Z</time>
      </trkpt>
      <trkpt lat="48.98217" lon="0.95268">
        <ele>146.73840332031</ele>
        <time>2011-02-11T13:38:59Z</time>
      </trkpt>
      <trkpt lat="48.98228" lon="0.95277">
        <ele>150.10302734375</ele>
        <time>2011-02-11T13:39:02Z</time>
      </trkpt>
      <trkpt lat="48.98239" lon="0.95286">
        <ele>146.2578125</ele>
        <time>2011-02-11T13:39:05Z</time>
      </trkpt>
      <trkpt lat="48.98242" lon="0.95289">
        <ele>151.06420898438</ele>
        <time>2011-02-11T13:39:06Z</time>
      </trkpt>
      <trkpt lat="48.98246" lon="0.95292">
        <ele>145.29638671875</ele>
        <time>2011-02-11T13:39:07Z</time>
      </trkpt>
      <trkpt lat="48.98249" lon="0.95295">
        <ele>151.06420898438</ele>
        <time>2011-02-11T13:39:08Z</time>
      </trkpt>
      <trkpt lat="48.98259" lon="0.95305">
        <ele>147.69970703125</ele>
        <time>2011-02-11T13:39:11Z</time>
      </trkpt>
      <trkpt lat="48.98265" lon="0.95311">
        <ele>151.06420898438</ele>
        <time>2011-02-11T13:39:13Z</time>
      </trkpt>
      <trkpt lat="48.98268" lon="0.95314">
        <ele>146.73840332031</ele>
        <time>2011-02-11T13:39:14Z</time>
      </trkpt>
      <trkpt lat="48.9827" lon="0.95317">
        <ele>150.10302734375</ele>
        <time>2011-02-11T13:39:15Z</time>
      </trkpt>
      <trkpt lat="48.98281" lon="0.95329">
        <ele>153.94836425781</ele>
        <time>2011-02-11T13:39:19Z</time>
      </trkpt>
      <trkpt lat="48.98284" lon="0.95333">
        <ele>149.1416015625</ele>
        <time>2011-02-11T13:39:20Z</time>
      </trkpt>
      <trkpt lat="48.9829" lon="0.95341">
        <ele>152.50634765625</ele>
        <time>2011-02-11T13:39:22Z</time>
      </trkpt>
      <trkpt lat="48.98293" lon="0.95345">
        <ele>148.66101074219</ele>
        <time>2011-02-11T13:39:23Z</time>
      </trkpt>
      <trkpt lat="48.98296" lon="0.9535">
        <ele>152.02575683594</ele>
        <time>2011-02-11T13:39:24Z</time>
      </trkpt>
      <trkpt lat="48.98328" lon="0.954">
        <ele>148.18041992188</ele>
        <time>2011-02-11T13:39:33Z</time>
      </trkpt>
      <trkpt lat="48.98332" lon="0.95406">
        <ele>152.50634765625</ele>
        <time>2011-02-11T13:39:34Z</time>
      </trkpt>
      <trkpt lat="48.98335" lon="0.95413">
        <ele>152.02575683594</ele>
        <time>2011-02-11T13:39:35Z</time>
      </trkpt>
      <trkpt lat="48.98353" lon="0.95448">
        <ele>149.1416015625</ele>
        <time>2011-02-11T13:39:40Z</time>
      </trkpt>
      <trkpt lat="48.9839" lon="0.95519">
        <ele>153.94836425781</ele>
        <time>2011-02-11T13:39:50Z</time>
      </trkpt>
      <trkpt lat="48.98394" lon="0.95525">
        <ele>149.62231445312</ele>
        <time>2011-02-11T13:39:51Z</time>
      </trkpt>
      <trkpt lat="48.98398" lon="0.95531">
        <ele>150.10302734375</ele>
        <time>2011-02-11T13:39:52Z</time>
      </trkpt>
      <trkpt lat="48.98408" lon="0.95542">
        <ele>151.544921875</ele>
        <time>2011-02-11T13:39:54Z</time>
      </trkpt>
      <trkpt lat="48.98413" lon="0.95546">
        <ele>151.544921875</ele>
        <time>2011-02-11T13:39:55Z</time>
      </trkpt>
      <trkpt lat="48.98448" lon="0.95551">
        <ele>152.98693847656</ele>
        <time>2011-02-11T13:40:01Z</time>
      </trkpt>
      <trkpt lat="48.98471" lon="0.95542">
        <ele>154.42895507812</ele>
        <time>2011-02-11T13:40:05Z</time>
      </trkpt>
      <trkpt lat="48.98477" lon="0.9554">
        <ele>153.94836425781</ele>
        <time>2011-02-11T13:40:06Z</time>
      </trkpt>
      <trkpt lat="48.98484" lon="0.95539">
        <ele>150.58361816406</ele>
        <time>2011-02-11T13:40:07Z</time>
      </trkpt>
      <trkpt lat="48.9849" lon="0.95537">
        <ele>152.50634765625</ele>
        <time>2011-02-11T13:40:08Z</time>
      </trkpt>
      <trkpt lat="48.98551" lon="0.95538">
        <ele>155.39025878906</ele>
        <time>2011-02-11T13:40:18Z</time>
      </trkpt>
      <trkpt lat="48.98557" lon="0.9554">
        <ele>154.42895507812</ele>
        <time>2011-02-11T13:40:19Z</time>
      </trkpt>
      <trkpt lat="48.98569" lon="0.95544">
        <ele>153.46765136719</ele>
        <time>2011-02-11T13:40:21Z</time>
      </trkpt>
      <trkpt lat="48.98621" lon="0.95572">
        <ele>152.98693847656</ele>
        <time>2011-02-11T13:40:30Z</time>
      </trkpt>
      <trkpt lat="48.98712" lon="0.95627">
        <ele>149.1416015625</ele>
        <time>2011-02-11T13:40:44Z</time>
      </trkpt>
      <trkpt lat="48.98719" lon="0.95631">
        <ele>152.50634765625</ele>
        <time>2011-02-11T13:40:45Z</time>
      </trkpt>
      <trkpt lat="48.98726" lon="0.95635">
        <ele>148.18041992188</ele>
        <time>2011-02-11T13:40:46Z</time>
      </trkpt>
      <trkpt lat="48.98741" lon="0.95643">
        <ele>152.98693847656</ele>
        <time>2011-02-11T13:40:48Z</time>
      </trkpt>
      <trkpt lat="48.98748" lon="0.95647">
        <ele>152.02575683594</ele>
        <time>2011-02-11T13:40:49Z</time>
      </trkpt>
      <trkpt lat="48.9877" lon="0.9566">
        <ele>148.18041992188</ele>
        <time>2011-02-11T13:40:52Z</time>
      </trkpt>
      <trkpt lat="48.98777" lon="0.95665">
        <ele>149.1416015625</ele>
        <time>2011-02-11T13:40:53Z</time>
      </trkpt>
      <trkpt lat="48.98792" lon="0.95673">
        <ele>150.10302734375</ele>
        <time>2011-02-11T13:40:55Z</time>
      </trkpt>
      <trkpt lat="48.988" lon="0.95677">
        <ele>152.98693847656</ele>
        <time>2011-02-11T13:40:56Z</time>
      </trkpt>
      <trkpt lat="48.98815" lon="0.95686">
        <ele>148.66101074219</ele>
        <time>2011-02-11T13:40:58Z</time>
      </trkpt>
      <trkpt lat="48.98822" lon="0.9569">
        <ele>148.66101074219</ele>
        <time>2011-02-11T13:40:59Z</time>
      </trkpt>
      <trkpt lat="48.98975" lon="0.95779">
        <ele>148.66101074219</ele>
        <time>2011-02-11T13:41:20Z</time>
      </trkpt>
      <trkpt lat="48.99081" lon="0.95835">
        <ele>149.1416015625</ele>
        <time>2011-02-11T13:41:34Z</time>
      </trkpt>
      <trkpt lat="48.99096" lon="0.95843">
        <ele>145.29638671875</ele>
        <time>2011-02-11T13:41:36Z</time>
      </trkpt>
      <trkpt lat="48.99104" lon="0.95847">
        <ele>145.29638671875</ele>
        <time>2011-02-11T13:41:37Z</time>
      </trkpt>
      <trkpt lat="48.99119" lon="0.95855">
        <ele>147.69970703125</ele>
        <time>2011-02-11T13:41:39Z</time>
      </trkpt>
      <trkpt lat="48.99203" lon="0.95898">
        <ele>146.73840332031</ele>
        <time>2011-02-11T13:41:50Z</time>
      </trkpt>
      <trkpt lat="48.99327" lon="0.95961">
        <ele>147.69970703125</ele>
        <time>2011-02-11T13:42:06Z</time>
      </trkpt>
      <trkpt lat="48.99342" lon="0.95968">
        <ele>146.73840332031</ele>
        <time>2011-02-11T13:42:08Z</time>
      </trkpt>
      <trkpt lat="48.99357" lon="0.95976">
        <ele>141.93176269531</ele>
        <time>2011-02-11T13:42:10Z</time>
      </trkpt>
      <trkpt lat="48.99364" lon="0.9598">
        <ele>146.2578125</ele>
        <time>2011-02-11T13:42:11Z</time>
      </trkpt>
      <trkpt lat="48.99449" lon="0.96035">
        <ele>149.1416015625</ele>
        <time>2011-02-11T13:42:24Z</time>
      </trkpt>
      <trkpt lat="48.99461" lon="0.96042">
        <ele>148.66101074219</ele>
        <time>2011-02-11T13:42:26Z</time>
      </trkpt>
      <trkpt lat="48.9948" lon="0.9604">
        <ele>149.1416015625</ele>
        <time>2011-02-11T13:42:29Z</time>
      </trkpt>
      <trkpt lat="48.99493" lon="0.96034">
        <ele>148.66101074219</ele>
        <time>2011-02-11T13:42:31Z</time>
      </trkpt>
      <trkpt lat="48.99509" lon="0.9604">
        <ele>151.06420898438</ele>
        <time>2011-02-11T13:42:34Z</time>
      </trkpt>
      <trkpt lat="48.99513" lon="0.96048">
        <ele>145.29638671875</ele>
        <time>2011-02-11T13:42:35Z</time>
      </trkpt>
      <trkpt lat="48.99519" lon="0.96068">
        <ele>146.2578125</ele>
        <time>2011-02-11T13:42:37Z</time>
      </trkpt>
      <trkpt lat="48.99544" lon="0.96128">
        <ele>148.66101074219</ele>
        <time>2011-02-11T13:42:43Z</time>
      </trkpt>
      <trkpt lat="48.99549" lon="0.96138">
        <ele>144.33520507812</ele>
        <time>2011-02-11T13:42:44Z</time>
      </trkpt>
      <trkpt lat="48.99554" lon="0.96148">
        <ele>147.69970703125</ele>
        <time>2011-02-11T13:42:45Z</time>
      </trkpt>
      <trkpt lat="48.99558" lon="0.96159">
        <ele>143.37365722656</ele>
        <time>2011-02-11T13:42:46Z</time>
      </trkpt>
      <trkpt lat="48.99567" lon="0.96179">
        <ele>148.18041992188</ele>
        <time>2011-02-11T13:42:48Z</time>
      </trkpt>
      <trkpt lat="48.99572" lon="0.96189">
        <ele>146.73840332031</ele>
        <time>2011-02-11T13:42:49Z</time>
      </trkpt>
      <trkpt lat="48.9969" lon="0.96465">
        <ele>143.85437011719</ele>
        <time>2011-02-11T13:43:16Z</time>
      </trkpt>
      <trkpt lat="48.99707" lon="0.96508">
        <ele>147.21899414062</ele>
        <time>2011-02-11T13:43:20Z</time>
      </trkpt>
      <trkpt lat="48.99716" lon="0.9653">
        <ele>143.37365722656</ele>
        <time>2011-02-11T13:43:22Z</time>
      </trkpt>
      <trkpt lat="48.99721" lon="0.9654">
        <ele>144.33520507812</ele>
        <time>2011-02-11T13:43:23Z</time>
      </trkpt>
      <trkpt lat="48.99763" lon="0.96635">
        <ele>140.97045898438</ele>
        <time>2011-02-11T13:43:32Z</time>
      </trkpt>
      <trkpt lat="48.99785" lon="0.96672">
        <ele>144.33520507812</ele>
        <time>2011-02-11T13:43:36Z</time>
      </trkpt>
      <trkpt lat="48.99815" lon="0.96715">
        <ele>139.0478515625</ele>
        <time>2011-02-11T13:43:41Z</time>
      </trkpt>
      <trkpt lat="48.99822" lon="0.96723">
        <ele>142.41247558594</ele>
        <time>2011-02-11T13:43:42Z</time>
      </trkpt>
      <trkpt lat="48.99885" lon="0.96786">
        <ele>142.89306640625</ele>
        <time>2011-02-11T13:43:52Z</time>
      </trkpt>
      <trkpt lat="48.99892" lon="0.96841">
        <ele>139.52844238281</ele>
        <time>2011-02-11T13:43:59Z</time>
      </trkpt>
      <trkpt lat="48.99887" lon="0.96849">
        <ele>141.93176269531</ele>
        <time>2011-02-11T13:44:00Z</time>
      </trkpt>
      <trkpt lat="48.99851" lon="0.969">
        <ele>145.29638671875</ele>
        <time>2011-02-11T13:44:09Z</time>
      </trkpt>
      <trkpt lat="48.99858" lon="0.96944">
        <ele>144.81579589844</ele>
        <time>2011-02-11T13:44:17Z</time>
      </trkpt>
      <trkpt lat="48.99869" lon="0.96971">
        <ele>146.73840332031</ele>
        <time>2011-02-11T13:44:22Z</time>
      </trkpt>
      <trkpt lat="48.99876" lon="0.96988">
        <ele>148.18041992188</ele>
        <time>2011-02-11T13:44:25Z</time>
      </trkpt>
      <trkpt lat="48.99879" lon="0.97">
        <ele>146.2578125</ele>
        <time>2011-02-11T13:44:27Z</time>
      </trkpt>
      <trkpt lat="48.99888" lon="0.9703">
        <ele>146.2578125</ele>
        <time>2011-02-11T13:44:32Z</time>
      </trkpt>
      <trkpt lat="48.99896" lon="0.97058">
        <ele>145.29638671875</ele>
        <time>2011-02-11T13:44:37Z</time>
      </trkpt>
      <trkpt lat="48.99906" lon="0.97098">
        <ele>146.2578125</ele>
        <time>2011-02-11T13:44:44Z</time>
      </trkpt>
      <trkpt lat="48.99916" lon="0.97136">
        <ele>141.45104980469</ele>
        <time>2011-02-11T13:44:49Z</time>
      </trkpt>
      <trkpt lat="48.99919" lon="0.97143">
        <ele>147.21899414062</ele>
        <time>2011-02-11T13:44:50Z</time>
      </trkpt>
      <trkpt lat="48.99925" lon="0.97167">
        <ele>141.93176269531</ele>
        <time>2011-02-11T13:44:53Z</time>
      </trkpt>
      <trkpt lat="48.99934" lon="0.97202">
        <ele>144.33520507812</ele>
        <time>2011-02-11T13:44:57Z</time>
      </trkpt>
      <trkpt lat="48.99944" lon="0.97238">
        <ele>141.45104980469</ele>
        <time>2011-02-11T13:45:01Z</time>
      </trkpt>
      <trkpt lat="48.99969" lon="0.9733">
        <ele>137.12524414062</ele>
        <time>2011-02-11T13:45:10Z</time>
      </trkpt>
      <trkpt lat="48.99972" lon="0.97342">
        <ele>138.08654785156</ele>
        <time>2011-02-11T13:45:11Z</time>
      </trkpt>
      <trkpt lat="48.99991" lon="0.97415">
        <ele>134.2412109375</ele>
        <time>2011-02-11T13:45:17Z</time>
      </trkpt>
      <trkpt lat="49.00001" lon="0.9745">
        <ele>138.56726074219</ele>
        <time>2011-02-11T13:45:20Z</time>
      </trkpt>
      <trkpt lat="49.00004" lon="0.97462">
        <ele>133.27990722656</ele>
        <time>2011-02-11T13:45:21Z</time>
      </trkpt>
      <trkpt lat="49.00007" lon="0.97475">
        <ele>135.20251464844</ele>
        <time>2011-02-11T13:45:22Z</time>
      </trkpt>
      <trkpt lat="49.00023" lon="0.97536">
        <ele>131.837890625</ele>
        <time>2011-02-11T13:45:27Z</time>
      </trkpt>
      <trkpt lat="49.00026" lon="0.97548">
        <ele>135.20251464844</ele>
        <time>2011-02-11T13:45:28Z</time>
      </trkpt>
      <trkpt lat="49.00029" lon="0.9756">
        <ele>131.837890625</ele>
        <time>2011-02-11T13:45:29Z</time>
      </trkpt>
      <trkpt lat="49.00038" lon="0.97647">
        <ele>132.31860351562</ele>
        <time>2011-02-11T13:45:36Z</time>
      </trkpt>
      <trkpt lat="49.00055" lon="0.97716">
        <ele>130.87670898438</ele>
        <time>2011-02-11T13:45:42Z</time>
      </trkpt>
      <trkpt lat="49.00062" lon="0.97726">
        <ele>132.79931640625</ele>
        <time>2011-02-11T13:45:43Z</time>
      </trkpt>
      <trkpt lat="49.0009" lon="0.97764">
        <ele>127.99255371094</ele>
        <time>2011-02-11T13:45:47Z</time>
      </trkpt>
      <trkpt lat="49.00135" lon="0.97888">
        <ele>124.62805175781</ele>
        <time>2011-02-11T13:45:57Z</time>
      </trkpt>
      <trkpt lat="49.00186" lon="0.98046">
        <ele>120.78283691406</ele>
        <time>2011-02-11T13:46:09Z</time>
      </trkpt>
      <trkpt lat="49.00191" lon="0.98059">
        <ele>121.744140625</ele>
        <time>2011-02-11T13:46:10Z</time>
      </trkpt>
      <trkpt lat="49.00209" lon="0.98113">
        <ele>116.9375</ele>
        <time>2011-02-11T13:46:14Z</time>
      </trkpt>
      <trkpt lat="49.00213" lon="0.98128">
        <ele>120.30212402344</ele>
        <time>2011-02-11T13:46:15Z</time>
      </trkpt>
      <trkpt lat="49.00217" lon="0.98142">
        <ele>115.01489257812</ele>
        <time>2011-02-11T13:46:16Z</time>
      </trkpt>
      <trkpt lat="49.00228" lon="0.98187">
        <ele>118.37939453125</ele>
        <time>2011-02-11T13:46:19Z</time>
      </trkpt>
      <trkpt lat="49.00236" lon="0.98233">
        <ele>114.05358886719</ele>
        <time>2011-02-11T13:46:22Z</time>
      </trkpt>
      <trkpt lat="49.00238" lon="0.98248">
        <ele>115.01489257812</ele>
        <time>2011-02-11T13:46:23Z</time>
      </trkpt>
      <trkpt lat="49.00264" lon="0.98405">
        <ele>116.45678710938</ele>
        <time>2011-02-11T13:46:34Z</time>
      </trkpt>
      <trkpt lat="49.0027" lon="0.98424">
        <ele>120.78283691406</ele>
        <time>2011-02-11T13:46:36Z</time>
      </trkpt>
      <trkpt lat="49.00274" lon="0.98432">
        <ele>120.30212402344</ele>
        <time>2011-02-11T13:46:37Z</time>
      </trkpt>
      <trkpt lat="49.00285" lon="0.98452">
        <ele>123.18615722656</ele>
        <time>2011-02-11T13:46:41Z</time>
      </trkpt>
      <trkpt lat="49.00291" lon="0.98472">
        <ele>125.10876464844</ele>
        <time>2011-02-11T13:46:45Z</time>
      </trkpt>
      <trkpt lat="49.00292" lon="0.98476">
        <ele>122.70544433594</ele>
        <time>2011-02-11T13:46:46Z</time>
      </trkpt>
      <trkpt lat="49.00298" lon="0.98515">
        <ele>127.03137207031</ele>
        <time>2011-02-11T13:46:54Z</time>
      </trkpt>
      <trkpt lat="49.00304" lon="0.98551">
        <ele>126.55065917969</ele>
        <time>2011-02-11T13:47:04Z</time>
      </trkpt>
      <trkpt lat="49.00305" lon="0.98558">
        <ele>128.47338867188</ele>
        <time>2011-02-11T13:47:06Z</time>
      </trkpt>
      <trkpt lat="49.00308" lon="0.98576">
        <ele>128.9541015625</ele>
        <time>2011-02-11T13:47:11Z</time>
      </trkpt>
      <trkpt lat="49.00309" lon="0.98631">
        <ele>130.87670898438</ele>
        <time>2011-02-11T13:47:22Z</time>
      </trkpt>
      <trkpt lat="49.00309" lon="0.98641">
        <ele>131.837890625</ele>
        <time>2011-02-11T13:47:24Z</time>
      </trkpt>
      <trkpt lat="49.00308" lon="0.98651">
        <ele>131.35729980469</ele>
        <time>2011-02-11T13:47:26Z</time>
      </trkpt>
      <trkpt lat="49.00307" lon="0.98679">
        <ele>129.43469238281</ele>
        <time>2011-02-11T13:47:31Z</time>
      </trkpt>
      <trkpt lat="49.00308" lon="0.98731">
        <ele>132.79931640625</ele>
        <time>2011-02-11T13:47:41Z</time>
      </trkpt>
      <trkpt lat="49.00309" lon="0.98755">
        <ele>130.87670898438</ele>
        <time>2011-02-11T13:47:46Z</time>
      </trkpt>
      <trkpt lat="49.00321" lon="0.988">
        <ele>130.87670898438</ele>
        <time>2011-02-11T13:47:55Z</time>
      </trkpt>
      <trkpt lat="49.00325" lon="0.98816">
        <ele>130.87670898438</ele>
        <time>2011-02-11T13:47:58Z</time>
      </trkpt>
      <trkpt lat="49.00326" lon="0.98851">
        <ele>134.2412109375</ele>
        <time>2011-02-11T13:48:04Z</time>
      </trkpt>
      <trkpt lat="49.00328" lon="0.98873">
        <ele>133.27990722656</ele>
        <time>2011-02-11T13:48:08Z</time>
      </trkpt>
      <trkpt lat="49.00327" lon="0.98883">
        <ele>133.27990722656</ele>
        <time>2011-02-11T13:48:10Z</time>
      </trkpt>
      <trkpt lat="49.00335" lon="0.98942">
        <ele>131.35729980469</ele>
        <time>2011-02-11T13:48:20Z</time>
      </trkpt>
      <trkpt lat="49.00336" lon="0.98946">
        <ele>135.20251464844</ele>
        <time>2011-02-11T13:48:21Z</time>
      </trkpt>
      <trkpt lat="49.00339" lon="0.98994">
        <ele>134.2412109375</ele>
        <time>2011-02-11T13:48:30Z</time>
      </trkpt>
      <trkpt lat="49.00337" lon="0.99006">
        <ele>138.56726074219</ele>
        <time>2011-02-11T13:48:33Z</time>
      </trkpt>
      <trkpt lat="49.00336" lon="0.9901">
        <ele>136.16394042969</ele>
        <time>2011-02-11T13:48:34Z</time>
      </trkpt>
      <trkpt lat="49.00329" lon="0.99083">
        <ele>138.08654785156</ele>
        <time>2011-02-11T13:48:47Z</time>
      </trkpt>
      <trkpt lat="49.00332" lon="0.9912">
        <ele>137.60583496094</ele>
        <time>2011-02-11T13:48:52Z</time>
      </trkpt>
      <trkpt lat="49.00335" lon="0.99152">
        <ele>133.76049804688</ele>
        <time>2011-02-11T13:48:57Z</time>
      </trkpt>
      <trkpt lat="49.00339" lon="0.99174">
        <ele>138.56726074219</ele>
        <time>2011-02-11T13:49:00Z</time>
      </trkpt>
      <trkpt lat="49.0034" lon="0.99183">
        <ele>135.20251464844</ele>
        <time>2011-02-11T13:49:01Z</time>
      </trkpt>
      <trkpt lat="49.0034" lon="0.99191">
        <ele>135.20251464844</ele>
        <time>2011-02-11T13:49:02Z</time>
      </trkpt>
      <trkpt lat="49.00341" lon="0.99207">
        <ele>138.56726074219</ele>
        <time>2011-02-11T13:49:04Z</time>
      </trkpt>
      <trkpt lat="49.00341" lon="0.99215">
        <ele>137.60583496094</ele>
        <time>2011-02-11T13:49:05Z</time>
      </trkpt>
      <trkpt lat="49.00337" lon="0.99278">
        <ele>134.72192382812</ele>
        <time>2011-02-11T13:49:13Z</time>
      </trkpt>
      <trkpt lat="49.00336" lon="0.99312">
        <ele>138.08654785156</ele>
        <time>2011-02-11T13:49:18Z</time>
      </trkpt>
      <trkpt lat="49.0033" lon="0.99401">
        <ele>141.45104980469</ele>
        <time>2011-02-11T13:49:32Z</time>
      </trkpt>
      <trkpt lat="49.00334" lon="0.99477">
        <ele>141.93176269531</ele>
        <time>2011-02-11T13:49:44Z</time>
      </trkpt>
      <trkpt lat="49.00334" lon="0.9949">
        <ele>139.52844238281</ele>
        <time>2011-02-11T13:49:46Z</time>
      </trkpt>
      <trkpt lat="49.00336" lon="0.99526">
        <ele>142.89306640625</ele>
        <time>2011-02-11T13:49:52Z</time>
      </trkpt>
      <trkpt lat="49.00336" lon="0.99539">
        <ele>140.97045898438</ele>
        <time>2011-02-11T13:49:54Z</time>
      </trkpt>
      <trkpt lat="49.00337" lon="0.99557">
        <ele>143.37365722656</ele>
        <time>2011-02-11T13:49:57Z</time>
      </trkpt>
      <trkpt lat="49.00337" lon="0.99571">
        <ele>141.93176269531</ele>
        <time>2011-02-11T13:49:59Z</time>
      </trkpt>
      <trkpt lat="49.00334" lon="0.99596">
        <ele>140.48986816406</ele>
        <time>2011-02-11T13:50:03Z</time>
      </trkpt>
      <trkpt lat="49.00329" lon="0.9962">
        <ele>140.00915527344</ele>
        <time>2011-02-11T13:50:07Z</time>
      </trkpt>
      <trkpt lat="49.00307" lon="0.99635">
        <ele>140.00915527344</ele>
        <time>2011-02-11T13:50:14Z</time>
      </trkpt>
      <trkpt lat="49.00276" lon="0.99645">
        <ele>143.37365722656</ele>
        <time>2011-02-11T13:50:24Z</time>
      </trkpt>
      <trkpt lat="49.0027" lon="0.99645">
        <ele>139.52844238281</ele>
        <time>2011-02-11T13:50:26Z</time>
      </trkpt>
      <trkpt lat="49.00267" lon="0.99645">
        <ele>140.00915527344</ele>
        <time>2011-02-11T13:50:27Z</time>
      </trkpt>
      <trkpt lat="49.00242" lon="0.99631">
        <ele>143.85437011719</ele>
        <time>2011-02-11T13:50:37Z</time>
      </trkpt>
      <trkpt lat="49.00225" lon="0.99619">
        <ele>140.48986816406</ele>
        <time>2011-02-11T13:50:41Z</time>
      </trkpt>
      <trkpt lat="49.00211" lon="0.99608">
        <ele>138.56726074219</ele>
        <time>2011-02-11T13:50:44Z</time>
      </trkpt>
      <trkpt lat="49.00173" lon="0.99575">
        <ele>134.72192382812</ele>
        <time>2011-02-11T13:50:51Z</time>
      </trkpt>
      <trkpt lat="49.00153" lon="0.99559">
        <ele>136.16394042969</ele>
        <time>2011-02-11T13:50:54Z</time>
      </trkpt>
      <trkpt lat="49.00055" lon="0.99497">
        <ele>137.60583496094</ele>
        <time>2011-02-11T13:51:11Z</time>
      </trkpt>
      <trkpt lat="49.00043" lon="0.99492">
        <ele>139.52844238281</ele>
        <time>2011-02-11T13:51:14Z</time>
      </trkpt>
      <trkpt lat="49.00035" lon="0.99491">
        <ele>138.56726074219</ele>
        <time>2011-02-11T13:51:16Z</time>
      </trkpt>
      <trkpt lat="49.00023" lon="0.99494">
        <ele>140.48986816406</ele>
        <time>2011-02-11T13:51:19Z</time>
      </trkpt>
      <trkpt lat="49.00015" lon="0.99498">
        <ele>138.56726074219</ele>
        <time>2011-02-11T13:51:21Z</time>
      </trkpt>
      <trkpt lat="48.99978" lon="0.99517">
        <ele>142.41247558594</ele>
        <time>2011-02-11T13:51:30Z</time>
      </trkpt>
      <trkpt lat="48.99974" lon="0.99519">
        <ele>138.56726074219</ele>
        <time>2011-02-11T13:51:31Z</time>
      </trkpt>
      <trkpt lat="48.99959" lon="0.99525">
        <ele>140.48986816406</ele>
        <time>2011-02-11T13:51:35Z</time>
      </trkpt>
      <trkpt lat="48.99944" lon="0.99533">
        <ele>140.97045898438</ele>
        <time>2011-02-11T13:51:39Z</time>
      </trkpt>
      <trkpt lat="48.99933" lon="0.99538">
        <ele>142.41247558594</ele>
        <time>2011-02-11T13:51:42Z</time>
      </trkpt>
      <trkpt lat="48.99887" lon="0.99556">
        <ele>139.0478515625</ele>
        <time>2011-02-11T13:51:50Z</time>
      </trkpt>
      <trkpt lat="48.99831" lon="0.9958">
        <ele>142.41247558594</ele>
        <time>2011-02-11T13:52:01Z</time>
      </trkpt>
      <trkpt lat="48.99814" lon="0.99588">
        <ele>141.45104980469</ele>
        <time>2011-02-11T13:52:05Z</time>
      </trkpt>
      <trkpt lat="48.99802" lon="0.99593">
        <ele>140.00915527344</ele>
        <time>2011-02-11T13:52:08Z</time>
      </trkpt>
      <trkpt lat="48.99755" lon="0.99614">
        <ele>140.97045898438</ele>
        <time>2011-02-11T13:52:19Z</time>
      </trkpt>
      <trkpt lat="48.99722" lon="0.99629">
        <ele>144.33520507812</ele>
        <time>2011-02-11T13:52:26Z</time>
      </trkpt>
      <trkpt lat="48.99717" lon="0.99631">
        <ele>143.37365722656</ele>
        <time>2011-02-11T13:52:27Z</time>
      </trkpt>
      <trkpt lat="48.99713" lon="0.99632">
        <ele>139.0478515625</ele>
        <time>2011-02-11T13:52:28Z</time>
      </trkpt>
      <trkpt lat="48.99708" lon="0.99634">
        <ele>142.41247558594</ele>
        <time>2011-02-11T13:52:29Z</time>
      </trkpt>
      <trkpt lat="48.99704" lon="0.99635">
        <ele>143.37365722656</ele>
        <time>2011-02-11T13:52:30Z</time>
      </trkpt>
      <trkpt lat="48.99684" lon="0.99644">
        <ele>141.45104980469</ele>
        <time>2011-02-11T13:52:35Z</time>
      </trkpt>
      <trkpt lat="48.99669" lon="0.99649">
        <ele>140.00915527344</ele>
        <time>2011-02-11T13:52:38Z</time>
      </trkpt>
      <trkpt lat="48.99658" lon="0.99653">
        <ele>142.41247558594</ele>
        <time>2011-02-11T13:52:40Z</time>
      </trkpt>
      <trkpt lat="48.99653" lon="0.99656">
        <ele>139.52844238281</ele>
        <time>2011-02-11T13:52:41Z</time>
      </trkpt>
      <trkpt lat="48.99648" lon="0.99658">
        <ele>139.52844238281</ele>
        <time>2011-02-11T13:52:42Z</time>
      </trkpt>
      <trkpt lat="48.99632" lon="0.99662">
        <ele>140.97045898438</ele>
        <time>2011-02-11T13:52:45Z</time>
      </trkpt>
      <trkpt lat="48.9961" lon="0.99668">
        <ele>139.0478515625</ele>
        <time>2011-02-11T13:52:49Z</time>
      </trkpt>
      <trkpt lat="48.9959" lon="0.99688">
        <ele>139.0478515625</ele>
        <time>2011-02-11T13:52:54Z</time>
      </trkpt>
      <trkpt lat="48.99583" lon="0.997">
        <ele>140.48986816406</ele>
        <time>2011-02-11T13:52:56Z</time>
      </trkpt>
      <trkpt lat="48.99572" lon="0.99721">
        <ele>140.48986816406</ele>
        <time>2011-02-11T13:52:59Z</time>
      </trkpt>
      <trkpt lat="48.99569" lon="0.99748">
        <ele>137.60583496094</ele>
        <time>2011-02-11T13:53:03Z</time>
      </trkpt>
      <trkpt lat="48.99565" lon="0.99768">
        <ele>140.48986816406</ele>
        <time>2011-02-11T13:53:06Z</time>
      </trkpt>
      <trkpt lat="48.99558" lon="0.99803">
        <ele>143.85437011719</ele>
        <time>2011-02-11T13:53:11Z</time>
      </trkpt>
      <trkpt lat="48.99557" lon="0.9981">
        <ele>138.56726074219</ele>
        <time>2011-02-11T13:53:12Z</time>
      </trkpt>
      <trkpt lat="48.99553" lon="0.99826">
        <ele>141.93176269531</ele>
        <time>2011-02-11T13:53:14Z</time>
      </trkpt>
      <trkpt lat="48.99536" lon="0.99905">
        <ele>141.93176269531</ele>
        <time>2011-02-11T13:53:24Z</time>
      </trkpt>
      <trkpt lat="48.99523" lon="0.99972">
        <ele>144.81579589844</ele>
        <time>2011-02-11T13:53:34Z</time>
      </trkpt>
      <trkpt lat="48.99521" lon="0.99985">
        <ele>141.93176269531</ele>
        <time>2011-02-11T13:53:36Z</time>
      </trkpt>
      <trkpt lat="48.9952" lon="0.99991">
        <ele>142.41247558594</ele>
        <time>2011-02-11T13:53:37Z</time>
      </trkpt>
      <trkpt lat="48.99514" lon="1.0002">
        <ele>144.33520507812</ele>
        <time>2011-02-11T13:53:41Z</time>
      </trkpt>
      <trkpt lat="48.9951" lon="1.00041">
        <ele>141.93176269531</ele>
        <time>2011-02-11T13:53:44Z</time>
      </trkpt>
      <trkpt lat="48.99506" lon="1.00057">
        <ele>141.45104980469</ele>
        <time>2011-02-11T13:53:46Z</time>
      </trkpt>
      <trkpt lat="48.99478" lon="1.00173">
        <ele>146.2578125</ele>
        <time>2011-02-11T13:54:04Z</time>
      </trkpt>
      <trkpt lat="48.99464" lon="1.00234">
        <ele>143.37365722656</ele>
        <time>2011-02-11T13:54:14Z</time>
      </trkpt>
      <trkpt lat="48.99462" lon="1.0024">
        <ele>143.37365722656</ele>
        <time>2011-02-11T13:54:15Z</time>
      </trkpt>
      <trkpt lat="48.99461" lon="1.00247">
        <ele>146.73840332031</ele>
        <time>2011-02-11T13:54:16Z</time>
      </trkpt>
      <trkpt lat="48.9946" lon="1.00254">
        <ele>144.33520507812</ele>
        <time>2011-02-11T13:54:17Z</time>
      </trkpt>
      <trkpt lat="48.9943" lon="1.00383">
        <ele>143.85437011719</ele>
        <time>2011-02-11T13:54:34Z</time>
      </trkpt>
      <trkpt lat="48.99417" lon="1.0044">
        <ele>140.00915527344</ele>
        <time>2011-02-11T13:54:41Z</time>
      </trkpt>
      <trkpt lat="48.99416" lon="1.00449">
        <ele>143.37365722656</ele>
        <time>2011-02-11T13:54:42Z</time>
      </trkpt>
      <trkpt lat="48.99406" lon="1.00495">
        <ele>137.60583496094</ele>
        <time>2011-02-11T13:54:47Z</time>
      </trkpt>
      <trkpt lat="48.99396" lon="1.00537">
        <ele>136.64465332031</ele>
        <time>2011-02-11T13:54:51Z</time>
      </trkpt>
      <trkpt lat="48.99394" lon="1.00547">
        <ele>140.00915527344</ele>
        <time>2011-02-11T13:54:52Z</time>
      </trkpt>
      <trkpt lat="48.99391" lon="1.00559">
        <ele>136.16394042969</ele>
        <time>2011-02-11T13:54:53Z</time>
      </trkpt>
      <trkpt lat="48.99386" lon="1.00581">
        <ele>135.20251464844</ele>
        <time>2011-02-11T13:54:55Z</time>
      </trkpt>
      <trkpt lat="48.99376" lon="1.00627">
        <ele>134.2412109375</ele>
        <time>2011-02-11T13:54:59Z</time>
      </trkpt>
      <trkpt lat="48.99362" lon="1.00679">
        <ele>130.87670898438</ele>
        <time>2011-02-11T13:55:03Z</time>
      </trkpt>
      <trkpt lat="48.99355" lon="1.00716">
        <ele>133.27990722656</ele>
        <time>2011-02-11T13:55:06Z</time>
      </trkpt>
      <trkpt lat="48.99353" lon="1.00729">
        <ele>128.47338867188</ele>
        <time>2011-02-11T13:55:07Z</time>
      </trkpt>
      <trkpt lat="48.99348" lon="1.00766">
        <ele>128.47338867188</ele>
        <time>2011-02-11T13:55:10Z</time>
      </trkpt>
      <trkpt lat="48.99298" lon="1.00848">
        <ele>127.03137207031</ele>
        <time>2011-02-11T13:55:20Z</time>
      </trkpt>
      <trkpt lat="48.99287" lon="1.00863">
        <ele>128.47338867188</ele>
        <time>2011-02-11T13:55:22Z</time>
      </trkpt>
      <trkpt lat="48.9923" lon="1.00939">
        <ele>122.70544433594</ele>
        <time>2011-02-11T13:55:34Z</time>
      </trkpt>
      <trkpt lat="48.99226" lon="1.00943">
        <ele>119.82141113281</ele>
        <time>2011-02-11T13:55:36Z</time>
      </trkpt>
      <trkpt lat="48.99212" lon="1.00953">
        <ele>119.3408203125</ele>
        <time>2011-02-11T13:55:41Z</time>
      </trkpt>
      <trkpt lat="48.99179" lon="1.00969">
        <ele>120.30212402344</ele>
        <time>2011-02-11T13:55:47Z</time>
      </trkpt>
      <trkpt lat="48.9914" lon="1.01007">
        <ele>115.01489257812</ele>
        <time>2011-02-11T13:55:54Z</time>
      </trkpt>
      <trkpt lat="48.99134" lon="1.01015">
        <ele>115.97619628906</ele>
        <time>2011-02-11T13:55:55Z</time>
      </trkpt>
      <trkpt lat="48.99113" lon="1.01046">
        <ele>109.72766113281</ele>
        <time>2011-02-11T13:55:58Z</time>
      </trkpt>
      <trkpt lat="48.99106" lon="1.01059">
        <ele>109.72766113281</ele>
        <time>2011-02-11T13:55:59Z</time>
      </trkpt>
      <trkpt lat="48.99095" lon="1.01081">
        <ele>109.72766113281</ele>
        <time>2011-02-11T13:56:01Z</time>
      </trkpt>
      <trkpt lat="48.99081" lon="1.011">
        <ele>107.80505371094</ele>
        <time>2011-02-11T13:56:03Z</time>
      </trkpt>
      <trkpt lat="48.99073" lon="1.01108">
        <ele>102.51770019531</ele>
        <time>2011-02-11T13:56:04Z</time>
      </trkpt>
      <trkpt lat="48.99064" lon="1.01115">
        <ele>102.037109375</ele>
        <time>2011-02-11T13:56:05Z</time>
      </trkpt>
      <trkpt lat="48.99035" lon="1.01124">
        <ele>94.8271484375</ele>
        <time>2011-02-11T13:56:08Z</time>
      </trkpt>
      <trkpt lat="48.99024" lon="1.01125">
        <ele>95.788452148438</ele>
        <time>2011-02-11T13:56:09Z</time>
      </trkpt>
      <trkpt lat="48.98999" lon="1.0113">
        <ele>97.23046875</ele>
        <time>2011-02-11T13:56:11Z</time>
      </trkpt>
      <trkpt lat="48.98961" lon="1.01155">
        <ele>93.865844726562</ele>
        <time>2011-02-11T13:56:15Z</time>
      </trkpt>
      <trkpt lat="48.98953" lon="1.01163">
        <ele>94.346557617188</ele>
        <time>2011-02-11T13:56:16Z</time>
      </trkpt>
      <trkpt lat="48.98938" lon="1.0118">
        <ele>97.711181640625</ele>
        <time>2011-02-11T13:56:18Z</time>
      </trkpt>
      <trkpt lat="48.98926" lon="1.01196">
        <ele>101.07568359375</ele>
        <time>2011-02-11T13:56:20Z</time>
      </trkpt>
      <trkpt lat="48.98921" lon="1.01203">
        <ele>100.59509277344</ele>
        <time>2011-02-11T13:56:21Z</time>
      </trkpt>
      <trkpt lat="48.98916" lon="1.01208">
        <ele>96.749877929688</ele>
        <time>2011-02-11T13:56:22Z</time>
      </trkpt>
      <trkpt lat="48.98912" lon="1.01214">
        <ele>99.6337890625</ele>
        <time>2011-02-11T13:56:23Z</time>
      </trkpt>
      <trkpt lat="48.98898" lon="1.01229">
        <ele>105.40173339844</ele>
        <time>2011-02-11T13:56:26Z</time>
      </trkpt>
      <trkpt lat="48.98894" lon="1.01234">
        <ele>101.55639648438</ele>
        <time>2011-02-11T13:56:27Z</time>
      </trkpt>
      <trkpt lat="48.98886" lon="1.01243">
        <ele>104.4404296875</ele>
        <time>2011-02-11T13:56:29Z</time>
      </trkpt>
      <trkpt lat="48.98827" lon="1.01313">
        <ele>105.88244628906</ele>
        <time>2011-02-11T13:56:47Z</time>
      </trkpt>
      <trkpt lat="48.98817" lon="1.01324">
        <ele>101.55639648438</ele>
        <time>2011-02-11T13:56:50Z</time>
      </trkpt>
      <trkpt lat="48.98811" lon="1.01331">
        <ele>107.80505371094</ele>
        <time>2011-02-11T13:56:52Z</time>
      </trkpt>
      <trkpt lat="48.98808" lon="1.01335">
        <ele>107.32434082031</ele>
        <time>2011-02-11T13:56:53Z</time>
      </trkpt>
      <trkpt lat="48.98798" lon="1.01347">
        <ele>102.99829101562</ele>
        <time>2011-02-11T13:56:56Z</time>
      </trkpt>
      <trkpt lat="48.98741" lon="1.01415">
        <ele>103.47900390625</ele>
        <time>2011-02-11T13:57:10Z</time>
      </trkpt>
      <trkpt lat="48.98718" lon="1.01442">
        <ele>101.55639648438</ele>
        <time>2011-02-11T13:57:15Z</time>
      </trkpt>
      <trkpt lat="48.98676" lon="1.01492">
        <ele>98.19189453125</ele>
        <time>2011-02-11T13:57:24Z</time>
      </trkpt>
      <trkpt lat="48.98651" lon="1.01521">
        <ele>97.711181640625</ele>
        <time>2011-02-11T13:57:29Z</time>
      </trkpt>
      <trkpt lat="48.98637" lon="1.01539">
        <ele>94.346557617188</ele>
        <time>2011-02-11T13:57:32Z</time>
      </trkpt>
      <trkpt lat="48.98632" lon="1.01545">
        <ele>97.711181640625</ele>
        <time>2011-02-11T13:57:33Z</time>
      </trkpt>
      <trkpt lat="48.98622" lon="1.01557">
        <ele>98.672485351562</ele>
        <time>2011-02-11T13:57:35Z</time>
      </trkpt>
      <trkpt lat="48.98601" lon="1.01581">
        <ele>94.346557617188</ele>
        <time>2011-02-11T13:57:39Z</time>
      </trkpt>
      <trkpt lat="48.9859" lon="1.01594">
        <ele>92.904541015625</ele>
        <time>2011-02-11T13:57:41Z</time>
      </trkpt>
      <trkpt lat="48.98579" lon="1.01608">
        <ele>97.711181640625</ele>
        <time>2011-02-11T13:57:43Z</time>
      </trkpt>
      <trkpt lat="48.98573" lon="1.01614">
        <ele>93.385131835938</ele>
        <time>2011-02-11T13:57:44Z</time>
      </trkpt>
      <trkpt lat="48.98539" lon="1.01655">
        <ele>90.020629882812</ele>
        <time>2011-02-11T13:57:50Z</time>
      </trkpt>
      <trkpt lat="48.98502" lon="1.01698">
        <ele>92.904541015625</ele>
        <time>2011-02-11T13:57:57Z</time>
      </trkpt>
      <trkpt lat="48.98497" lon="1.01703">
        <ele>91.943237304688</ele>
        <time>2011-02-11T13:57:58Z</time>
      </trkpt>
      <trkpt lat="48.98485" lon="1.01717">
        <ele>88.578735351562</ele>
        <time>2011-02-11T13:58:01Z</time>
      </trkpt>
      <trkpt lat="48.98482" lon="1.0172">
        <ele>91.943237304688</ele>
        <time>2011-02-11T13:58:02Z</time>
      </trkpt>
      <trkpt lat="48.98477" lon="1.01723">
        <ele>89.539916992188</ele>
        <time>2011-02-11T13:58:09Z</time>
      </trkpt>
      <trkpt lat="48.98478" lon="1.01722">
        <ele>90.501342773438</ele>
        <time>2011-02-11T13:58:11Z</time>
      </trkpt>
      <trkpt lat="48.98478" lon="1.01722">
        <ele>88.578735351562</ele>
        <time>2011-02-11T13:58:20Z</time>
      </trkpt>
      <trkpt lat="48.98478" lon="1.01722">
        <ele>90.501342773438</ele>
        <time>2011-02-11T13:58:22Z</time>
      </trkpt>
      <trkpt lat="48.98465" lon="1.01736">
        <ele>89.539916992188</ele>
        <time>2011-02-11T13:58:31Z</time>
      </trkpt>
      <trkpt lat="48.98459" lon="1.01745">
        <ele>88.098022460938</ele>
        <time>2011-02-11T13:58:33Z</time>
      </trkpt>
      <trkpt lat="48.98389" lon="1.01828">
        <ele>85.694580078125</ele>
        <time>2011-02-11T13:58:49Z</time>
      </trkpt>
      <trkpt lat="48.98377" lon="1.01843">
        <ele>86.17529296875</ele>
        <time>2011-02-11T13:58:52Z</time>
      </trkpt>
      <trkpt lat="48.98368" lon="1.01878">
        <ele>86.17529296875</ele>
        <time>2011-02-11T13:58:57Z</time>
      </trkpt>
      <trkpt lat="48.98374" lon="1.01918">
        <ele>87.6171875</ele>
        <time>2011-02-11T13:59:02Z</time>
      </trkpt>
      <trkpt lat="48.98377" lon="1.0194">
        <ele>90.501342773438</ele>
        <time>2011-02-11T13:59:05Z</time>
      </trkpt>
      <trkpt lat="48.98377" lon="1.01947">
        <ele>83.77197265625</ele>
        <time>2011-02-11T13:59:06Z</time>
      </trkpt>
      <trkpt lat="48.98377" lon="1.01954">
        <ele>87.6171875</ele>
        <time>2011-02-11T13:59:07Z</time>
      </trkpt>
      <trkpt lat="48.98378" lon="1.02054">
        <ele>86.17529296875</ele>
        <time>2011-02-11T13:59:20Z</time>
      </trkpt>
      <trkpt lat="48.98373" lon="1.021">
        <ele>85.694580078125</ele>
        <time>2011-02-11T13:59:26Z</time>
      </trkpt>
      <trkpt lat="48.98368" lon="1.02171">
        <ele>84.7333984375</ele>
        <time>2011-02-11T13:59:35Z</time>
      </trkpt>
      <trkpt lat="48.98368" lon="1.02235">
        <ele>87.136596679688</ele>
        <time>2011-02-11T13:59:43Z</time>
      </trkpt>
      <trkpt lat="48.98367" lon="1.02251">
        <ele>85.694580078125</ele>
        <time>2011-02-11T13:59:45Z</time>
      </trkpt>
      <trkpt lat="48.98366" lon="1.02268">
        <ele>87.6171875</ele>
        <time>2011-02-11T13:59:47Z</time>
      </trkpt>
      <trkpt lat="48.98366" lon="1.02276">
        <ele>83.291381835938</ele>
        <time>2011-02-11T13:59:48Z</time>
      </trkpt>
      <trkpt lat="48.98366" lon="1.02285">
        <ele>84.252685546875</ele>
        <time>2011-02-11T13:59:49Z</time>
      </trkpt>
      <trkpt lat="48.98366" lon="1.02293">
        <ele>88.098022460938</ele>
        <time>2011-02-11T13:59:50Z</time>
      </trkpt>
      <trkpt lat="48.98372" lon="1.02331">
        <ele>85.694580078125</ele>
        <time>2011-02-11T13:59:55Z</time>
      </trkpt>
      <trkpt lat="48.98374" lon="1.02338">
        <ele>89.059326171875</ele>
        <time>2011-02-11T13:59:56Z</time>
      </trkpt>
      <trkpt lat="48.98376" lon="1.02345">
        <ele>87.6171875</ele>
        <time>2011-02-11T13:59:57Z</time>
      </trkpt>
      <trkpt lat="48.98383" lon="1.02373">
        <ele>85.694580078125</ele>
        <time>2011-02-11T14:00:01Z</time>
      </trkpt>
      <trkpt lat="48.98392" lon="1.02412">
        <ele>82.810791015625</ele>
        <time>2011-02-11T14:00:06Z</time>
      </trkpt>
      <trkpt lat="48.98394" lon="1.0242">
        <ele>86.17529296875</ele>
        <time>2011-02-11T14:00:07Z</time>
      </trkpt>
      <trkpt lat="48.98422" lon="1.0252">
        <ele>82.330078125</ele>
        <time>2011-02-11T14:00:18Z</time>
      </trkpt>
      <trkpt lat="48.98425" lon="1.0253">
        <ele>85.694580078125</ele>
        <time>2011-02-11T14:00:19Z</time>
      </trkpt>
      <trkpt lat="48.98438" lon="1.02579">
        <ele>84.7333984375</ele>
        <time>2011-02-11T14:00:24Z</time>
      </trkpt>
      <trkpt lat="48.98479" lon="1.02695">
        <ele>84.252685546875</ele>
        <time>2011-02-11T14:00:36Z</time>
      </trkpt>
      <trkpt lat="48.9857" lon="1.02899">
        <ele>85.213989257812</ele>
        <time>2011-02-11T14:01:00Z</time>
      </trkpt>
      <trkpt lat="48.98578" lon="1.02916">
        <ele>83.291381835938</ele>
        <time>2011-02-11T14:01:02Z</time>
      </trkpt>
      <trkpt lat="48.98615" lon="1.02993">
        <ele>86.656005859375</ele>
        <time>2011-02-11T14:01:11Z</time>
      </trkpt>
      <trkpt lat="48.9862" lon="1.03001">
        <ele>83.291381835938</ele>
        <time>2011-02-11T14:01:12Z</time>
      </trkpt>
      <trkpt lat="48.98643" lon="1.0304">
        <ele>86.656005859375</ele>
        <time>2011-02-11T14:01:17Z</time>
      </trkpt>
      <trkpt lat="48.98651" lon="1.03056">
        <ele>81.849365234375</ele>
        <time>2011-02-11T14:01:19Z</time>
      </trkpt>
      <trkpt lat="48.98655" lon="1.03064">
        <ele>83.291381835938</ele>
        <time>2011-02-11T14:01:20Z</time>
      </trkpt>
      <trkpt lat="48.98669" lon="1.03087">
        <ele>86.656005859375</ele>
        <time>2011-02-11T14:01:23Z</time>
      </trkpt>
      <trkpt lat="48.98673" lon="1.03095">
        <ele>82.810791015625</ele>
        <time>2011-02-11T14:01:24Z</time>
      </trkpt>
      <trkpt lat="48.98677" lon="1.03103">
        <ele>83.291381835938</ele>
        <time>2011-02-11T14:01:25Z</time>
      </trkpt>
      <trkpt lat="48.98685" lon="1.03129">
        <ele>85.213989257812</ele>
        <time>2011-02-11T14:01:28Z</time>
      </trkpt>
      <trkpt lat="48.98687" lon="1.03138">
        <ele>84.252685546875</ele>
        <time>2011-02-11T14:01:29Z</time>
      </trkpt>
      <trkpt lat="48.98691" lon="1.03168">
        <ele>83.291381835938</ele>
        <time>2011-02-11T14:01:32Z</time>
      </trkpt>
      <trkpt lat="48.98706" lon="1.03208">
        <ele>86.17529296875</ele>
        <time>2011-02-11T14:01:37Z</time>
      </trkpt>
      <trkpt lat="48.98715" lon="1.03223">
        <ele>84.7333984375</ele>
        <time>2011-02-11T14:01:39Z</time>
      </trkpt>
      <trkpt lat="48.98736" lon="1.03247">
        <ele>83.77197265625</ele>
        <time>2011-02-11T14:01:43Z</time>
      </trkpt>
      <trkpt lat="48.98756" lon="1.03257">
        <ele>80.407470703125</ele>
        <time>2011-02-11T14:01:46Z</time>
      </trkpt>
      <trkpt lat="48.98769" lon="1.03264">
        <ele>83.77197265625</ele>
        <time>2011-02-11T14:01:48Z</time>
      </trkpt>
      <trkpt lat="48.98775" lon="1.03267">
        <ele>84.252685546875</ele>
        <time>2011-02-11T14:01:49Z</time>
      </trkpt>
      <trkpt lat="48.98798" lon="1.03291">
        <ele>81.368774414062</ele>
        <time>2011-02-11T14:01:53Z</time>
      </trkpt>
      <trkpt lat="48.98803" lon="1.03298">
        <ele>81.368774414062</ele>
        <time>2011-02-11T14:01:54Z</time>
      </trkpt>
      <trkpt lat="48.98813" lon="1.03312">
        <ele>83.291381835938</ele>
        <time>2011-02-11T14:01:56Z</time>
      </trkpt>
      <trkpt lat="48.98881" lon="1.034">
        <ele>79.926635742188</ele>
        <time>2011-02-11T14:02:09Z</time>
      </trkpt>
      <trkpt lat="48.98899" lon="1.03429">
        <ele>82.330078125</ele>
        <time>2011-02-11T14:02:13Z</time>
      </trkpt>
      <trkpt lat="48.9892" lon="1.03467">
        <ele>82.330078125</ele>
        <time>2011-02-11T14:02:18Z</time>
      </trkpt>
      <trkpt lat="48.98931" lon="1.03491">
        <ele>83.77197265625</ele>
        <time>2011-02-11T14:02:21Z</time>
      </trkpt>
      <trkpt lat="48.98934" lon="1.03499">
        <ele>80.407470703125</ele>
        <time>2011-02-11T14:02:22Z</time>
      </trkpt>
      <trkpt lat="48.98945" lon="1.03534">
        <ele>81.368774414062</ele>
        <time>2011-02-11T14:02:26Z</time>
      </trkpt>
      <trkpt lat="48.98958" lon="1.03565">
        <ele>80.88818359375</ele>
        <time>2011-02-11T14:02:30Z</time>
      </trkpt>
      <trkpt lat="48.98983" lon="1.03608">
        <ele>82.810791015625</ele>
        <time>2011-02-11T14:02:37Z</time>
      </trkpt>
      <trkpt lat="48.99006" lon="1.03643">
        <ele>79.926635742188</ele>
        <time>2011-02-11T14:02:43Z</time>
      </trkpt>
      <trkpt lat="48.9901" lon="1.03649">
        <ele>80.88818359375</ele>
        <time>2011-02-11T14:02:44Z</time>
      </trkpt>
      <trkpt lat="48.99025" lon="1.03674">
        <ele>81.849365234375</ele>
        <time>2011-02-11T14:02:48Z</time>
      </trkpt>
      <trkpt lat="48.99032" lon="1.03686">
        <ele>82.810791015625</ele>
        <time>2011-02-11T14:02:50Z</time>
      </trkpt>
      <trkpt lat="48.99038" lon="1.03701">
        <ele>77.5234375</ele>
        <time>2011-02-11T14:02:52Z</time>
      </trkpt>
      <trkpt lat="48.99069" lon="1.03749">
        <ele>83.291381835938</ele>
        <time>2011-02-11T14:03:00Z</time>
      </trkpt>
      <trkpt lat="48.9908" lon="1.03773">
        <ele>79.926635742188</ele>
        <time>2011-02-11T14:03:04Z</time>
      </trkpt>
      <trkpt lat="48.99084" lon="1.0378">
        <ele>80.407470703125</ele>
        <time>2011-02-11T14:03:05Z</time>
      </trkpt>
      <trkpt lat="48.99089" lon="1.03786">
        <ele>80.88818359375</ele>
        <time>2011-02-11T14:03:06Z</time>
      </trkpt>
      <trkpt lat="48.99105" lon="1.03805">
        <ele>80.407470703125</ele>
        <time>2011-02-11T14:03:09Z</time>
      </trkpt>
      <trkpt lat="48.99119" lon="1.03824">
        <ele>78.004028320312</ele>
        <time>2011-02-11T14:03:12Z</time>
      </trkpt>
      <trkpt lat="48.99128" lon="1.03838">
        <ele>81.368774414062</ele>
        <time>2011-02-11T14:03:14Z</time>
      </trkpt>
      <trkpt lat="48.99137" lon="1.03853">
        <ele>83.77197265625</ele>
        <time>2011-02-11T14:03:16Z</time>
      </trkpt>
      <trkpt lat="48.99151" lon="1.03874">
        <ele>79.926635742188</ele>
        <time>2011-02-11T14:03:19Z</time>
      </trkpt>
      <trkpt lat="48.99211" lon="1.03957">
        <ele>81.849365234375</ele>
        <time>2011-02-11T14:03:32Z</time>
      </trkpt>
      <trkpt lat="48.99221" lon="1.03968">
        <ele>79.446044921875</ele>
        <time>2011-02-11T14:03:34Z</time>
      </trkpt>
      <trkpt lat="48.99244" lon="1.04">
        <ele>80.407470703125</ele>
        <time>2011-02-11T14:03:39Z</time>
      </trkpt>
      <trkpt lat="48.99254" lon="1.04013">
        <ele>80.407470703125</ele>
        <time>2011-02-11T14:03:41Z</time>
      </trkpt>
      <trkpt lat="48.99264" lon="1.04025">
        <ele>78.484741210938</ele>
        <time>2011-02-11T14:03:43Z</time>
      </trkpt>
      <trkpt lat="48.99273" lon="1.04035">
        <ele>78.965454101562</ele>
        <time>2011-02-11T14:03:45Z</time>
      </trkpt>
      <trkpt lat="48.99304" lon="1.04068">
        <ele>77.042846679688</ele>
        <time>2011-02-11T14:03:51Z</time>
      </trkpt>
      <trkpt lat="48.99314" lon="1.04076">
        <ele>80.407470703125</ele>
        <time>2011-02-11T14:03:53Z</time>
      </trkpt>
      <trkpt lat="48.99319" lon="1.0408">
        <ele>80.407470703125</ele>
        <time>2011-02-11T14:03:54Z</time>
      </trkpt>
      <trkpt lat="48.99329" lon="1.04086">
        <ele>78.484741210938</ele>
        <time>2011-02-11T14:03:56Z</time>
      </trkpt>
      <trkpt lat="48.99338" lon="1.04094">
        <ele>80.407470703125</ele>
        <time>2011-02-11T14:03:58Z</time>
      </trkpt>
      <trkpt lat="48.99342" lon="1.04096">
        <ele>81.368774414062</ele>
        <time>2011-02-11T14:03:59Z</time>
      </trkpt>
      <trkpt lat="48.99358" lon="1.04101">
        <ele>82.810791015625</ele>
        <time>2011-02-11T14:04:03Z</time>
      </trkpt>
      <trkpt lat="48.99379" lon="1.04106">
        <ele>79.446044921875</ele>
        <time>2011-02-11T14:04:08Z</time>
      </trkpt>
      <trkpt lat="48.99406" lon="1.04115">
        <ele>83.77197265625</ele>
        <time>2011-02-11T14:04:14Z</time>
      </trkpt>
      <trkpt lat="48.9941" lon="1.04117">
        <ele>79.926635742188</ele>
        <time>2011-02-11T14:04:15Z</time>
      </trkpt>
      <trkpt lat="48.99436" lon="1.04124">
        <ele>81.849365234375</ele>
        <time>2011-02-11T14:04:21Z</time>
      </trkpt>
      <trkpt lat="48.99441" lon="1.04126">
        <ele>78.484741210938</ele>
        <time>2011-02-11T14:04:22Z</time>
      </trkpt>
      <trkpt lat="48.99464" lon="1.04133">
        <ele>83.77197265625</ele>
        <time>2011-02-11T14:04:27Z</time>
      </trkpt>
      <trkpt lat="48.99468" lon="1.04134">
        <ele>80.88818359375</ele>
        <time>2011-02-11T14:04:28Z</time>
      </trkpt>
      <trkpt lat="48.99478" lon="1.04137">
        <ele>83.77197265625</ele>
        <time>2011-02-11T14:04:30Z</time>
      </trkpt>
      <trkpt lat="48.99482" lon="1.04138">
        <ele>82.330078125</ele>
        <time>2011-02-11T14:04:31Z</time>
      </trkpt>
      <trkpt lat="48.99526" lon="1.04152">
        <ele>83.291381835938</ele>
        <time>2011-02-11T14:04:42Z</time>
      </trkpt>
      <trkpt lat="48.99535" lon="1.04155">
        <ele>79.926635742188</ele>
        <time>2011-02-11T14:04:44Z</time>
      </trkpt>
      <trkpt lat="48.99539" lon="1.04157">
        <ele>83.77197265625</ele>
        <time>2011-02-11T14:04:45Z</time>
      </trkpt>
      <trkpt lat="48.99551" lon="1.0416">
        <ele>80.407470703125</ele>
        <time>2011-02-11T14:04:48Z</time>
      </trkpt>
      <trkpt lat="48.99555" lon="1.04161">
        <ele>84.7333984375</ele>
        <time>2011-02-11T14:04:49Z</time>
      </trkpt>
      <trkpt lat="48.99559" lon="1.04162">
        <ele>84.7333984375</ele>
        <time>2011-02-11T14:04:50Z</time>
      </trkpt>
      <trkpt lat="48.99615" lon="1.04201">
        <ele>85.213989257812</ele>
        <time>2011-02-11T14:05:07Z</time>
      </trkpt>
      <trkpt lat="48.9964" lon="1.04257">
        <ele>89.059326171875</ele>
        <time>2011-02-11T14:05:19Z</time>
      </trkpt>
      <trkpt lat="48.99642" lon="1.04263">
        <ele>86.17529296875</ele>
        <time>2011-02-11T14:05:20Z</time>
      </trkpt>
      <trkpt lat="48.99695" lon="1.04402">
        <ele>83.291381835938</ele>
        <time>2011-02-11T14:05:40Z</time>
      </trkpt>
      <trkpt lat="48.99698" lon="1.04411">
        <ele>86.656005859375</ele>
        <time>2011-02-11T14:05:41Z</time>
      </trkpt>
      <trkpt lat="48.9971" lon="1.04445">
        <ele>82.330078125</ele>
        <time>2011-02-11T14:05:45Z</time>
      </trkpt>
      <trkpt lat="48.99714" lon="1.04453">
        <ele>85.213989257812</ele>
        <time>2011-02-11T14:05:46Z</time>
      </trkpt>
      <trkpt lat="48.99717" lon="1.04462">
        <ele>78.965454101562</ele>
        <time>2011-02-11T14:05:47Z</time>
      </trkpt>
      <trkpt lat="48.9972" lon="1.0447">
        <ele>83.77197265625</ele>
        <time>2011-02-11T14:05:48Z</time>
      </trkpt>
      <trkpt lat="48.99739" lon="1.04521">
        <ele>86.656005859375</ele>
        <time>2011-02-11T14:05:54Z</time>
      </trkpt>
      <trkpt lat="48.99743" lon="1.0453">
        <ele>83.291381835938</ele>
        <time>2011-02-11T14:05:55Z</time>
      </trkpt>
      <trkpt lat="48.9981" lon="1.0471">
        <ele>86.17529296875</ele>
        <time>2011-02-11T14:06:17Z</time>
      </trkpt>
      <trkpt lat="48.99813" lon="1.04717">
        <ele>82.330078125</ele>
        <time>2011-02-11T14:06:18Z</time>
      </trkpt>
      <trkpt lat="48.99825" lon="1.04745">
        <ele>87.136596679688</ele>
        <time>2011-02-11T14:06:22Z</time>
      </trkpt>
      <trkpt lat="48.99827" lon="1.04753">
        <ele>86.17529296875</ele>
        <time>2011-02-11T14:06:23Z</time>
      </trkpt>
      <trkpt lat="48.9987" lon="1.04868">
        <ele>87.6171875</ele>
        <time>2011-02-11T14:06:40Z</time>
      </trkpt>
      <trkpt lat="48.99876" lon="1.04885">
        <ele>85.213989257812</ele>
        <time>2011-02-11T14:06:43Z</time>
      </trkpt>
      <trkpt lat="48.99884" lon="1.04906">
        <ele>85.694580078125</ele>
        <time>2011-02-11T14:06:47Z</time>
      </trkpt>
      <trkpt lat="48.99895" lon="1.04952">
        <ele>82.330078125</ele>
        <time>2011-02-11T14:06:53Z</time>
      </trkpt>
      <trkpt lat="48.99898" lon="1.04962">
        <ele>85.694580078125</ele>
        <time>2011-02-11T14:06:54Z</time>
      </trkpt>
      <trkpt lat="48.99903" lon="1.04983">
        <ele>80.88818359375</ele>
        <time>2011-02-11T14:06:56Z</time>
      </trkpt>
      <trkpt lat="48.99906" lon="1.04993">
        <ele>83.291381835938</ele>
        <time>2011-02-11T14:06:57Z</time>
      </trkpt>
      <trkpt lat="48.99908" lon="1.05003">
        <ele>79.926635742188</ele>
        <time>2011-02-11T14:06:58Z</time>
      </trkpt>
      <trkpt lat="48.99924" lon="1.05064">
        <ele>83.291381835938</ele>
        <time>2011-02-11T14:07:04Z</time>
      </trkpt>
      <trkpt lat="48.99943" lon="1.05136">
        <ele>79.926635742188</ele>
        <time>2011-02-11T14:07:11Z</time>
      </trkpt>
      <trkpt lat="48.99957" lon="1.05195">
        <ele>83.291381835938</ele>
        <time>2011-02-11T14:07:17Z</time>
      </trkpt>
      <trkpt lat="48.9996" lon="1.05205">
        <ele>83.291381835938</ele>
        <time>2011-02-11T14:07:18Z</time>
      </trkpt>
      <trkpt lat="48.99972" lon="1.05262">
        <ele>80.88818359375</ele>
        <time>2011-02-11T14:07:24Z</time>
      </trkpt>
      <trkpt lat="48.99986" lon="1.05378">
        <ele>78.004028320312</ele>
        <time>2011-02-11T14:07:37Z</time>
      </trkpt>
      <trkpt lat="48.99987" lon="1.05387">
        <ele>80.88818359375</ele>
        <time>2011-02-11T14:07:38Z</time>
      </trkpt>
      <trkpt lat="48.99991" lon="1.05435">
        <ele>77.042846679688</ele>
        <time>2011-02-11T14:07:43Z</time>
      </trkpt>
      <trkpt lat="48.99994" lon="1.05476">
        <ele>79.446044921875</ele>
        <time>2011-02-11T14:07:47Z</time>
      </trkpt>
      <trkpt lat="48.99994" lon="1.05516">
        <ele>74.639526367188</ele>
        <time>2011-02-11T14:07:51Z</time>
      </trkpt>
      <trkpt lat="48.99992" lon="1.05545">
        <ele>78.965454101562</ele>
        <time>2011-02-11T14:07:54Z</time>
      </trkpt>
      <trkpt lat="48.99984" lon="1.05642">
        <ele>75.120239257812</ele>
        <time>2011-02-11T14:08:04Z</time>
      </trkpt>
      <trkpt lat="48.99983" lon="1.05652">
        <ele>76.081420898438</ele>
        <time>2011-02-11T14:08:05Z</time>
      </trkpt>
      <trkpt lat="48.99982" lon="1.05671">
        <ele>79.446044921875</ele>
        <time>2011-02-11T14:08:07Z</time>
      </trkpt>
      <trkpt lat="48.99976" lon="1.05743">
        <ele>75.600830078125</ele>
        <time>2011-02-11T14:08:15Z</time>
      </trkpt>
      <trkpt lat="48.99968" lon="1.05794">
        <ele>79.446044921875</ele>
        <time>2011-02-11T14:08:21Z</time>
      </trkpt>
      <trkpt lat="48.99964" lon="1.05818">
        <ele>76.081420898438</ele>
        <time>2011-02-11T14:08:24Z</time>
      </trkpt>
      <trkpt lat="48.9996" lon="1.05842">
        <ele>79.926635742188</ele>
        <time>2011-02-11T14:08:27Z</time>
      </trkpt>
      <trkpt lat="48.99958" lon="1.05858">
        <ele>75.600830078125</ele>
        <time>2011-02-11T14:08:29Z</time>
      </trkpt>
      <trkpt lat="48.99947" lon="1.05933">
        <ele>80.88818359375</ele>
        <time>2011-02-11T14:08:39Z</time>
      </trkpt>
      <trkpt lat="48.99946" lon="1.0594">
        <ele>76.562133789062</ele>
        <time>2011-02-11T14:08:40Z</time>
      </trkpt>
      <trkpt lat="48.99942" lon="1.05961">
        <ele>79.446044921875</ele>
        <time>2011-02-11T14:08:43Z</time>
      </trkpt>
      <trkpt lat="48.9994" lon="1.05976">
        <ele>76.081420898438</ele>
        <time>2011-02-11T14:08:45Z</time>
      </trkpt>
      <trkpt lat="48.99935" lon="1.06012">
        <ele>78.004028320312</ele>
        <time>2011-02-11T14:08:50Z</time>
      </trkpt>
      <trkpt lat="48.99932" lon="1.06027">
        <ele>77.5234375</ele>
        <time>2011-02-11T14:08:52Z</time>
      </trkpt>
      <trkpt lat="48.99925" lon="1.06065">
        <ele>78.484741210938</ele>
        <time>2011-02-11T14:08:57Z</time>
      </trkpt>
      <trkpt lat="48.99918" lon="1.06105">
        <ele>79.446044921875</ele>
        <time>2011-02-11T14:09:02Z</time>
      </trkpt>
      <trkpt lat="48.99915" lon="1.06121">
        <ele>78.484741210938</ele>
        <time>2011-02-11T14:09:04Z</time>
      </trkpt>
      <trkpt lat="48.99906" lon="1.06163">
        <ele>74.158813476562</ele>
        <time>2011-02-11T14:09:09Z</time>
      </trkpt>
      <trkpt lat="48.99905" lon="1.06171">
        <ele>80.407470703125</ele>
        <time>2011-02-11T14:09:10Z</time>
      </trkpt>
      <trkpt lat="48.99903" lon="1.06179">
        <ele>77.042846679688</ele>
        <time>2011-02-11T14:09:11Z</time>
      </trkpt>
      <trkpt lat="48.9989" lon="1.06243">
        <ele>77.5234375</ele>
        <time>2011-02-11T14:09:19Z</time>
      </trkpt>
      <trkpt lat="48.99887" lon="1.06255">
        <ele>77.042846679688</ele>
        <time>2011-02-11T14:09:21Z</time>
      </trkpt>
      <trkpt lat="48.99877" lon="1.06259">
        <ele>77.5234375</ele>
        <time>2011-02-11T14:09:24Z</time>
      </trkpt>
      <trkpt lat="48.99842" lon="1.06261">
        <ele>75.120239257812</ele>
        <time>2011-02-11T14:09:32Z</time>
      </trkpt>
      <trkpt lat="48.99837" lon="1.06261">
        <ele>76.081420898438</ele>
        <time>2011-02-11T14:09:33Z</time>
      </trkpt>
      <trkpt lat="48.99824" lon="1.06262">
        <ele>75.600830078125</ele>
        <time>2011-02-11T14:09:36Z</time>
      </trkpt>
      <trkpt lat="48.99747" lon="1.06265">
        <ele>75.600830078125</ele>
        <time>2011-02-11T14:09:51Z</time>
      </trkpt>
      <trkpt lat="48.99704" lon="1.06264">
        <ele>75.600830078125</ele>
        <time>2011-02-11T14:10:00Z</time>
      </trkpt>
      <trkpt lat="48.99681" lon="1.06258">
        <ele>74.639526367188</ele>
        <time>2011-02-11T14:10:05Z</time>
      </trkpt>
      <trkpt lat="48.99651" lon="1.06265">
        <ele>76.081420898438</ele>
        <time>2011-02-11T14:10:12Z</time>
      </trkpt>
      <trkpt lat="48.99604" lon="1.06266">
        <ele>75.600830078125</ele>
        <time>2011-02-11T14:10:22Z</time>
      </trkpt>
      <trkpt lat="48.99595" lon="1.06266">
        <ele>74.158813476562</ele>
        <time>2011-02-11T14:10:24Z</time>
      </trkpt>
      <trkpt lat="48.99577" lon="1.06267">
        <ele>76.081420898438</ele>
        <time>2011-02-11T14:10:28Z</time>
      </trkpt>
      <trkpt lat="48.99559" lon="1.06276">
        <ele>76.562133789062</ele>
        <time>2011-02-11T14:10:32Z</time>
      </trkpt>
      <trkpt lat="48.99534" lon="1.06308">
        <ele>74.639526367188</ele>
        <time>2011-02-11T14:10:39Z</time>
      </trkpt>
      <trkpt lat="48.99526" lon="1.0634">
        <ele>76.562133789062</ele>
        <time>2011-02-11T14:10:44Z</time>
      </trkpt>
      <trkpt lat="48.99527" lon="1.06362">
        <ele>78.965454101562</ele>
        <time>2011-02-11T14:10:47Z</time>
      </trkpt>
      <trkpt lat="48.99523" lon="1.06369">
        <ele>75.600830078125</ele>
        <time>2011-02-11T14:10:49Z</time>
      </trkpt>
      <trkpt lat="48.99519" lon="1.0637">
        <ele>75.120239257812</ele>
        <time>2011-02-11T14:10:50Z</time>
      </trkpt>
      <trkpt lat="48.99507" lon="1.06376">
        <ele>75.600830078125</ele>
        <time>2011-02-11T14:10:53Z</time>
      </trkpt>
      <trkpt lat="48.99486" lon="1.06387">
        <ele>77.042846679688</ele>
        <time>2011-02-11T14:10:58Z</time>
      </trkpt>
      <trkpt lat="48.99479" lon="1.06392">
        <ele>75.600830078125</ele>
        <time>2011-02-11T14:11:00Z</time>
      </trkpt>
      <trkpt lat="48.9947" lon="1.06424">
        <ele>75.600830078125</ele>
        <time>2011-02-11T14:11:05Z</time>
      </trkpt>
      <trkpt lat="48.99479" lon="1.06442">
        <ele>73.67822265625</ele>
        <time>2011-02-11T14:11:09Z</time>
      </trkpt>
      <trkpt lat="48.99486" lon="1.06473">
        <ele>77.042846679688</ele>
        <time>2011-02-11T14:11:14Z</time>
      </trkpt>
      <trkpt lat="48.99487" lon="1.06478">
        <ele>75.120239257812</ele>
        <time>2011-02-11T14:11:15Z</time>
      </trkpt>
      <trkpt lat="48.99488" lon="1.06485">
        <ele>75.600830078125</ele>
        <time>2011-02-11T14:11:16Z</time>
      </trkpt>
      <trkpt lat="48.99494" lon="1.06506">
        <ele>76.081420898438</ele>
        <time>2011-02-11T14:11:19Z</time>
      </trkpt>
      <trkpt lat="48.995" lon="1.06518">
        <ele>76.081420898438</ele>
        <time>2011-02-11T14:11:21Z</time>
      </trkpt>
      <trkpt lat="48.995" lon="1.06569">
        <ele>75.120239257812</ele>
        <time>2011-02-11T14:11:28Z</time>
      </trkpt>
      <trkpt lat="48.99496" lon="1.06582">
        <ele>76.081420898438</ele>
        <time>2011-02-11T14:11:30Z</time>
      </trkpt>
      <trkpt lat="48.99493" lon="1.06593">
        <ele>76.081420898438</ele>
        <time>2011-02-11T14:11:33Z</time>
      </trkpt>
      <trkpt lat="48.99486" lon="1.06605">
        <ele>74.639526367188</ele>
        <time>2011-02-11T14:11:35Z</time>
      </trkpt>
      <trkpt lat="48.99475" lon="1.06629">
        <ele>73.67822265625</ele>
        <time>2011-02-11T14:11:38Z</time>
      </trkpt>
      <trkpt lat="48.99469" lon="1.06645">
        <ele>76.562133789062</ele>
        <time>2011-02-11T14:11:40Z</time>
      </trkpt>
      <trkpt lat="48.99466" lon="1.06653">
        <ele>74.639526367188</ele>
        <time>2011-02-11T14:11:41Z</time>
      </trkpt>
      <trkpt lat="48.99462" lon="1.06691">
        <ele>73.197631835938</ele>
        <time>2011-02-11T14:11:45Z</time>
      </trkpt>
      <trkpt lat="48.9946" lon="1.06737">
        <ele>74.639526367188</ele>
        <time>2011-02-11T14:11:50Z</time>
      </trkpt>
      <trkpt lat="48.99457" lon="1.06897">
        <ele>74.158813476562</ele>
        <time>2011-02-11T14:12:08Z</time>
      </trkpt>
      <trkpt lat="48.99456" lon="1.06962">
        <ele>73.197631835938</ele>
        <time>2011-02-11T14:12:15Z</time>
      </trkpt>
      <trkpt lat="48.99453" lon="1.07101">
        <ele>69.352294921875</ele>
        <time>2011-02-11T14:12:30Z</time>
      </trkpt>
      <trkpt lat="48.99453" lon="1.0711">
        <ele>73.67822265625</ele>
        <time>2011-02-11T14:12:31Z</time>
      </trkpt>
      <trkpt lat="48.99453" lon="1.07137">
        <ele>71.755493164062</ele>
        <time>2011-02-11T14:12:34Z</time>
      </trkpt>
      <trkpt lat="48.99453" lon="1.07214">
        <ele>74.639526367188</ele>
        <time>2011-02-11T14:12:43Z</time>
      </trkpt>
      <trkpt lat="48.99454" lon="1.07239">
        <ele>73.197631835938</ele>
        <time>2011-02-11T14:12:46Z</time>
      </trkpt>
      <trkpt lat="48.99454" lon="1.07248">
        <ele>72.236206054688</ele>
        <time>2011-02-11T14:12:47Z</time>
      </trkpt>
      <trkpt lat="48.99452" lon="1.07405">
        <ele>72.716918945312</ele>
        <time>2011-02-11T14:13:06Z</time>
      </trkpt>
      <trkpt lat="48.99451" lon="1.07471">
        <ele>74.158813476562</ele>
        <time>2011-02-11T14:13:14Z</time>
      </trkpt>
      <trkpt lat="48.99451" lon="1.07488">
        <ele>72.716918945312</ele>
        <time>2011-02-11T14:13:16Z</time>
      </trkpt>
      <trkpt lat="48.99451" lon="1.07505">
        <ele>69.352294921875</ele>
        <time>2011-02-11T14:13:18Z</time>
      </trkpt>
      <trkpt lat="48.99451" lon="1.07514">
        <ele>73.67822265625</ele>
        <time>2011-02-11T14:13:19Z</time>
      </trkpt>
      <trkpt lat="48.99453" lon="1.07547">
        <ele>74.158813476562</ele>
        <time>2011-02-11T14:13:23Z</time>
      </trkpt>
      <trkpt lat="48.99452" lon="1.07682">
        <ele>73.67822265625</ele>
        <time>2011-02-11T14:13:40Z</time>
      </trkpt>
      <trkpt lat="48.99452" lon="1.07706">
        <ele>72.716918945312</ele>
        <time>2011-02-11T14:13:43Z</time>
      </trkpt>
      <trkpt lat="48.99462" lon="1.07726">
        <ele>73.67822265625</ele>
        <time>2011-02-11T14:13:47Z</time>
      </trkpt>
      <trkpt lat="48.99466" lon="1.07724">
        <ele>73.197631835938</ele>
        <time>2011-02-11T14:13:48Z</time>
      </trkpt>
      <trkpt lat="48.99479" lon="1.07713">
        <ele>74.639526367188</ele>
        <time>2011-02-11T14:13:51Z</time>
      </trkpt>
      <trkpt lat="48.99487" lon="1.07706">
        <ele>73.67822265625</ele>
        <time>2011-02-11T14:13:53Z</time>
      </trkpt>
      <trkpt lat="48.9955" lon="1.07662">
        <ele>72.716918945312</ele>
        <time>2011-02-11T14:14:07Z</time>
      </trkpt>
      <trkpt lat="48.9957" lon="1.07652">
        <ele>73.197631835938</ele>
        <time>2011-02-11T14:14:11Z</time>
      </trkpt>
      <trkpt lat="48.99574" lon="1.07649">
        <ele>71.755493164062</ele>
        <time>2011-02-11T14:14:12Z</time>
      </trkpt>
      <trkpt lat="48.99586" lon="1.07597">
        <ele>72.716918945312</ele>
        <time>2011-02-11T14:14:20Z</time>
      </trkpt>
      <trkpt lat="48.99584" lon="1.07582">
        <ele>72.716918945312</ele>
        <time>2011-02-11T14:14:22Z</time>
      </trkpt>
      <trkpt lat="48.99601" lon="1.07538">
        <ele>73.197631835938</ele>
        <time>2011-02-11T14:14:29Z</time>
      </trkpt>
      <trkpt lat="48.99635" lon="1.07517">
        <ele>75.600830078125</ele>
        <time>2011-02-11T14:14:37Z</time>
      </trkpt>
      <trkpt lat="48.99639" lon="1.07514">
        <ele>74.639526367188</ele>
        <time>2011-02-11T14:14:38Z</time>
      </trkpt>
      <trkpt lat="48.99682" lon="1.07484">
        <ele>75.120239257812</ele>
        <time>2011-02-11T14:14:54Z</time>
      </trkpt>
      <trkpt lat="48.99685" lon="1.07481">
        <ele>75.120239257812</ele>
        <time>2011-02-11T14:15:07Z</time>
      </trkpt>
      <trkpt lat="48.99686" lon="1.07481">
        <ele>75.120239257812</ele>
        <time>2011-02-11T14:15:13Z</time>
      </trkpt>
      <trkpt lat="48.99687" lon="1.07481">
        <ele>76.562133789062</ele>
        <time>2011-02-11T14:15:31Z</time>
      </trkpt>
      <trkpt lat="48.99687" lon="1.07481">
        <ele>73.197631835938</ele>
        <time>2011-02-11T14:15:35Z</time>
      </trkpt>
      <trkpt lat="48.99688" lon="1.07482">
        <ele>77.5234375</ele>
        <time>2011-02-11T14:15:47Z</time>
      </trkpt>
      <trkpt lat="48.99688" lon="1.07482">
        <ele>73.197631835938</ele>
        <time>2011-02-11T14:15:49Z</time>
      </trkpt>
      <trkpt lat="48.99688" lon="1.07483">
        <ele>73.197631835938</ele>
        <time>2011-02-11T14:15:53Z</time>
      </trkpt>
      <trkpt lat="48.99692" lon="1.07477">
        <ele>76.562133789062</ele>
        <time>2011-02-11T14:15:57Z</time>
      </trkpt>
      <trkpt lat="48.99699" lon="1.0747">
        <ele>74.158813476562</ele>
        <time>2011-02-11T14:16:00Z</time>
      </trkpt>
      <trkpt lat="48.99731" lon="1.07438">
        <ele>72.716918945312</ele>
        <time>2011-02-11T14:16:11Z</time>
      </trkpt>
      <trkpt lat="48.99756" lon="1.07421">
        <ele>72.236206054688</ele>
        <time>2011-02-11T14:16:19Z</time>
      </trkpt>
      <trkpt lat="48.99772" lon="1.07404">
        <ele>75.120239257812</ele>
        <time>2011-02-11T14:16:25Z</time>
      </trkpt>
      <trkpt lat="48.99793" lon="1.07381">
        <ele>75.120239257812</ele>
        <time>2011-02-11T14:16:34Z</time>
      </trkpt>
      <trkpt lat="48.99801" lon="1.07372">
        <ele>74.639526367188</ele>
        <time>2011-02-11T14:16:38Z</time>
      </trkpt>
      <trkpt lat="48.99824" lon="1.07372">
        <ele>77.5234375</ele>
        <time>2011-02-11T14:16:44Z</time>
      </trkpt>
      <trkpt lat="48.99826" lon="1.07371">
        <ele>77.042846679688</ele>
        <time>2011-02-11T14:16:45Z</time>
      </trkpt>
      <trkpt lat="48.99839" lon="1.07372">
        <ele>75.600830078125</ele>
        <time>2011-02-11T14:16:49Z</time>
      </trkpt>
      <trkpt lat="48.99842" lon="1.07378">
        <ele>77.5234375</ele>
        <time>2011-02-11T14:16:51Z</time>
      </trkpt>
      <trkpt lat="48.99851" lon="1.07389">
        <ele>75.600830078125</ele>
        <time>2011-02-11T14:16:55Z</time>
      </trkpt>
      <trkpt lat="48.99861" lon="1.07398">
        <ele>79.926635742188</ele>
        <time>2011-02-11T14:16:59Z</time>
      </trkpt>
      <trkpt lat="48.99863" lon="1.07399">
        <ele>75.600830078125</ele>
        <time>2011-02-11T14:17:00Z</time>
      </trkpt>
      <trkpt lat="48.99864" lon="1.07401">
        <ele>79.446044921875</ele>
        <time>2011-02-11T14:17:01Z</time>
      </trkpt>
      <trkpt lat="48.99876" lon="1.07411">
        <ele>78.484741210938</ele>
        <time>2011-02-11T14:17:06Z</time>
      </trkpt>
      <trkpt lat="48.99889" lon="1.07421">
        <ele>79.446044921875</ele>
        <time>2011-02-11T14:17:12Z</time>
      </trkpt>
      <trkpt lat="48.99898" lon="1.07426">
        <ele>83.77197265625</ele>
        <time>2011-02-11T14:17:17Z</time>
      </trkpt>
      <trkpt lat="48.99908" lon="1.07429">
        <ele>80.407470703125</ele>
        <time>2011-02-11T14:17:21Z</time>
      </trkpt>
      <trkpt lat="48.99914" lon="1.0743">
        <ele>84.252685546875</ele>
        <time>2011-02-11T14:17:27Z</time>
      </trkpt>
      <trkpt lat="48.99917" lon="1.07429">
        <ele>81.368774414062</ele>
        <time>2011-02-11T14:17:30Z</time>
      </trkpt>
      <trkpt lat="48.99924" lon="1.07428">
        <ele>83.291381835938</ele>
        <time>2011-02-11T14:17:32Z</time>
      </trkpt>
      <trkpt lat="48.99934" lon="1.07431">
        <ele>83.77197265625</ele>
        <time>2011-02-11T14:17:35Z</time>
      </trkpt>
      <trkpt lat="48.99945" lon="1.07433">
        <ele>85.694580078125</ele>
        <time>2011-02-11T14:17:41Z</time>
      </trkpt>
      <trkpt lat="48.99955" lon="1.07437">
        <ele>85.694580078125</ele>
        <time>2011-02-11T14:17:45Z</time>
      </trkpt>
      <trkpt lat="48.9997" lon="1.0744">
        <ele>86.656005859375</ele>
        <time>2011-02-11T14:17:52Z</time>
      </trkpt>
      <trkpt lat="48.99977" lon="1.07441">
        <ele>86.656005859375</ele>
        <time>2011-02-11T14:17:56Z</time>
      </trkpt>
      <trkpt lat="48.99987" lon="1.07442">
        <ele>86.656005859375</ele>
        <time>2011-02-11T14:18:03Z</time>
      </trkpt>
      <trkpt lat="48.99994" lon="1.07434">
        <ele>90.501342773438</ele>
        <time>2011-02-11T14:18:07Z</time>
      </trkpt>
      <trkpt lat="48.99996" lon="1.07432">
        <ele>89.059326171875</ele>
        <time>2011-02-11T14:18:08Z</time>
      </trkpt>
      <trkpt lat="49.00013" lon="1.07437">
        <ele>89.059326171875</ele>
        <time>2011-02-11T14:18:13Z</time>
      </trkpt>
      <trkpt lat="49.00014" lon="1.07429">
        <ele>90.98193359375</ele>
        <time>2011-02-11T14:18:16Z</time>
      </trkpt>
      <trkpt lat="49.00015" lon="1.07421">
        <ele>87.6171875</ele>
        <time>2011-02-11T14:18:19Z</time>
      </trkpt>
      <trkpt lat="49.00015" lon="1.07418">
        <ele>93.385131835938</ele>
        <time>2011-02-11T14:18:20Z</time>
      </trkpt>
      <trkpt lat="49.00017" lon="1.07414">
        <ele>89.539916992188</ele>
        <time>2011-02-11T14:18:21Z</time>
      </trkpt>
      <trkpt lat="49.00035" lon="1.07387">
        <ele>92.904541015625</ele>
        <time>2011-02-11T14:18:33Z</time>
      </trkpt>
      <trkpt lat="49.0003" lon="1.07378">
        <ele>92.904541015625</ele>
        <time>2011-02-11T14:18:41Z</time>
      </trkpt>
      <trkpt lat="49.00028" lon="1.07374">
        <ele>96.269287109375</ele>
        <time>2011-02-11T14:18:44Z</time>
      </trkpt>
      <trkpt lat="49.00026" lon="1.0737">
        <ele>91.943237304688</ele>
        <time>2011-02-11T14:18:47Z</time>
      </trkpt>
      <trkpt lat="49.00025" lon="1.07368">
        <ele>93.865844726562</ele>
        <time>2011-02-11T14:18:48Z</time>
      </trkpt>
      <trkpt lat="49.00021" lon="1.07362">
        <ele>94.8271484375</ele>
        <time>2011-02-11T14:18:50Z</time>
      </trkpt>
      <trkpt lat="49.00017" lon="1.07355">
        <ele>94.8271484375</ele>
        <time>2011-02-11T14:18:52Z</time>
      </trkpt>
      <trkpt lat="49.00009" lon="1.07329">
        <ele>96.749877929688</ele>
        <time>2011-02-11T14:19:04Z</time>
      </trkpt>
      <trkpt lat="49.00002" lon="1.07303">
        <ele>100.59509277344</ele>
        <time>2011-02-11T14:19:15Z</time>
      </trkpt>
      <trkpt lat="49.00002" lon="1.07302">
        <ele>100.11450195312</ele>
        <time>2011-02-11T14:19:16Z</time>
      </trkpt>
      <trkpt lat="49.00001" lon="1.07296">
        <ele>98.672485351562</ele>
        <time>2011-02-11T14:19:18Z</time>
      </trkpt>
      <trkpt lat="49.00002" lon="1.07285">
        <ele>101.55639648438</ele>
        <time>2011-02-11T14:19:22Z</time>
      </trkpt>
      <trkpt lat="49.00003" lon="1.07279">
        <ele>101.55639648438</ele>
        <time>2011-02-11T14:19:24Z</time>
      </trkpt>
      <trkpt lat="49.00014" lon="1.07261">
        <ele>104.4404296875</ele>
        <time>2011-02-11T14:19:34Z</time>
      </trkpt>
      <trkpt lat="49.00017" lon="1.07258">
        <ele>101.07568359375</ele>
        <time>2011-02-11T14:19:36Z</time>
      </trkpt>
      <trkpt lat="49.00019" lon="1.07253">
        <ele>104.92102050781</ele>
        <time>2011-02-11T14:19:38Z</time>
      </trkpt>
      <trkpt lat="49.0002" lon="1.07251">
        <ele>103.95971679688</ele>
        <time>2011-02-11T14:19:39Z</time>
      </trkpt>
      <trkpt lat="49.00022" lon="1.07247">
        <ele>103.47900390625</ele>
        <time>2011-02-11T14:19:41Z</time>
      </trkpt>
      <trkpt lat="49.00032" lon="1.07225">
        <ele>107.80505371094</ele>
        <time>2011-02-11T14:19:53Z</time>
      </trkpt>
      <trkpt lat="49.00034" lon="1.07221">
        <ele>104.4404296875</ele>
        <time>2011-02-11T14:19:55Z</time>
      </trkpt>
      <trkpt lat="49.00034" lon="1.07219">
        <ele>105.40173339844</ele>
        <time>2011-02-11T14:19:56Z</time>
      </trkpt>
      <trkpt lat="49.00039" lon="1.07211">
        <ele>109.24694824219</ele>
        <time>2011-02-11T14:20:02Z</time>
      </trkpt>
      <trkpt lat="49.0004" lon="1.07209">
        <ele>107.80505371094</ele>
        <time>2011-02-11T14:20:03Z</time>
      </trkpt>
      <trkpt lat="49.00044" lon="1.07206">
        <ele>108.76623535156</ele>
        <time>2011-02-11T14:20:08Z</time>
      </trkpt>
      <trkpt lat="49.00046" lon="1.07204">
        <ele>107.32434082031</ele>
        <time>2011-02-11T14:20:10Z</time>
      </trkpt>
      <trkpt lat="49.0005" lon="1.07201">
        <ele>108.76623535156</ele>
        <time>2011-02-11T14:20:13Z</time>
      </trkpt>
      <trkpt lat="49.00052" lon="1.07199">
        <ele>112.61157226562</ele>
        <time>2011-02-11T14:20:15Z</time>
      </trkpt>
      <trkpt lat="49.00053" lon="1.07198">
        <ele>109.72766113281</ele>
        <time>2011-02-11T14:20:16Z</time>
      </trkpt>
      <trkpt lat="49.00055" lon="1.07191">
        <ele>110.20825195312</ele>
        <time>2011-02-11T14:20:20Z</time>
      </trkpt>
      <trkpt lat="49.00056" lon="1.07183">
        <ele>111.65026855469</ele>
        <time>2011-02-11T14:20:24Z</time>
      </trkpt>
      <trkpt lat="49.00057" lon="1.07175">
        <ele>113.09228515625</ele>
        <time>2011-02-11T14:20:28Z</time>
      </trkpt>
      <trkpt lat="49.0006" lon="1.07169">
        <ele>110.68884277344</ele>
        <time>2011-02-11T14:20:31Z</time>
      </trkpt>
      <trkpt lat="49.00062" lon="1.07153">
        <ele>114.05358886719</ele>
        <time>2011-02-11T14:20:39Z</time>
      </trkpt>
      <trkpt lat="49.00065" lon="1.07145">
        <ele>114.05358886719</ele>
        <time>2011-02-11T14:20:44Z</time>
      </trkpt>
      <trkpt lat="49.00065" lon="1.07138">
        <ele>116.45678710938</ele>
        <time>2011-02-11T14:20:47Z</time>
      </trkpt>
      <trkpt lat="49.00066" lon="1.07137">
        <ele>115.01489257812</ele>
        <time>2011-02-11T14:20:48Z</time>
      </trkpt>
      <trkpt lat="49.00066" lon="1.07131">
        <ele>113.09228515625</ele>
        <time>2011-02-11T14:20:52Z</time>
      </trkpt>
      <trkpt lat="49.00067" lon="1.07127">
        <ele>115.01489257812</ele>
        <time>2011-02-11T14:20:54Z</time>
      </trkpt>
      <trkpt lat="49.00068" lon="1.07121">
        <ele>116.9375</ele>
        <time>2011-02-11T14:20:57Z</time>
      </trkpt>
      <trkpt lat="49.00071" lon="1.07111">
        <ele>118.86010742188</ele>
        <time>2011-02-11T14:21:02Z</time>
      </trkpt>
      <trkpt lat="49.00071" lon="1.0711">
        <ele>117.41821289062</ele>
        <time>2011-02-11T14:21:03Z</time>
      </trkpt>
      <trkpt lat="49.00071" lon="1.07108">
        <ele>117.89880371094</ele>
        <time>2011-02-11T14:21:04Z</time>
      </trkpt>
      <trkpt lat="49.0007" lon="1.07101">
        <ele>115.49560546875</ele>
        <time>2011-02-11T14:21:08Z</time>
      </trkpt>
      <trkpt lat="49.00075" lon="1.07093">
        <ele>116.9375</ele>
        <time>2011-02-11T14:21:12Z</time>
      </trkpt>
      <trkpt lat="49.00079" lon="1.07082">
        <ele>117.89880371094</ele>
        <time>2011-02-11T14:21:17Z</time>
      </trkpt>
      <trkpt lat="49.00086" lon="1.07058">
        <ele>122.22473144531</ele>
        <time>2011-02-11T14:21:28Z</time>
      </trkpt>
      <trkpt lat="49.00089" lon="1.07052">
        <ele>119.3408203125</ele>
        <time>2011-02-11T14:21:31Z</time>
      </trkpt>
      <trkpt lat="49.00097" lon="1.07033">
        <ele>123.18615722656</ele>
        <time>2011-02-11T14:21:41Z</time>
      </trkpt>
      <trkpt lat="49.00098" lon="1.0703">
        <ele>121.744140625</ele>
        <time>2011-02-11T14:21:42Z</time>
      </trkpt>
      <trkpt lat="49.001" lon="1.07025">
        <ele>117.89880371094</ele>
        <time>2011-02-11T14:21:44Z</time>
      </trkpt>
      <trkpt lat="49.00101" lon="1.07023">
        <ele>118.86010742188</ele>
        <time>2011-02-11T14:21:45Z</time>
      </trkpt>
      <trkpt lat="49.00103" lon="1.0702">
        <ele>120.78283691406</ele>
        <time>2011-02-11T14:21:47Z</time>
      </trkpt>
      <trkpt lat="49.00105" lon="1.07018">
        <ele>123.18615722656</ele>
        <time>2011-02-11T14:21:48Z</time>
      </trkpt>
      <trkpt lat="49.00119" lon="1.07007">
        <ele>120.78283691406</ele>
        <time>2011-02-11T14:21:59Z</time>
      </trkpt>
      <trkpt lat="49.00141" lon="1.06996">
        <ele>121.26354980469</ele>
        <time>2011-02-11T14:22:11Z</time>
      </trkpt>
      <trkpt lat="49.00155" lon="1.06991">
        <ele>125.10876464844</ele>
        <time>2011-02-11T14:22:16Z</time>
      </trkpt>
      <trkpt lat="49.00186" lon="1.06971">
        <ele>126.06994628906</ele>
        <time>2011-02-11T14:22:29Z</time>
      </trkpt>
      <trkpt lat="49.00198" lon="1.06968">
        <ele>122.70544433594</ele>
        <time>2011-02-11T14:22:33Z</time>
      </trkpt>
      <trkpt lat="49.00212" lon="1.06963">
        <ele>126.55065917969</ele>
        <time>2011-02-11T14:22:38Z</time>
      </trkpt>
      <trkpt lat="49.00222" lon="1.0696">
        <ele>122.70544433594</ele>
        <time>2011-02-11T14:22:41Z</time>
      </trkpt>
      <trkpt lat="49.00228" lon="1.06957">
        <ele>126.06994628906</ele>
        <time>2011-02-11T14:22:43Z</time>
      </trkpt>
      <trkpt lat="49.00231" lon="1.06955">
        <ele>125.10876464844</ele>
        <time>2011-02-11T14:22:44Z</time>
      </trkpt>
      <trkpt lat="49.00238" lon="1.06952">
        <ele>124.14733886719</ele>
        <time>2011-02-11T14:22:46Z</time>
      </trkpt>
      <trkpt lat="49.00266" lon="1.06939">
        <ele>127.03137207031</ele>
        <time>2011-02-11T14:22:54Z</time>
      </trkpt>
      <trkpt lat="49.00305" lon="1.06914">
        <ele>125.10876464844</ele>
        <time>2011-02-11T14:23:04Z</time>
      </trkpt>
      <trkpt lat="49.00355" lon="1.06827">
        <ele>127.51196289062</ele>
        <time>2011-02-11T14:23:23Z</time>
      </trkpt>
      <trkpt lat="49.0036" lon="1.06819">
        <ele>126.06994628906</ele>
        <time>2011-02-11T14:23:25Z</time>
      </trkpt>
      <trkpt lat="49.00374" lon="1.06799">
        <ele>127.51196289062</ele>
        <time>2011-02-11T14:23:30Z</time>
      </trkpt>
      <trkpt lat="49.00384" lon="1.06788">
        <ele>126.06994628906</ele>
        <time>2011-02-11T14:23:33Z</time>
      </trkpt>
      <trkpt lat="49.00397" lon="1.06777">
        <ele>127.99255371094</ele>
        <time>2011-02-11T14:23:37Z</time>
      </trkpt>
      <trkpt lat="49.00435" lon="1.06747">
        <ele>125.10876464844</ele>
        <time>2011-02-11T14:23:47Z</time>
      </trkpt>
      <trkpt lat="49.00459" lon="1.06732">
        <ele>126.06994628906</ele>
        <time>2011-02-11T14:23:51Z</time>
      </trkpt>
      <trkpt lat="49.00469" lon="1.06724">
        <ele>127.03137207031</ele>
        <time>2011-02-11T14:23:53Z</time>
      </trkpt>
      <trkpt lat="49.0048" lon="1.06716">
        <ele>123.18615722656</ele>
        <time>2011-02-11T14:23:56Z</time>
      </trkpt>
      <trkpt lat="49.00484" lon="1.06714">
        <ele>124.14733886719</ele>
        <time>2011-02-11T14:23:57Z</time>
      </trkpt>
      <trkpt lat="49.00516" lon="1.06703">
        <ele>123.66674804688</ele>
        <time>2011-02-11T14:24:07Z</time>
      </trkpt>
      <trkpt lat="49.00521" lon="1.06699">
        <ele>121.744140625</ele>
        <time>2011-02-11T14:24:08Z</time>
      </trkpt>
      <trkpt lat="49.0054" lon="1.0669">
        <ele>124.14733886719</ele>
        <time>2011-02-11T14:24:12Z</time>
      </trkpt>
      <trkpt lat="49.00552" lon="1.06686">
        <ele>120.78283691406</ele>
        <time>2011-02-11T14:24:14Z</time>
      </trkpt>
      <trkpt lat="49.00565" lon="1.06683">
        <ele>124.14733886719</ele>
        <time>2011-02-11T14:24:16Z</time>
      </trkpt>
      <trkpt lat="49.00577" lon="1.06678">
        <ele>119.82141113281</ele>
        <time>2011-02-11T14:24:18Z</time>
      </trkpt>
      <trkpt lat="49.00601" lon="1.06671">
        <ele>122.70544433594</ele>
        <time>2011-02-11T14:24:22Z</time>
      </trkpt>
      <trkpt lat="49.00654" lon="1.06653">
        <ele>121.744140625</ele>
        <time>2011-02-11T14:24:32Z</time>
      </trkpt>
      <trkpt lat="49.0069" lon="1.06636">
        <ele>125.10876464844</ele>
        <time>2011-02-11T14:24:40Z</time>
      </trkpt>
      <trkpt lat="49.007" lon="1.06623">
        <ele>122.70544433594</ele>
        <time>2011-02-11T14:24:43Z</time>
      </trkpt>
      <trkpt lat="49.00705" lon="1.06613">
        <ele>126.06994628906</ele>
        <time>2011-02-11T14:24:45Z</time>
      </trkpt>
      <trkpt lat="49.00708" lon="1.06608">
        <ele>125.10876464844</ele>
        <time>2011-02-11T14:24:46Z</time>
      </trkpt>
      <trkpt lat="49.00714" lon="1.06598">
        <ele>123.66674804688</ele>
        <time>2011-02-11T14:24:48Z</time>
      </trkpt>
      <trkpt lat="49.00733" lon="1.0657">
        <ele>127.03137207031</ele>
        <time>2011-02-11T14:24:54Z</time>
      </trkpt>
      <trkpt lat="49.00739" lon="1.06562">
        <ele>123.66674804688</ele>
        <time>2011-02-11T14:24:56Z</time>
      </trkpt>
      <trkpt lat="49.00743" lon="1.06557">
        <ele>126.06994628906</ele>
        <time>2011-02-11T14:24:57Z</time>
      </trkpt>
      <trkpt lat="49.00785" lon="1.06495">
        <ele>125.10876464844</ele>
        <time>2011-02-11T14:25:08Z</time>
      </trkpt>
      <trkpt lat="49.0086" lon="1.0645">
        <ele>125.10876464844</ele>
        <time>2011-02-11T14:25:21Z</time>
      </trkpt>
      <trkpt lat="49.00925" lon="1.06411">
        <ele>122.70544433594</ele>
        <time>2011-02-11T14:25:32Z</time>
      </trkpt>
      <trkpt lat="49.00937" lon="1.064">
        <ele>124.62805175781</ele>
        <time>2011-02-11T14:25:34Z</time>
      </trkpt>
      <trkpt lat="49.00956" lon="1.0638">
        <ele>117.89880371094</ele>
        <time>2011-02-11T14:25:37Z</time>
      </trkpt>
      <trkpt lat="49.00962" lon="1.06373">
        <ele>118.86010742188</ele>
        <time>2011-02-11T14:25:38Z</time>
      </trkpt>
      <trkpt lat="49.00984" lon="1.06353">
        <ele>113.57299804688</ele>
        <time>2011-02-11T14:25:41Z</time>
      </trkpt>
      <trkpt lat="49.0099" lon="1.06345">
        <ele>116.45678710938</ele>
        <time>2011-02-11T14:25:42Z</time>
      </trkpt>
      <trkpt lat="49.00996" lon="1.06337">
        <ele>115.97619628906</ele>
        <time>2011-02-11T14:25:43Z</time>
      </trkpt>
      <trkpt lat="49.0104" lon="1.06245">
        <ele>112.61157226562</ele>
        <time>2011-02-11T14:25:52Z</time>
      </trkpt>
      <trkpt lat="49.01052" lon="1.06221">
        <ele>116.9375</ele>
        <time>2011-02-11T14:25:55Z</time>
      </trkpt>
      <trkpt lat="49.01056" lon="1.06215">
        <ele>116.45678710938</ele>
        <time>2011-02-11T14:25:56Z</time>
      </trkpt>
      <trkpt lat="49.01064" lon="1.06203">
        <ele>116.9375</ele>
        <time>2011-02-11T14:25:58Z</time>
      </trkpt>
      <trkpt lat="49.01136" lon="1.06151">
        <ele>119.3408203125</ele>
        <time>2011-02-11T14:26:14Z</time>
      </trkpt>
      <trkpt lat="49.01157" lon="1.0614">
        <ele>116.9375</ele>
        <time>2011-02-11T14:26:19Z</time>
      </trkpt>
      <trkpt lat="49.01173" lon="1.06131">
        <ele>116.45678710938</ele>
        <time>2011-02-11T14:26:23Z</time>
      </trkpt>
      <trkpt lat="49.01178" lon="1.06129">
        <ele>119.82141113281</ele>
        <time>2011-02-11T14:26:24Z</time>
      </trkpt>
      <trkpt lat="49.01182" lon="1.06127">
        <ele>117.41821289062</ele>
        <time>2011-02-11T14:26:25Z</time>
      </trkpt>
      <trkpt lat="49.01251" lon="1.06094">
        <ele>117.89880371094</ele>
        <time>2011-02-11T14:26:42Z</time>
      </trkpt>
      <trkpt lat="49.01276" lon="1.06094">
        <ele>120.78283691406</ele>
        <time>2011-02-11T14:26:48Z</time>
      </trkpt>
      <trkpt lat="49.01314" lon="1.06086">
        <ele>116.9375</ele>
        <time>2011-02-11T14:26:57Z</time>
      </trkpt>
      <trkpt lat="49.01319" lon="1.06084">
        <ele>119.3408203125</ele>
        <time>2011-02-11T14:26:58Z</time>
      </trkpt>
      <trkpt lat="49.01361" lon="1.06061">
        <ele>117.41821289062</ele>
        <time>2011-02-11T14:27:06Z</time>
      </trkpt>
      <trkpt lat="49.01392" lon="1.06003">
        <ele>114.5341796875</ele>
        <time>2011-02-11T14:27:13Z</time>
      </trkpt>
      <trkpt lat="49.01395" lon="1.0598">
        <ele>117.41821289062</ele>
        <time>2011-02-11T14:27:15Z</time>
      </trkpt>
      <trkpt lat="49.01395" lon="1.05969">
        <ele>118.37939453125</ele>
        <time>2011-02-11T14:27:16Z</time>
      </trkpt>
      <trkpt lat="49.01396" lon="1.05947">
        <ele>115.49560546875</ele>
        <time>2011-02-11T14:27:18Z</time>
      </trkpt>
      <trkpt lat="49.01396" lon="1.05936">
        <ele>112.13098144531</ele>
        <time>2011-02-11T14:27:19Z</time>
      </trkpt>
      <trkpt lat="49.01396" lon="1.05926">
        <ele>111.16955566406</ele>
        <time>2011-02-11T14:27:20Z</time>
      </trkpt>
      <trkpt lat="49.01401" lon="1.05899">
        <ele>109.72766113281</ele>
        <time>2011-02-11T14:27:23Z</time>
      </trkpt>
      <trkpt lat="49.01406" lon="1.05893">
        <ele>110.68884277344</ele>
        <time>2011-02-11T14:27:24Z</time>
      </trkpt>
      <trkpt lat="49.01427" lon="1.059">
        <ele>108.28564453125</ele>
        <time>2011-02-11T14:27:27Z</time>
      </trkpt>
      <trkpt lat="49.01445" lon="1.05946">
        <ele>107.80505371094</ele>
        <time>2011-02-11T14:27:31Z</time>
      </trkpt>
      <trkpt lat="49.0145" lon="1.05974">
        <ele>104.92102050781</ele>
        <time>2011-02-11T14:27:33Z</time>
      </trkpt>
      <trkpt lat="49.01453" lon="1.05988">
        <ele>99.6337890625</ele>
        <time>2011-02-11T14:27:34Z</time>
      </trkpt>
      <trkpt lat="49.01455" lon="1.06002">
        <ele>104.4404296875</ele>
        <time>2011-02-11T14:27:35Z</time>
      </trkpt>
      <trkpt lat="49.01463" lon="1.06031">
        <ele>99.153076171875</ele>
        <time>2011-02-11T14:27:37Z</time>
      </trkpt>
      <trkpt lat="49.01487" lon="1.06102">
        <ele>95.307739257812</ele>
        <time>2011-02-11T14:27:42Z</time>
      </trkpt>
      <trkpt lat="49.01529" lon="1.06191">
        <ele>95.788452148438</ele>
        <time>2011-02-11T14:27:49Z</time>
      </trkpt>
      <trkpt lat="49.01561" lon="1.06223">
        <ele>98.19189453125</ele>
        <time>2011-02-11T14:27:54Z</time>
      </trkpt>
      <trkpt lat="49.01571" lon="1.06229">
        <ele>102.037109375</ele>
        <time>2011-02-11T14:27:56Z</time>
      </trkpt>
      <trkpt lat="49.01575" lon="1.06231">
        <ele>102.037109375</ele>
        <time>2011-02-11T14:27:57Z</time>
      </trkpt>
      <trkpt lat="49.01593" lon="1.06242">
        <ele>103.47900390625</ele>
        <time>2011-02-11T14:28:06Z</time>
      </trkpt>
      <trkpt lat="49.01597" lon="1.06243">
        <ele>104.92102050781</ele>
        <time>2011-02-11T14:28:08Z</time>
      </trkpt>
      <trkpt lat="49.01609" lon="1.06237">
        <ele>106.84362792969</ele>
        <time>2011-02-11T14:28:13Z</time>
      </trkpt>
      <trkpt lat="49.01625" lon="1.06216">
        <ele>111.16955566406</ele>
        <time>2011-02-11T14:28:23Z</time>
      </trkpt>
      <trkpt lat="49.01655" lon="1.06166">
        <ele>112.61157226562</ele>
        <time>2011-02-11T14:28:43Z</time>
      </trkpt>
      <trkpt lat="49.01664" lon="1.06158">
        <ele>114.05358886719</ele>
        <time>2011-02-11T14:28:48Z</time>
      </trkpt>
      <trkpt lat="49.01674" lon="1.06151">
        <ele>116.45678710938</ele>
        <time>2011-02-11T14:28:54Z</time>
      </trkpt>
      <trkpt lat="49.01692" lon="1.06144">
        <ele>115.97619628906</ele>
        <time>2011-02-11T14:29:04Z</time>
      </trkpt>
      <trkpt lat="49.01706" lon="1.06138">
        <ele>116.9375</ele>
        <time>2011-02-11T14:29:11Z</time>
      </trkpt>
      <trkpt lat="49.01711" lon="1.06137">
        <ele>119.82141113281</ele>
        <time>2011-02-11T14:29:14Z</time>
      </trkpt>
      <trkpt lat="49.01717" lon="1.06136">
        <ele>116.9375</ele>
        <time>2011-02-11T14:29:17Z</time>
      </trkpt>
      <trkpt lat="49.01749" lon="1.06135">
        <ele>115.49560546875</ele>
        <time>2011-02-11T14:29:29Z</time>
      </trkpt>
      <trkpt lat="49.01818" lon="1.06121">
        <ele>120.78283691406</ele>
        <time>2011-02-11T14:29:45Z</time>
      </trkpt>
      <trkpt lat="49.01822" lon="1.06119">
        <ele>117.41821289062</ele>
        <time>2011-02-11T14:29:46Z</time>
      </trkpt>
      <trkpt lat="49.01865" lon="1.06104">
        <ele>114.05358886719</ele>
        <time>2011-02-11T14:29:56Z</time>
      </trkpt>
      <trkpt lat="49.01869" lon="1.06102">
        <ele>117.41821289062</ele>
        <time>2011-02-11T14:29:57Z</time>
      </trkpt>
      <trkpt lat="49.01885" lon="1.06098">
        <ele>113.57299804688</ele>
        <time>2011-02-11T14:30:00Z</time>
      </trkpt>
      <trkpt lat="49.01916" lon="1.06089">
        <ele>113.09228515625</ele>
        <time>2011-02-11T14:30:05Z</time>
      </trkpt>
      <trkpt lat="49.02027" lon="1.06046">
        <ele>114.05358886719</ele>
        <time>2011-02-11T14:30:23Z</time>
      </trkpt>
      <trkpt lat="49.02063" lon="1.06037">
        <ele>117.41821289062</ele>
        <time>2011-02-11T14:30:30Z</time>
      </trkpt>
      <trkpt lat="49.02115" lon="1.06044">
        <ele>116.9375</ele>
        <time>2011-02-11T14:30:41Z</time>
      </trkpt>
      <trkpt lat="49.02119" lon="1.06045">
        <ele>115.49560546875</ele>
        <time>2011-02-11T14:30:42Z</time>
      </trkpt>
      <trkpt lat="49.02154" lon="1.06055">
        <ele>119.3408203125</ele>
        <time>2011-02-11T14:30:49Z</time>
      </trkpt>
      <trkpt lat="49.02209" lon="1.06065">
        <ele>115.97619628906</ele>
        <time>2011-02-11T14:30:59Z</time>
      </trkpt>
      <trkpt lat="49.02247" lon="1.0607">
        <ele>117.41821289062</ele>
        <time>2011-02-11T14:31:05Z</time>
      </trkpt>
      <trkpt lat="49.02315" lon="1.06095">
        <ele>113.57299804688</ele>
        <time>2011-02-11T14:31:17Z</time>
      </trkpt>
      <trkpt lat="49.0232" lon="1.06097">
        <ele>117.41821289062</ele>
        <time>2011-02-11T14:31:18Z</time>
      </trkpt>
      <trkpt lat="49.0233" lon="1.06101">
        <ele>118.37939453125</ele>
        <time>2011-02-11T14:31:20Z</time>
      </trkpt>
      <trkpt lat="49.02361" lon="1.0611">
        <ele>122.22473144531</ele>
        <time>2011-02-11T14:31:27Z</time>
      </trkpt>
      <trkpt lat="49.02374" lon="1.06115">
        <ele>118.37939453125</ele>
        <time>2011-02-11T14:31:30Z</time>
      </trkpt>
      <trkpt lat="49.02383" lon="1.06119">
        <ele>118.86010742188</ele>
        <time>2011-02-11T14:31:32Z</time>
      </trkpt>
      <trkpt lat="49.02393" lon="1.06129">
        <ele>120.30212402344</ele>
        <time>2011-02-11T14:31:35Z</time>
      </trkpt>
      <trkpt lat="49.02436" lon="1.06181">
        <ele>123.18615722656</ele>
        <time>2011-02-11T14:31:48Z</time>
      </trkpt>
      <trkpt lat="49.02475" lon="1.06201">
        <ele>119.82141113281</ele>
        <time>2011-02-11T14:31:57Z</time>
      </trkpt>
      <trkpt lat="49.0256" lon="1.06209">
        <ele>123.18615722656</ele>
        <time>2011-02-11T14:32:12Z</time>
      </trkpt>
      <trkpt lat="49.02581" lon="1.06207">
        <ele>119.82141113281</ele>
        <time>2011-02-11T14:32:16Z</time>
      </trkpt>
      <trkpt lat="49.02592" lon="1.06207">
        <ele>121.26354980469</ele>
        <time>2011-02-11T14:32:18Z</time>
      </trkpt>
      <trkpt lat="49.02639" lon="1.06203">
        <ele>123.18615722656</ele>
        <time>2011-02-11T14:32:27Z</time>
      </trkpt>
      <trkpt lat="49.0265" lon="1.06201">
        <ele>121.744140625</ele>
        <time>2011-02-11T14:32:29Z</time>
      </trkpt>
      <trkpt lat="49.02671" lon="1.06199">
        <ele>122.22473144531</ele>
        <time>2011-02-11T14:32:33Z</time>
      </trkpt>
      <trkpt lat="49.02681" lon="1.06197">
        <ele>123.18615722656</ele>
        <time>2011-02-11T14:32:35Z</time>
      </trkpt>
      <trkpt lat="49.02722" lon="1.0619">
        <ele>125.10876464844</ele>
        <time>2011-02-11T14:32:43Z</time>
      </trkpt>
      <trkpt lat="49.0274" lon="1.06183">
        <ele>122.22473144531</ele>
        <time>2011-02-11T14:32:47Z</time>
      </trkpt>
      <trkpt lat="49.02765" lon="1.06172">
        <ele>126.55065917969</ele>
        <time>2011-02-11T14:32:52Z</time>
      </trkpt>
      <trkpt lat="49.02776" lon="1.06167">
        <ele>121.744140625</ele>
        <time>2011-02-11T14:32:54Z</time>
      </trkpt>
      <trkpt lat="49.02782" lon="1.06164">
        <ele>123.18615722656</ele>
        <time>2011-02-11T14:32:55Z</time>
      </trkpt>
      <trkpt lat="49.02879" lon="1.06145">
        <ele>120.30212402344</ele>
        <time>2011-02-11T14:33:10Z</time>
      </trkpt>
      <trkpt lat="49.02894" lon="1.06145">
        <ele>121.744140625</ele>
        <time>2011-02-11T14:33:12Z</time>
      </trkpt>
      <trkpt lat="49.0291" lon="1.06146">
        <ele>119.82141113281</ele>
        <time>2011-02-11T14:33:14Z</time>
      </trkpt>
      <trkpt lat="49.02958" lon="1.06157">
        <ele>120.78283691406</ele>
        <time>2011-02-11T14:33:20Z</time>
      </trkpt>
      <trkpt lat="49.02966" lon="1.06159">
        <ele>117.41821289062</ele>
        <time>2011-02-11T14:33:21Z</time>
      </trkpt>
      <trkpt lat="49.02974" lon="1.06161">
        <ele>116.9375</ele>
        <time>2011-02-11T14:33:22Z</time>
      </trkpt>
      <trkpt lat="49.02998" lon="1.06165">
        <ele>117.89880371094</ele>
        <time>2011-02-11T14:33:25Z</time>
      </trkpt>
      <trkpt lat="49.03045" lon="1.06131">
        <ele>116.9375</ele>
        <time>2011-02-11T14:33:32Z</time>
      </trkpt>
      <trkpt lat="49.03053" lon="1.06116">
        <ele>118.37939453125</ele>
        <time>2011-02-11T14:33:34Z</time>
      </trkpt>
      <trkpt lat="49.0306" lon="1.06102">
        <ele>118.37939453125</ele>
        <time>2011-02-11T14:33:36Z</time>
      </trkpt>
      <trkpt lat="49.03068" lon="1.06092">
        <ele>119.3408203125</ele>
        <time>2011-02-11T14:33:38Z</time>
      </trkpt>
      <trkpt lat="49.03087" lon="1.06099">
        <ele>122.70544433594</ele>
        <time>2011-02-11T14:33:44Z</time>
      </trkpt>
      <trkpt lat="49.03116" lon="1.06163">
        <ele>125.10876464844</ele>
        <time>2011-02-11T14:33:58Z</time>
      </trkpt>
      <trkpt lat="49.03128" lon="1.06201">
        <ele>126.06994628906</ele>
        <time>2011-02-11T14:34:06Z</time>
      </trkpt>
      <trkpt lat="49.03129" lon="1.06205">
        <ele>125.58935546875</ele>
        <time>2011-02-11T14:34:07Z</time>
      </trkpt>
      <trkpt lat="49.03144" lon="1.06252">
        <ele>127.03137207031</ele>
        <time>2011-02-11T14:34:18Z</time>
      </trkpt>
      <trkpt lat="49.03146" lon="1.06268">
        <ele>127.51196289062</ele>
        <time>2011-02-11T14:34:22Z</time>
      </trkpt>
      <trkpt lat="49.03158" lon="1.06293">
        <ele>128.47338867188</ele>
        <time>2011-02-11T14:34:29Z</time>
      </trkpt>
      <trkpt lat="49.03181" lon="1.06339">
        <ele>131.35729980469</ele>
        <time>2011-02-11T14:34:45Z</time>
      </trkpt>
      <trkpt lat="49.03184" lon="1.06346">
        <ele>128.47338867188</ele>
        <time>2011-02-11T14:34:47Z</time>
      </trkpt>
      <trkpt lat="49.03186" lon="1.06349">
        <ele>131.837890625</ele>
        <time>2011-02-11T14:34:48Z</time>
      </trkpt>
      <trkpt lat="49.03188" lon="1.06356">
        <ele>130.39599609375</ele>
        <time>2011-02-11T14:34:50Z</time>
      </trkpt>
      <trkpt lat="49.03214" lon="1.06426">
        <ele>130.87670898438</ele>
        <time>2011-02-11T14:35:06Z</time>
      </trkpt>
      <trkpt lat="49.03226" lon="1.06455">
        <ele>134.2412109375</ele>
        <time>2011-02-11T14:35:13Z</time>
      </trkpt>
      <trkpt lat="49.03233" lon="1.06469">
        <ele>130.87670898438</ele>
        <time>2011-02-11T14:35:17Z</time>
      </trkpt>
      <trkpt lat="49.03248" lon="1.06495">
        <ele>132.31860351562</ele>
        <time>2011-02-11T14:35:24Z</time>
      </trkpt>
      <trkpt lat="49.0326" lon="1.06515">
        <ele>131.837890625</ele>
        <time>2011-02-11T14:35:29Z</time>
      </trkpt>
      <trkpt lat="49.03327" lon="1.06563">
        <ele>133.27990722656</ele>
        <time>2011-02-11T14:35:47Z</time>
      </trkpt>
      <trkpt lat="49.03368" lon="1.06567">
        <ele>132.79931640625</ele>
        <time>2011-02-11T14:36:00Z</time>
      </trkpt>
      <trkpt lat="49.03361" lon="1.06629">
        <ele>132.31860351562</ele>
        <time>2011-02-11T14:36:10Z</time>
      </trkpt>
      <trkpt lat="49.03327" lon="1.0681">
        <ele>129.91528320312</ele>
        <time>2011-02-11T14:36:33Z</time>
      </trkpt>
      <trkpt lat="49.03324" lon="1.06826">
        <ele>132.31860351562</ele>
        <time>2011-02-11T14:36:35Z</time>
      </trkpt>
      <trkpt lat="49.03284" lon="1.07018">
        <ele>128.9541015625</ele>
        <time>2011-02-11T14:36:57Z</time>
      </trkpt>
      <trkpt lat="49.03261" lon="1.07127">
        <ele>125.10876464844</ele>
        <time>2011-02-11T14:37:08Z</time>
      </trkpt>
      <trkpt lat="49.03243" lon="1.07336">
        <ele>124.62805175781</ele>
        <time>2011-02-11T14:37:27Z</time>
      </trkpt>
      <trkpt lat="49.03243" lon="1.07347">
        <ele>124.62805175781</ele>
        <time>2011-02-11T14:37:28Z</time>
      </trkpt>
      <trkpt lat="49.03237" lon="1.07459">
        <ele>125.10876464844</ele>
        <time>2011-02-11T14:37:39Z</time>
      </trkpt>
      <trkpt lat="49.03233" lon="1.07549">
        <ele>121.744140625</ele>
        <time>2011-02-11T14:37:48Z</time>
      </trkpt>
      <trkpt lat="49.03233" lon="1.07559">
        <ele>122.22473144531</ele>
        <time>2011-02-11T14:37:49Z</time>
      </trkpt>
      <trkpt lat="49.0323" lon="1.07605">
        <ele>124.62805175781</ele>
        <time>2011-02-11T14:37:54Z</time>
      </trkpt>
      <trkpt lat="49.03236" lon="1.07761">
        <ele>127.03137207031</ele>
        <time>2011-02-11T14:38:13Z</time>
      </trkpt>
      <trkpt lat="49.03245" lon="1.07863">
        <ele>124.14733886719</ele>
        <time>2011-02-11T14:38:25Z</time>
      </trkpt>
      <trkpt lat="49.03255" lon="1.08075">
        <ele>123.66674804688</ele>
        <time>2011-02-11T14:38:48Z</time>
      </trkpt>
      <trkpt lat="49.03244" lon="1.08315">
        <ele>125.10876464844</ele>
        <time>2011-02-11T14:39:14Z</time>
      </trkpt>
      <trkpt lat="49.03268" lon="1.08485">
        <ele>126.06994628906</ele>
        <time>2011-02-11T14:39:35Z</time>
      </trkpt>
      <trkpt lat="49.03332" lon="1.08649">
        <ele>127.51196289062</ele>
        <time>2011-02-11T14:39:58Z</time>
      </trkpt>
      <trkpt lat="49.03435" lon="1.08839">
        <ele>128.47338867188</ele>
        <time>2011-02-11T14:40:25Z</time>
      </trkpt>
      <trkpt lat="49.03525" lon="1.08913">
        <ele>130.39599609375</ele>
        <time>2011-02-11T14:40:44Z</time>
      </trkpt>
      <trkpt lat="49.03555" lon="1.08923">
        <ele>130.87670898438</ele>
        <time>2011-02-11T14:40:50Z</time>
      </trkpt>
      <trkpt lat="49.03558" lon="1.08952">
        <ele>128.9541015625</ele>
        <time>2011-02-11T14:40:56Z</time>
      </trkpt>
      <trkpt lat="49.03526" lon="1.09068">
        <ele>130.87670898438</ele>
        <time>2011-02-11T14:41:15Z</time>
      </trkpt>
      <trkpt lat="49.03493" lon="1.09123">
        <ele>131.35729980469</ele>
        <time>2011-02-11T14:41:28Z</time>
      </trkpt>
      <trkpt lat="49.03443" lon="1.09198">
        <ele>132.79931640625</ele>
        <time>2011-02-11T14:41:45Z</time>
      </trkpt>
      <trkpt lat="49.03382" lon="1.09292">
        <ele>133.27990722656</ele>
        <time>2011-02-11T14:42:05Z</time>
      </trkpt>
      <trkpt lat="49.03367" lon="1.09313">
        <ele>132.79931640625</ele>
        <time>2011-02-11T14:42:10Z</time>
      </trkpt>
      <trkpt lat="49.03357" lon="1.09341">
        <ele>131.837890625</ele>
        <time>2011-02-11T14:42:20Z</time>
      </trkpt>
      <trkpt lat="49.03342" lon="1.09417">
        <ele>130.87670898438</ele>
        <time>2011-02-11T14:42:34Z</time>
      </trkpt>
      <trkpt lat="49.03314" lon="1.0955">
        <ele>129.91528320312</ele>
        <time>2011-02-11T14:42:52Z</time>
      </trkpt>
      <trkpt lat="49.03294" lon="1.09733">
        <ele>128.9541015625</ele>
        <time>2011-02-11T14:43:16Z</time>
      </trkpt>
      <trkpt lat="49.03293" lon="1.09801">
        <ele>129.43469238281</ele>
        <time>2011-02-11T14:43:27Z</time>
      </trkpt>
      <trkpt lat="49.03297" lon="1.0979">
        <ele>129.43469238281</ele>
        <time>2011-02-11T14:43:34Z</time>
      </trkpt>
      <trkpt lat="49.03303" lon="1.09667">
        <ele>129.91528320312</ele>
        <time>2011-02-11T14:43:53Z</time>
      </trkpt>
      <trkpt lat="49.03319" lon="1.09552">
        <ele>129.43469238281</ele>
        <time>2011-02-11T14:44:11Z</time>
      </trkpt>
      <trkpt lat="49.03346" lon="1.09432">
        <ele>132.79931640625</ele>
        <time>2011-02-11T14:44:31Z</time>
      </trkpt>
      <trkpt lat="49.0335" lon="1.09415">
        <ele>135.20251464844</ele>
        <time>2011-02-11T14:44:34Z</time>
      </trkpt>
      <trkpt lat="49.03351" lon="1.09409">
        <ele>131.35729980469</ele>
        <time>2011-02-11T14:44:35Z</time>
      </trkpt>
      <trkpt lat="49.03353" lon="1.09398">
        <ele>135.68310546875</ele>
        <time>2011-02-11T14:44:37Z</time>
      </trkpt>
      <trkpt lat="49.03354" lon="1.09393">
        <ele>131.837890625</ele>
        <time>2011-02-11T14:44:38Z</time>
      </trkpt>
      <trkpt lat="49.03356" lon="1.09388">
        <ele>132.31860351562</ele>
        <time>2011-02-11T14:44:39Z</time>
      </trkpt>
      <trkpt lat="49.03362" lon="1.09362">
        <ele>135.68310546875</ele>
        <time>2011-02-11T14:44:44Z</time>
      </trkpt>
      <trkpt lat="49.03363" lon="1.0935">
        <ele>130.39599609375</ele>
        <time>2011-02-11T14:44:46Z</time>
      </trkpt>
      <trkpt lat="49.03363" lon="1.09344">
        <ele>135.20251464844</ele>
        <time>2011-02-11T14:44:47Z</time>
      </trkpt>
      <trkpt lat="49.03361" lon="1.09329">
        <ele>135.68310546875</ele>
        <time>2011-02-11T14:44:50Z</time>
      </trkpt>
      <trkpt lat="49.03356" lon="1.0932">
        <ele>132.79931640625</ele>
        <time>2011-02-11T14:44:52Z</time>
      </trkpt>
      <trkpt lat="49.03353" lon="1.09318">
        <ele>134.2412109375</ele>
        <time>2011-02-11T14:44:53Z</time>
      </trkpt>
      <trkpt lat="49.03339" lon="1.09321">
        <ele>130.39599609375</ele>
        <time>2011-02-11T14:44:57Z</time>
      </trkpt>
      <trkpt lat="49.03332" lon="1.09323">
        <ele>132.79931640625</ele>
        <time>2011-02-11T14:44:59Z</time>
      </trkpt>
      <trkpt lat="49.03316" lon="1.09321">
        <ele>129.91528320312</ele>
        <time>2011-02-11T14:45:03Z</time>
      </trkpt>
      <trkpt lat="49.03308" lon="1.09321">
        <ele>132.31860351562</ele>
        <time>2011-02-11T14:45:05Z</time>
      </trkpt>
      <trkpt lat="49.03298" lon="1.09321">
        <ele>128.9541015625</ele>
        <time>2011-02-11T14:45:07Z</time>
      </trkpt>
      <trkpt lat="49.03186" lon="1.09325">
        <ele>126.06994628906</ele>
        <time>2011-02-11T14:45:28Z</time>
      </trkpt>
      <trkpt lat="49.03165" lon="1.09326">
        <ele>128.9541015625</ele>
        <time>2011-02-11T14:45:33Z</time>
      </trkpt>
      <trkpt lat="49.03161" lon="1.09326">
        <ele>123.66674804688</ele>
        <time>2011-02-11T14:45:34Z</time>
      </trkpt>
      <trkpt lat="49.03134" lon="1.09323">
        <ele>129.43469238281</ele>
        <time>2011-02-11T14:45:40Z</time>
      </trkpt>
      <trkpt lat="49.03129" lon="1.09322">
        <ele>126.06994628906</ele>
        <time>2011-02-11T14:45:41Z</time>
      </trkpt>
      <trkpt lat="49.03092" lon="1.09321">
        <ele>125.58935546875</ele>
        <time>2011-02-11T14:45:49Z</time>
      </trkpt>
      <trkpt lat="49.03044" lon="1.09321">
        <ele>130.87670898438</ele>
        <time>2011-02-11T14:46:01Z</time>
      </trkpt>
      <trkpt lat="49.0304" lon="1.0932">
        <ele>129.91528320312</ele>
        <time>2011-02-11T14:46:02Z</time>
      </trkpt>
      <trkpt lat="49.03036" lon="1.0932">
        <ele>123.66674804688</ele>
        <time>2011-02-11T14:46:03Z</time>
      </trkpt>
      <trkpt lat="49.03032" lon="1.0932">
        <ele>130.39599609375</ele>
        <time>2011-02-11T14:46:04Z</time>
      </trkpt>
      <trkpt lat="49.03024" lon="1.09319">
        <ele>126.55065917969</ele>
        <time>2011-02-11T14:46:06Z</time>
      </trkpt>
      <trkpt lat="49.02997" lon="1.09318">
        <ele>127.51196289062</ele>
        <time>2011-02-11T14:46:13Z</time>
      </trkpt>
      <trkpt lat="49.02982" lon="1.09318">
        <ele>128.9541015625</ele>
        <time>2011-02-11T14:46:17Z</time>
      </trkpt>
      <trkpt lat="49.02961" lon="1.09318">
        <ele>127.99255371094</ele>
        <time>2011-02-11T14:46:23Z</time>
      </trkpt>
      <trkpt lat="49.02952" lon="1.09317">
        <ele>127.03137207031</ele>
        <time>2011-02-11T14:46:26Z</time>
      </trkpt>
      <trkpt lat="49.02942" lon="1.09317">
        <ele>123.66674804688</ele>
        <time>2011-02-11T14:46:29Z</time>
      </trkpt>
      <trkpt lat="49.02937" lon="1.09317">
        <ele>127.99255371094</ele>
        <time>2011-02-11T14:46:31Z</time>
      </trkpt>
      <trkpt lat="49.02934" lon="1.09317">
        <ele>127.03137207031</ele>
        <time>2011-02-11T14:46:32Z</time>
      </trkpt>
      <trkpt lat="49.02929" lon="1.09317">
        <ele>130.39599609375</ele>
        <time>2011-02-11T14:46:34Z</time>
      </trkpt>
      <trkpt lat="49.02926" lon="1.09317">
        <ele>129.91528320312</ele>
        <time>2011-02-11T14:46:35Z</time>
      </trkpt>
      <trkpt lat="49.0292" lon="1.09316">
        <ele>129.43469238281</ele>
        <time>2011-02-11T14:46:37Z</time>
      </trkpt>
      <trkpt lat="49.02917" lon="1.09316">
        <ele>132.79931640625</ele>
        <time>2011-02-11T14:46:38Z</time>
      </trkpt>
      <trkpt lat="49.02914" lon="1.09316">
        <ele>129.43469238281</ele>
        <time>2011-02-11T14:46:39Z</time>
      </trkpt>
      <trkpt lat="49.02908" lon="1.09316">
        <ele>127.03137207031</ele>
        <time>2011-02-11T14:46:41Z</time>
      </trkpt>
      <trkpt lat="49.02886" lon="1.09316">
        <ele>130.39599609375</ele>
        <time>2011-02-11T14:46:49Z</time>
      </trkpt>
      <trkpt lat="49.02869" lon="1.09317">
        <ele>129.43469238281</ele>
        <time>2011-02-11T14:46:55Z</time>
      </trkpt>
      <trkpt lat="49.02833" lon="1.09322">
        <ele>127.51196289062</ele>
        <time>2011-02-11T14:47:07Z</time>
      </trkpt>
      <trkpt lat="49.0282" lon="1.09327">
        <ele>130.87670898438</ele>
        <time>2011-02-11T14:47:11Z</time>
      </trkpt>
      <trkpt lat="49.02816" lon="1.09329">
        <ele>126.55065917969</ele>
        <time>2011-02-11T14:47:12Z</time>
      </trkpt>
      <trkpt lat="49.02791" lon="1.09345">
        <ele>129.91528320312</ele>
        <time>2011-02-11T14:47:20Z</time>
      </trkpt>
      <trkpt lat="49.02757" lon="1.09356">
        <ele>126.55065917969</ele>
        <time>2011-02-11T14:47:32Z</time>
      </trkpt>
      <trkpt lat="49.02756" lon="1.09356">
        <ele>127.51196289062</ele>
        <time>2011-02-11T14:47:33Z</time>
      </trkpt>
      <trkpt lat="49.02754" lon="1.09358">
        <ele>129.43469238281</ele>
        <time>2011-02-11T14:47:35Z</time>
      </trkpt>
      <trkpt lat="49.02753" lon="1.0936">
        <ele>125.10876464844</ele>
        <time>2011-02-11T14:47:36Z</time>
      </trkpt>
      <trkpt lat="49.02749" lon="1.09376">
        <ele>127.51196289062</ele>
        <time>2011-02-11T14:47:42Z</time>
      </trkpt>
      <trkpt lat="49.02733" lon="1.09388">
        <ele>127.99255371094</ele>
        <time>2011-02-11T14:47:51Z</time>
      </trkpt>
      <trkpt lat="49.02723" lon="1.09395">
        <ele>124.14733886719</ele>
        <time>2011-02-11T14:47:55Z</time>
      </trkpt>
      <trkpt lat="49.02721" lon="1.09398">
        <ele>124.62805175781</ele>
        <time>2011-02-11T14:47:56Z</time>
      </trkpt>
      <trkpt lat="49.02715" lon="1.09401">
        <ele>125.58935546875</ele>
        <time>2011-02-11T14:47:59Z</time>
      </trkpt>
      <trkpt lat="49.02712" lon="1.094">
        <ele>124.62805175781</ele>
        <time>2011-02-11T14:48:02Z</time>
      </trkpt>
      <trkpt lat="49.02712" lon="1.094">
        <ele>120.78283691406</ele>
        <time>2011-02-11T14:48:03Z</time>
      </trkpt>
      <trkpt lat="49.02712" lon="1.094">
        <ele>123.18615722656</ele>
        <time>2011-02-11T14:48:04Z</time>
      </trkpt>
      <trkpt lat="49.0271" lon="1.09403">
        <ele>125.10876464844</ele>
        <time>2011-02-11T14:48:06Z</time>
      </trkpt>
      <trkpt lat="49.02711" lon="1.09403">
        <ele>125.10876464844</ele>
        <time>2011-02-11T14:48:08Z</time>
      </trkpt>
      <trkpt lat="49.02716" lon="1.094">
        <ele>122.70544433594</ele>
        <time>2011-02-11T14:48:11Z</time>
      </trkpt>
      <trkpt lat="49.02719" lon="1.09396">
        <ele>127.03137207031</ele>
        <time>2011-02-11T14:48:13Z</time>
      </trkpt>
      <trkpt lat="49.02721" lon="1.09392">
        <ele>123.18615722656</ele>
        <time>2011-02-11T14:48:15Z</time>
      </trkpt>
      <trkpt lat="49.02723" lon="1.09391">
        <ele>125.58935546875</ele>
        <time>2011-02-11T14:48:16Z</time>
      </trkpt>
      <trkpt lat="49.02731" lon="1.09386">
        <ele>126.55065917969</ele>
        <time>2011-02-11T14:48:19Z</time>
      </trkpt>
      <trkpt lat="49.02732" lon="1.09384">
        <ele>128.47338867188</ele>
        <time>2011-02-11T14:48:20Z</time>
      </trkpt>
      <trkpt lat="49.02736" lon="1.0938">
        <ele>124.62805175781</ele>
        <time>2011-02-11T14:48:22Z</time>
      </trkpt>
      <trkpt lat="49.02739" lon="1.09377">
        <ele>127.03137207031</ele>
        <time>2011-02-11T14:48:23Z</time>
      </trkpt>
      <trkpt lat="49.02741" lon="1.09373">
        <ele>130.87670898438</ele>
        <time>2011-02-11T14:48:24Z</time>
      </trkpt>
      <trkpt lat="49.02744" lon="1.09368">
        <ele>127.03137207031</ele>
        <time>2011-02-11T14:48:25Z</time>
      </trkpt>
      <trkpt lat="49.02752" lon="1.09339">
        <ele>127.51196289062</ele>
        <time>2011-02-11T14:48:31Z</time>
      </trkpt>
      <trkpt lat="49.02762" lon="1.09292">
        <ele>131.35729980469</ele>
        <time>2011-02-11T14:48:41Z</time>
      </trkpt>
      <trkpt lat="49.02763" lon="1.09287">
        <ele>127.03137207031</ele>
        <time>2011-02-11T14:48:42Z</time>
      </trkpt>
      <trkpt lat="49.02765" lon="1.09278">
        <ele>131.35729980469</ele>
        <time>2011-02-11T14:48:44Z</time>
      </trkpt>
      <trkpt lat="49.02767" lon="1.09269">
        <ele>127.03137207031</ele>
        <time>2011-02-11T14:48:46Z</time>
      </trkpt>
      <trkpt lat="49.02768" lon="1.09265">
        <ele>127.03137207031</ele>
        <time>2011-02-11T14:48:47Z</time>
      </trkpt>
      <trkpt lat="49.02772" lon="1.09241">
        <ele>130.39599609375</ele>
        <time>2011-02-11T14:48:52Z</time>
      </trkpt>
      <trkpt lat="49.02773" lon="1.09231">
        <ele>130.87670898438</ele>
        <time>2011-02-11T14:48:54Z</time>
      </trkpt>
      <trkpt lat="49.02774" lon="1.09208">
        <ele>127.03137207031</ele>
        <time>2011-02-11T14:48:59Z</time>
      </trkpt>
      <trkpt lat="49.02774" lon="1.09203">
        <ele>130.87670898438</ele>
        <time>2011-02-11T14:49:00Z</time>
      </trkpt>
      <trkpt lat="49.02767" lon="1.09142">
        <ele>129.91528320312</ele>
        <time>2011-02-11T14:49:12Z</time>
      </trkpt>
      <trkpt lat="49.02754" lon="1.09067">
        <ele>126.06994628906</ele>
        <time>2011-02-11T14:49:27Z</time>
      </trkpt>
      <trkpt lat="49.02753" lon="1.09062">
        <ele>127.51196289062</ele>
        <time>2011-02-11T14:49:28Z</time>
      </trkpt>
      <trkpt lat="49.02752" lon="1.09052">
        <ele>131.837890625</ele>
        <time>2011-02-11T14:49:30Z</time>
      </trkpt>
      <trkpt lat="49.02752" lon="1.09047">
        <ele>127.99255371094</ele>
        <time>2011-02-11T14:49:31Z</time>
      </trkpt>
      <trkpt lat="49.02751" lon="1.09041">
        <ele>131.837890625</ele>
        <time>2011-02-11T14:49:32Z</time>
      </trkpt>
      <trkpt lat="49.02751" lon="1.09036">
        <ele>126.55065917969</ele>
        <time>2011-02-11T14:49:33Z</time>
      </trkpt>
      <trkpt lat="49.0275" lon="1.09031">
        <ele>129.43469238281</ele>
        <time>2011-02-11T14:49:34Z</time>
      </trkpt>
      <trkpt lat="49.0275" lon="1.09005">
        <ele>130.87670898438</ele>
        <time>2011-02-11T14:49:39Z</time>
      </trkpt>
      <trkpt lat="49.0275" lon="1.08995">
        <ele>129.43469238281</ele>
        <time>2011-02-11T14:49:41Z</time>
      </trkpt>
      <trkpt lat="49.02751" lon="1.08911">
        <ele>127.51196289062</ele>
        <time>2011-02-11T14:49:57Z</time>
      </trkpt>
      <trkpt lat="49.02751" lon="1.08834">
        <ele>127.99255371094</ele>
        <time>2011-02-11T14:50:13Z</time>
      </trkpt>
      <trkpt lat="49.0275" lon="1.08826">
        <ele>124.14733886719</ele>
        <time>2011-02-11T14:50:15Z</time>
      </trkpt>
      <trkpt lat="49.0275" lon="1.08818">
        <ele>128.47338867188</ele>
        <time>2011-02-11T14:50:17Z</time>
      </trkpt>
      <trkpt lat="49.02751" lon="1.08793">
        <ele>127.03137207031</ele>
        <time>2011-02-11T14:50:22Z</time>
      </trkpt>
      <trkpt lat="49.02751" lon="1.08683">
        <ele>126.55065917969</ele>
        <time>2011-02-11T14:50:41Z</time>
      </trkpt>
      <trkpt lat="49.02751" lon="1.08672">
        <ele>128.47338867188</ele>
        <time>2011-02-11T14:50:43Z</time>
      </trkpt>
      <trkpt lat="49.02727" lon="1.08619">
        <ele>130.39599609375</ele>
        <time>2011-02-11T14:50:53Z</time>
      </trkpt>
      <trkpt lat="49.02724" lon="1.08613">
        <ele>127.51196289062</ele>
        <time>2011-02-11T14:50:54Z</time>
      </trkpt>
      <trkpt lat="49.02722" lon="1.08607">
        <ele>128.47338867188</ele>
        <time>2011-02-11T14:50:55Z</time>
      </trkpt>
      <trkpt lat="49.02701" lon="1.08553">
        <ele>124.62805175781</ele>
        <time>2011-02-11T14:51:02Z</time>
      </trkpt>
      <trkpt lat="49.02699" lon="1.08547">
        <ele>126.06994628906</ele>
        <time>2011-02-11T14:51:03Z</time>
      </trkpt>
      <trkpt lat="49.02694" lon="1.08534">
        <ele>121.26354980469</ele>
        <time>2011-02-11T14:51:05Z</time>
      </trkpt>
      <trkpt lat="49.02691" lon="1.08527">
        <ele>125.58935546875</ele>
        <time>2011-02-11T14:51:06Z</time>
      </trkpt>
      <trkpt lat="49.02688" lon="1.0852">
        <ele>122.22473144531</ele>
        <time>2011-02-11T14:51:07Z</time>
      </trkpt>
      <trkpt lat="49.02686" lon="1.08513">
        <ele>125.58935546875</ele>
        <time>2011-02-11T14:51:08Z</time>
      </trkpt>
      <trkpt lat="49.02671" lon="1.08474">
        <ele>124.62805175781</ele>
        <time>2011-02-11T14:51:14Z</time>
      </trkpt>
      <trkpt lat="49.02628" lon="1.08363">
        <ele>119.82141113281</ele>
        <time>2011-02-11T14:51:31Z</time>
      </trkpt>
      <trkpt lat="49.02623" lon="1.08351">
        <ele>123.18615722656</ele>
        <time>2011-02-11T14:51:33Z</time>
      </trkpt>
      <trkpt lat="49.0262" lon="1.08344">
        <ele>123.18615722656</ele>
        <time>2011-02-11T14:51:34Z</time>
      </trkpt>
      <trkpt lat="49.02609" lon="1.08318">
        <ele>127.51196289062</ele>
        <time>2011-02-11T14:51:38Z</time>
      </trkpt>
      <trkpt lat="49.02607" lon="1.08312">
        <ele>123.66674804688</ele>
        <time>2011-02-11T14:51:39Z</time>
      </trkpt>
      <trkpt lat="49.02581" lon="1.08246">
        <ele>119.82141113281</ele>
        <time>2011-02-11T14:51:49Z</time>
      </trkpt>
      <trkpt lat="49.02573" lon="1.08226">
        <ele>123.66674804688</ele>
        <time>2011-02-11T14:51:52Z</time>
      </trkpt>
      <trkpt lat="49.02563" lon="1.082">
        <ele>119.82141113281</ele>
        <time>2011-02-11T14:51:56Z</time>
      </trkpt>
      <trkpt lat="49.02541" lon="1.08156">
        <ele>123.66674804688</ele>
        <time>2011-02-11T14:52:04Z</time>
      </trkpt>
      <trkpt lat="49.02529" lon="1.08139">
        <ele>125.58935546875</ele>
        <time>2011-02-11T14:52:08Z</time>
      </trkpt>
      <trkpt lat="49.02526" lon="1.08135">
        <ele>121.744140625</ele>
        <time>2011-02-11T14:52:09Z</time>
      </trkpt>
      <trkpt lat="49.02522" lon="1.08131">
        <ele>123.66674804688</ele>
        <time>2011-02-11T14:52:10Z</time>
      </trkpt>
      <trkpt lat="49.02506" lon="1.08115">
        <ele>120.30212402344</ele>
        <time>2011-02-11T14:52:15Z</time>
      </trkpt>
      <trkpt lat="49.025" lon="1.08109">
        <ele>123.66674804688</ele>
        <time>2011-02-11T14:52:17Z</time>
      </trkpt>
      <trkpt lat="49.02496" lon="1.08106">
        <ele>122.70544433594</ele>
        <time>2011-02-11T14:52:18Z</time>
      </trkpt>
      <trkpt lat="49.02483" lon="1.08094">
        <ele>116.9375</ele>
        <time>2011-02-11T14:52:22Z</time>
      </trkpt>
      <trkpt lat="49.02479" lon="1.08091">
        <ele>122.22473144531</ele>
        <time>2011-02-11T14:52:23Z</time>
      </trkpt>
      <trkpt lat="49.02475" lon="1.08087">
        <ele>122.70544433594</ele>
        <time>2011-02-11T14:52:24Z</time>
      </trkpt>
      <trkpt lat="49.02468" lon="1.08081">
        <ele>126.06994628906</ele>
        <time>2011-02-11T14:52:26Z</time>
      </trkpt>
      <trkpt lat="49.02464" lon="1.08079">
        <ele>122.22473144531</ele>
        <time>2011-02-11T14:52:27Z</time>
      </trkpt>
      <trkpt lat="49.02449" lon="1.08066">
        <ele>117.89880371094</ele>
        <time>2011-02-11T14:52:31Z</time>
      </trkpt>
      <trkpt lat="49.02441" lon="1.08056">
        <ele>117.41821289062</ele>
        <time>2011-02-11T14:52:33Z</time>
      </trkpt>
      <trkpt lat="49.02425" lon="1.08044">
        <ele>117.89880371094</ele>
        <time>2011-02-11T14:52:36Z</time>
      </trkpt>
      <trkpt lat="49.0242" lon="1.08043">
        <ele>117.41821289062</ele>
        <time>2011-02-11T14:52:37Z</time>
      </trkpt>
      <trkpt lat="49.02415" lon="1.08042">
        <ele>117.41821289062</ele>
        <time>2011-02-11T14:52:38Z</time>
      </trkpt>
      <trkpt lat="49.02374" lon="1.08037">
        <ele>114.5341796875</ele>
        <time>2011-02-11T14:52:45Z</time>
      </trkpt>
      <trkpt lat="49.02352" lon="1.08037">
        <ele>111.16955566406</ele>
        <time>2011-02-11T14:52:49Z</time>
      </trkpt>
      <trkpt lat="49.02346" lon="1.08039">
        <ele>113.09228515625</ele>
        <time>2011-02-11T14:52:50Z</time>
      </trkpt>
      <trkpt lat="49.0233" lon="1.08046">
        <ele>108.28564453125</ele>
        <time>2011-02-11T14:52:53Z</time>
      </trkpt>
      <trkpt lat="49.02316" lon="1.08057">
        <ele>109.72766113281</ele>
        <time>2011-02-11T14:52:56Z</time>
      </trkpt>
      <trkpt lat="49.02308" lon="1.08066">
        <ele>103.95971679688</ele>
        <time>2011-02-11T14:52:58Z</time>
      </trkpt>
      <trkpt lat="49.02304" lon="1.08072">
        <ele>107.32434082031</ele>
        <time>2011-02-11T14:52:59Z</time>
      </trkpt>
      <trkpt lat="49.02296" lon="1.08084">
        <ele>105.40173339844</ele>
        <time>2011-02-11T14:53:01Z</time>
      </trkpt>
      <trkpt lat="49.02287" lon="1.08098">
        <ele>100.59509277344</ele>
        <time>2011-02-11T14:53:03Z</time>
      </trkpt>
      <trkpt lat="49.02282" lon="1.08104">
        <ele>102.037109375</ele>
        <time>2011-02-11T14:53:04Z</time>
      </trkpt>
      <trkpt lat="49.02278" lon="1.08111">
        <ele>101.55639648438</ele>
        <time>2011-02-11T14:53:05Z</time>
      </trkpt>
      <trkpt lat="49.02265" lon="1.08134">
        <ele>98.672485351562</ele>
        <time>2011-02-11T14:53:08Z</time>
      </trkpt>
      <trkpt lat="49.02259" lon="1.08142">
        <ele>98.672485351562</ele>
        <time>2011-02-11T14:53:09Z</time>
      </trkpt>
      <trkpt lat="49.02247" lon="1.08161">
        <ele>99.153076171875</ele>
        <time>2011-02-11T14:53:11Z</time>
      </trkpt>
      <trkpt lat="49.02236" lon="1.08181">
        <ele>96.269287109375</ele>
        <time>2011-02-11T14:53:13Z</time>
      </trkpt>
      <trkpt lat="49.02221" lon="1.08211">
        <ele>92.904541015625</ele>
        <time>2011-02-11T14:53:16Z</time>
      </trkpt>
      <trkpt lat="49.02216" lon="1.08221">
        <ele>92.904541015625</ele>
        <time>2011-02-11T14:53:17Z</time>
      </trkpt>
      <trkpt lat="49.02208" lon="1.08242">
        <ele>87.6171875</ele>
        <time>2011-02-11T14:53:19Z</time>
      </trkpt>
      <trkpt lat="49.02203" lon="1.08252">
        <ele>93.385131835938</ele>
        <time>2011-02-11T14:53:20Z</time>
      </trkpt>
      <trkpt lat="49.02199" lon="1.08262">
        <ele>90.501342773438</ele>
        <time>2011-02-11T14:53:21Z</time>
      </trkpt>
      <trkpt lat="49.02189" lon="1.08282">
        <ele>85.694580078125</ele>
        <time>2011-02-11T14:53:23Z</time>
      </trkpt>
      <trkpt lat="49.02167" lon="1.08316">
        <ele>83.77197265625</ele>
        <time>2011-02-11T14:53:27Z</time>
      </trkpt>
      <trkpt lat="49.0216" lon="1.08338">
        <ele>88.098022460938</ele>
        <time>2011-02-11T14:53:30Z</time>
      </trkpt>
      <trkpt lat="49.02162" lon="1.08344">
        <ele>83.291381835938</ele>
        <time>2011-02-11T14:53:31Z</time>
      </trkpt>
      <trkpt lat="49.02172" lon="1.08357">
        <ele>77.5234375</ele>
        <time>2011-02-11T14:53:34Z</time>
      </trkpt>
      <trkpt lat="49.02175" lon="1.08362">
        <ele>85.694580078125</ele>
        <time>2011-02-11T14:53:35Z</time>
      </trkpt>
      <trkpt lat="49.02179" lon="1.08368">
        <ele>82.330078125</ele>
        <time>2011-02-11T14:53:36Z</time>
      </trkpt>
      <trkpt lat="49.02189" lon="1.08388">
        <ele>78.004028320312</ele>
        <time>2011-02-11T14:53:39Z</time>
      </trkpt>
      <trkpt lat="49.02192" lon="1.08394">
        <ele>84.252685546875</ele>
        <time>2011-02-11T14:53:40Z</time>
      </trkpt>
      <trkpt lat="49.02213" lon="1.08439">
        <ele>79.926635742188</ele>
        <time>2011-02-11T14:53:47Z</time>
      </trkpt>
      <trkpt lat="49.02216" lon="1.08445">
        <ele>84.252685546875</ele>
        <time>2011-02-11T14:53:48Z</time>
      </trkpt>
      <trkpt lat="49.02219" lon="1.08451">
        <ele>80.88818359375</ele>
        <time>2011-02-11T14:53:49Z</time>
      </trkpt>
      <trkpt lat="49.02234" lon="1.08474">
        <ele>82.810791015625</ele>
        <time>2011-02-11T14:53:58Z</time>
      </trkpt>
      <trkpt lat="49.02234" lon="1.08474">
        <ele>82.330078125</ele>
        <time>2011-02-11T14:54:00Z</time>
      </trkpt>
      <trkpt lat="49.02231" lon="1.0847">
        <ele>89.539916992188</ele>
        <time>2011-02-11T14:54:04Z</time>
      </trkpt>
      <trkpt lat="49.0223" lon="1.08469">
        <ele>79.926635742188</ele>
        <time>2011-02-11T14:54:05Z</time>
      </trkpt>
      <trkpt lat="49.02229" lon="1.08468">
        <ele>82.810791015625</ele>
        <time>2011-02-11T14:54:06Z</time>
      </trkpt>
      <trkpt lat="49.02212" lon="1.08435">
        <ele>83.77197265625</ele>
        <time>2011-02-11T14:54:16Z</time>
      </trkpt>
      <trkpt lat="49.02203" lon="1.0842">
        <ele>80.407470703125</ele>
        <time>2011-02-11T14:54:20Z</time>
      </trkpt>
      <trkpt lat="49.022" lon="1.08416">
        <ele>83.77197265625</ele>
        <time>2011-02-11T14:54:21Z</time>
      </trkpt>
      <trkpt lat="49.02186" lon="1.08376">
        <ele>82.810791015625</ele>
        <time>2011-02-11T14:54:32Z</time>
      </trkpt>
      <trkpt lat="49.02173" lon="1.0835">
        <ele>89.059326171875</ele>
        <time>2011-02-11T14:54:39Z</time>
      </trkpt>
      <trkpt lat="49.02172" lon="1.08346">
        <ele>82.810791015625</ele>
        <time>2011-02-11T14:54:40Z</time>
      </trkpt>
      <trkpt lat="49.02171" lon="1.08343">
        <ele>85.694580078125</ele>
        <time>2011-02-11T14:54:41Z</time>
      </trkpt>
      <trkpt lat="49.02153" lon="1.08326">
        <ele>83.77197265625</ele>
        <time>2011-02-11T14:54:50Z</time>
      </trkpt>
      <trkpt lat="49.02126" lon="1.08323">
        <ele>80.407470703125</ele>
        <time>2011-02-11T14:55:02Z</time>
      </trkpt>
      <trkpt lat="49.02124" lon="1.08322">
        <ele>81.849365234375</ele>
        <time>2011-02-11T14:55:03Z</time>
      </trkpt>
      <trkpt lat="49.02122" lon="1.08322">
        <ele>87.136596679688</ele>
        <time>2011-02-11T14:55:04Z</time>
      </trkpt>
      <trkpt lat="49.0212" lon="1.08321">
        <ele>84.7333984375</ele>
        <time>2011-02-11T14:55:05Z</time>
      </trkpt>
      <trkpt lat="49.02114" lon="1.0832">
        <ele>83.291381835938</ele>
        <time>2011-02-11T14:55:08Z</time>
      </trkpt>
      <trkpt lat="49.02112" lon="1.08319">
        <ele>79.926635742188</ele>
        <time>2011-02-11T14:55:09Z</time>
      </trkpt>
      <trkpt lat="49.0211" lon="1.08318">
        <ele>85.213989257812</ele>
        <time>2011-02-11T14:55:10Z</time>
      </trkpt>
      <trkpt lat="49.02106" lon="1.08316">
        <ele>81.849365234375</ele>
        <time>2011-02-11T14:55:12Z</time>
      </trkpt>
      <trkpt lat="49.02103" lon="1.08315">
        <ele>82.330078125</ele>
        <time>2011-02-11T14:55:14Z</time>
      </trkpt>
      <trkpt lat="49.02096" lon="1.08324">
        <ele>80.407470703125</ele>
        <time>2011-02-11T14:55:20Z</time>
      </trkpt>
      <trkpt lat="49.02095" lon="1.08327">
        <ele>84.7333984375</ele>
        <time>2011-02-11T14:55:21Z</time>
      </trkpt>
      <trkpt lat="49.02095" lon="1.0833">
        <ele>84.252685546875</ele>
        <time>2011-02-11T14:55:22Z</time>
      </trkpt>
      <trkpt lat="49.02095" lon="1.08335">
        <ele>83.77197265625</ele>
        <time>2011-02-11T14:55:24Z</time>
      </trkpt>
      <trkpt lat="49.02099" lon="1.0835">
        <ele>79.446044921875</ele>
        <time>2011-02-11T14:55:30Z</time>
      </trkpt>
      <trkpt lat="49.02101" lon="1.08355">
        <ele>81.368774414062</ele>
        <time>2011-02-11T14:55:32Z</time>
      </trkpt>
      <trkpt lat="49.02103" lon="1.08362">
        <ele>81.368774414062</ele>
        <time>2011-02-11T14:55:35Z</time>
      </trkpt>
      <trkpt lat="49.0211" lon="1.08375">
        <ele>83.291381835938</ele>
        <time>2011-02-11T14:55:41Z</time>
      </trkpt>
      <trkpt lat="49.02118" lon="1.08392">
        <ele>84.7333984375</ele>
        <time>2011-02-11T14:55:48Z</time>
      </trkpt>
      <trkpt lat="49.02119" lon="1.08394">
        <ele>84.7333984375</ele>
        <time>2011-02-11T14:55:49Z</time>
      </trkpt>
      <trkpt lat="49.02122" lon="1.08399">
        <ele>82.330078125</ele>
        <time>2011-02-11T14:55:51Z</time>
      </trkpt>
      <trkpt lat="49.02135" lon="1.08425">
        <ele>80.407470703125</ele>
        <time>2011-02-11T14:56:02Z</time>
      </trkpt>
      <trkpt lat="49.02146" lon="1.08443">
        <ele>81.368774414062</ele>
        <time>2011-02-11T14:56:10Z</time>
      </trkpt>
      <trkpt lat="49.02149" lon="1.08447">
        <ele>79.926635742188</ele>
        <time>2011-02-11T14:56:12Z</time>
      </trkpt>
      <trkpt lat="49.0215" lon="1.08448">
        <ele>82.330078125</ele>
        <time>2011-02-11T14:56:13Z</time>
      </trkpt>
      <trkpt lat="49.02153" lon="1.08454">
        <ele>84.252685546875</ele>
        <time>2011-02-11T14:56:18Z</time>
      </trkpt>
      <trkpt lat="49.02152" lon="1.08456">
        <ele>80.407470703125</ele>
        <time>2011-02-11T14:56:19Z</time>
      </trkpt>
      <trkpt lat="49.02149" lon="1.08461">
        <ele>81.849365234375</ele>
        <time>2011-02-11T14:56:23Z</time>
      </trkpt>
      <trkpt lat="49.02148" lon="1.08461">
        <ele>82.810791015625</ele>
        <time>2011-02-11T14:56:25Z</time>
      </trkpt>
      <trkpt lat="49.02142" lon="1.08461">
        <ele>86.17529296875</ele>
        <time>2011-02-11T14:56:33Z</time>
      </trkpt>
      <trkpt lat="49.02135" lon="1.08463">
        <ele>88.098022460938</ele>
        <time>2011-02-11T14:56:42Z</time>
      </trkpt>
      <trkpt lat="49.02124" lon="1.08468">
        <ele>91.943237304688</ele>
        <time>2011-02-11T14:56:57Z</time>
      </trkpt>
      <trkpt lat="49.02115" lon="1.08473">
        <ele>94.8271484375</ele>
        <time>2011-02-11T14:57:15Z</time>
      </trkpt>
      <trkpt lat="49.02103" lon="1.08477">
        <ele>96.749877929688</ele>
        <time>2011-02-11T14:57:32Z</time>
      </trkpt>
      <trkpt lat="49.02095" lon="1.08476">
        <ele>98.672485351562</ele>
        <time>2011-02-11T14:57:47Z</time>
      </trkpt>
      <trkpt lat="49.02089" lon="1.08479">
        <ele>101.55639648438</ele>
        <time>2011-02-11T14:58:01Z</time>
      </trkpt>
      <trkpt lat="49.02083" lon="1.08482">
        <ele>102.99829101562</ele>
        <time>2011-02-11T14:58:15Z</time>
      </trkpt>
      <trkpt lat="49.02078" lon="1.08484">
        <ele>104.4404296875</ele>
        <time>2011-02-11T14:58:26Z</time>
      </trkpt>
      <trkpt lat="49.02073" lon="1.08486">
        <ele>106.36303710938</ele>
        <time>2011-02-11T14:58:38Z</time>
      </trkpt>
      <trkpt lat="49.0207" lon="1.08488">
        <ele>109.24694824219</ele>
        <time>2011-02-11T14:58:52Z</time>
      </trkpt>
      <trkpt lat="49.02066" lon="1.08491">
        <ele>109.24694824219</ele>
        <time>2011-02-11T14:59:06Z</time>
      </trkpt>
      <trkpt lat="49.02066" lon="1.08492">
        <ele>109.72766113281</ele>
        <time>2011-02-11T14:59:28Z</time>
      </trkpt>
      <trkpt lat="49.02064" lon="1.08492">
        <ele>111.65026855469</ele>
        <time>2011-02-11T15:00:13Z</time>
      </trkpt>
      <trkpt lat="49.02061" lon="1.08493">
        <ele>112.13098144531</ele>
        <time>2011-02-11T15:00:27Z</time>
      </trkpt>
      <trkpt lat="49.02036" lon="1.08507">
        <ele>114.05358886719</ele>
        <time>2011-02-11T15:00:46Z</time>
      </trkpt>
      <trkpt lat="49.02011" lon="1.08517">
        <ele>115.01489257812</ele>
        <time>2011-02-11T15:01:03Z</time>
      </trkpt>
      <trkpt lat="49.01986" lon="1.08527">
        <ele>117.41821289062</ele>
        <time>2011-02-11T15:01:18Z</time>
      </trkpt>
      <trkpt lat="49.0196" lon="1.08537">
        <ele>119.3408203125</ele>
        <time>2011-02-11T15:01:31Z</time>
      </trkpt>
      <trkpt lat="49.01951" lon="1.08541">
        <ele>118.86010742188</ele>
        <time>2011-02-11T15:01:36Z</time>
      </trkpt>
      <trkpt lat="49.01918" lon="1.08557">
        <ele>120.30212402344</ele>
        <time>2011-02-11T15:01:53Z</time>
      </trkpt>
      <trkpt lat="49.01888" lon="1.08567">
        <ele>119.82141113281</ele>
        <time>2011-02-11T15:02:07Z</time>
      </trkpt>
      <trkpt lat="49.01851" lon="1.08584">
        <ele>120.30212402344</ele>
        <time>2011-02-11T15:02:23Z</time>
      </trkpt>
      <trkpt lat="49.01819" lon="1.08599">
        <ele>120.78283691406</ele>
        <time>2011-02-11T15:02:37Z</time>
      </trkpt>
      <trkpt lat="49.01807" lon="1.08604">
        <ele>121.26354980469</ele>
        <time>2011-02-11T15:02:43Z</time>
      </trkpt>
      <trkpt lat="49.01787" lon="1.08614">
        <ele>121.744140625</ele>
        <time>2011-02-11T15:02:53Z</time>
      </trkpt>
      <trkpt lat="49.0175" lon="1.08623">
        <ele>121.26354980469</ele>
        <time>2011-02-11T15:03:07Z</time>
      </trkpt>
      <trkpt lat="49.01722" lon="1.08641">
        <ele>121.26354980469</ele>
        <time>2011-02-11T15:03:18Z</time>
      </trkpt>
      <trkpt lat="49.01689" lon="1.08656">
        <ele>119.82141113281</ele>
        <time>2011-02-11T15:03:30Z</time>
      </trkpt>
      <trkpt lat="49.01677" lon="1.08673">
        <ele>120.78283691406</ele>
        <time>2011-02-11T15:03:37Z</time>
      </trkpt>
      <trkpt lat="49.01682" lon="1.08684">
        <ele>120.78283691406</ele>
        <time>2011-02-11T15:03:43Z</time>
      </trkpt>
      <trkpt lat="49.0169" lon="1.08706">
        <ele>120.78283691406</ele>
        <time>2011-02-11T15:03:54Z</time>
      </trkpt>
      <trkpt lat="49.01688" lon="1.08703">
        <ele>121.26354980469</ele>
        <time>2011-02-11T15:04:05Z</time>
      </trkpt>
      <trkpt lat="49.01687" lon="1.08702">
        <ele>120.78283691406</ele>
        <time>2011-02-11T15:04:07Z</time>
      </trkpt>
      <trkpt lat="49.01678" lon="1.0871">
        <ele>121.744140625</ele>
        <time>2011-02-11T15:04:19Z</time>
      </trkpt>
      <trkpt lat="49.01667" lon="1.08742">
        <ele>120.30212402344</ele>
        <time>2011-02-11T15:04:32Z</time>
      </trkpt>
      <trkpt lat="49.01656" lon="1.08782">
        <ele>120.78283691406</ele>
        <time>2011-02-11T15:04:48Z</time>
      </trkpt>
      <trkpt lat="49.01658" lon="1.08843">
        <ele>120.30212402344</ele>
        <time>2011-02-11T15:05:07Z</time>
      </trkpt>
      <trkpt lat="49.01678" lon="1.0888">
        <ele>120.78283691406</ele>
        <time>2011-02-11T15:05:19Z</time>
      </trkpt>
      <trkpt lat="49.0169" lon="1.0891">
        <ele>120.30212402344</ele>
        <time>2011-02-11T15:05:27Z</time>
      </trkpt>
      <trkpt lat="49.01672" lon="1.08919">
        <ele>119.82141113281</ele>
        <time>2011-02-11T15:05:36Z</time>
      </trkpt>
      <trkpt lat="49.01622" lon="1.089">
        <ele>119.3408203125</ele>
        <time>2011-02-11T15:05:50Z</time>
      </trkpt>
      <trkpt lat="49.01612" lon="1.08921">
        <ele>119.82141113281</ele>
        <time>2011-02-11T15:05:57Z</time>
      </trkpt>
      <trkpt lat="49.01613" lon="1.08944">
        <ele>120.78283691406</ele>
        <time>2011-02-11T15:06:01Z</time>
      </trkpt>
      <trkpt lat="49.01615" lon="1.09058">
        <ele>120.30212402344</ele>
        <time>2011-02-11T15:06:20Z</time>
      </trkpt>
      <trkpt lat="49.01622" lon="1.09174">
        <ele>121.26354980469</ele>
        <time>2011-02-11T15:06:39Z</time>
      </trkpt>
      <trkpt lat="49.01624" lon="1.09194">
        <ele>123.18615722656</ele>
        <time>2011-02-11T15:06:42Z</time>
      </trkpt>
      <trkpt lat="49.01628" lon="1.09296">
        <ele>122.70544433594</ele>
        <time>2011-02-11T15:06:56Z</time>
      </trkpt>
      <trkpt lat="49.01621" lon="1.09306">
        <ele>122.70544433594</ele>
        <time>2011-02-11T15:07:00Z</time>
      </trkpt>
      <trkpt lat="49.01551" lon="1.09299">
        <ele>121.744140625</ele>
        <time>2011-02-11T15:07:20Z</time>
      </trkpt>
      <trkpt lat="49.01541" lon="1.09302">
        <ele>121.744140625</ele>
        <time>2011-02-11T15:07:23Z</time>
      </trkpt>
      <trkpt lat="49.01529" lon="1.09299">
        <ele>120.30212402344</ele>
        <time>2011-02-11T15:07:27Z</time>
      </trkpt>
      <trkpt lat="49.01523" lon="1.09289">
        <ele>120.30212402344</ele>
        <time>2011-02-11T15:07:29Z</time>
      </trkpt>
      <trkpt lat="49.0149" lon="1.09239">
        <ele>119.3408203125</ele>
        <time>2011-02-11T15:07:39Z</time>
      </trkpt>
      <trkpt lat="49.01472" lon="1.09215">
        <ele>119.82141113281</ele>
        <time>2011-02-11T15:07:44Z</time>
      </trkpt>
      <trkpt lat="49.01451" lon="1.09211">
        <ele>117.89880371094</ele>
        <time>2011-02-11T15:07:49Z</time>
      </trkpt>
      <trkpt lat="49.01442" lon="1.09221">
        <ele>117.89880371094</ele>
        <time>2011-02-11T15:07:51Z</time>
      </trkpt>
      <trkpt lat="49.01428" lon="1.0923">
        <ele>117.41821289062</ele>
        <time>2011-02-11T15:07:54Z</time>
      </trkpt>
      <trkpt lat="49.01405" lon="1.0921">
        <ele>117.89880371094</ele>
        <time>2011-02-11T15:08:00Z</time>
      </trkpt>
      <trkpt lat="49.01405" lon="1.09182">
        <ele>116.45678710938</ele>
        <time>2011-02-11T15:08:03Z</time>
      </trkpt>
      <trkpt lat="49.01392" lon="1.09149">
        <ele>114.5341796875</ele>
        <time>2011-02-11T15:08:07Z</time>
      </trkpt>
      <trkpt lat="49.01374" lon="1.09135">
        <ele>114.05358886719</ele>
        <time>2011-02-11T15:08:10Z</time>
      </trkpt>
      <trkpt lat="49.01293" lon="1.09118">
        <ele>115.97619628906</ele>
        <time>2011-02-11T15:08:25Z</time>
      </trkpt>
      <trkpt lat="49.01234" lon="1.09124">
        <ele>118.37939453125</ele>
        <time>2011-02-11T15:08:43Z</time>
      </trkpt>
      <trkpt lat="49.01199" lon="1.0913">
        <ele>120.30212402344</ele>
        <time>2011-02-11T15:08:55Z</time>
      </trkpt>
      <trkpt lat="49.01161" lon="1.0915">
        <ele>123.66674804688</ele>
        <time>2011-02-11T15:09:11Z</time>
      </trkpt>
      <trkpt lat="49.01142" lon="1.09162">
        <ele>125.10876464844</ele>
        <time>2011-02-11T15:09:19Z</time>
      </trkpt>
      <trkpt lat="49.01108" lon="1.09157">
        <ele>126.06994628906</ele>
        <time>2011-02-11T15:09:35Z</time>
      </trkpt>
      <trkpt lat="49.01098" lon="1.09113">
        <ele>126.55065917969</ele>
        <time>2011-02-11T15:09:47Z</time>
      </trkpt>
      <trkpt lat="49.01108" lon="1.0903">
        <ele>125.10876464844</ele>
        <time>2011-02-11T15:09:59Z</time>
      </trkpt>
      <trkpt lat="49.01098" lon="1.08979">
        <ele>125.10876464844</ele>
        <time>2011-02-11T15:10:05Z</time>
      </trkpt>
      <trkpt lat="49.01034" lon="1.08867">
        <ele>124.14733886719</ele>
        <time>2011-02-11T15:10:23Z</time>
      </trkpt>
      <trkpt lat="49.01002" lon="1.0882">
        <ele>124.14733886719</ele>
        <time>2011-02-11T15:10:32Z</time>
      </trkpt>
      <trkpt lat="49.00974" lon="1.08804">
        <ele>125.58935546875</ele>
        <time>2011-02-11T15:10:39Z</time>
      </trkpt>
      <trkpt lat="49.00939" lon="1.08799">
        <ele>124.62805175781</ele>
        <time>2011-02-11T15:10:49Z</time>
      </trkpt>
      <trkpt lat="49.00851" lon="1.08801">
        <ele>125.10876464844</ele>
        <time>2011-02-11T15:11:11Z</time>
      </trkpt>
      <trkpt lat="49.00837" lon="1.08786">
        <ele>125.58935546875</ele>
        <time>2011-02-11T15:11:18Z</time>
      </trkpt>
      <trkpt lat="49.00822" lon="1.08749">
        <ele>126.06994628906</ele>
        <time>2011-02-11T15:11:31Z</time>
      </trkpt>
      <trkpt lat="49.0082" lon="1.08747">
        <ele>126.06994628906</ele>
        <time>2011-02-11T15:11:44Z</time>
      </trkpt>
      <trkpt lat="49.00817" lon="1.08741">
        <ele>125.58935546875</ele>
        <time>2011-02-11T15:11:49Z</time>
      </trkpt>
      <trkpt lat="49.0079" lon="1.08754">
        <ele>125.10876464844</ele>
        <time>2011-02-11T15:12:00Z</time>
      </trkpt>
      <trkpt lat="49.00746" lon="1.08769">
        <ele>124.14733886719</ele>
        <time>2011-02-11T15:12:13Z</time>
      </trkpt>
      <trkpt lat="49.0073" lon="1.08775">
        <ele>124.14733886719</ele>
        <time>2011-02-11T15:12:17Z</time>
      </trkpt>
      <trkpt lat="49.00625" lon="1.08843">
        <ele>123.66674804688</ele>
        <time>2011-02-11T15:12:42Z</time>
      </trkpt>
      <trkpt lat="49.00556" lon="1.0888">
        <ele>127.03137207031</ele>
        <time>2011-02-11T15:12:58Z</time>
      </trkpt>
      <trkpt lat="49.00428" lon="1.08959">
        <ele>126.06994628906</ele>
        <time>2011-02-11T15:13:26Z</time>
      </trkpt>
      <trkpt lat="49.00353" lon="1.09006">
        <ele>122.22473144531</ele>
        <time>2011-02-11T15:13:40Z</time>
      </trkpt>
      <trkpt lat="49.0032" lon="1.09025">
        <ele>121.26354980469</ele>
        <time>2011-02-11T15:13:46Z</time>
      </trkpt>
      <trkpt lat="49.00288" lon="1.09037">
        <ele>119.3408203125</ele>
        <time>2011-02-11T15:13:56Z</time>
      </trkpt>
      <trkpt lat="49.00278" lon="1.09044">
        <ele>118.86010742188</ele>
        <time>2011-02-11T15:13:59Z</time>
      </trkpt>
      <trkpt lat="49.00268" lon="1.09028">
        <ele>118.37939453125</ele>
        <time>2011-02-11T15:14:04Z</time>
      </trkpt>
      <trkpt lat="49.0026" lon="1.08949">
        <ele>118.37939453125</ele>
        <time>2011-02-11T15:14:20Z</time>
      </trkpt>
      <trkpt lat="49.00251" lon="1.08943">
        <ele>117.89880371094</ele>
        <time>2011-02-11T15:14:24Z</time>
      </trkpt>
      <trkpt lat="49.00246" lon="1.08918">
        <ele>119.82141113281</ele>
        <time>2011-02-11T15:14:38Z</time>
      </trkpt>
      <trkpt lat="49.0025" lon="1.08911">
        <ele>119.3408203125</ele>
        <time>2011-02-11T15:14:59Z</time>
      </trkpt>
      <trkpt lat="49.0025" lon="1.0891">
        <ele>119.3408203125</ele>
        <time>2011-02-11T15:15:00Z</time>
      </trkpt>
    </trkseg>
  </trk>
  <trk>
    <name><![CDATA[ACTIVE LOG 001]]></name>
    <trkseg>
      <trkpt lat="49.0025" lon="1.0891">
        <ele>119.3408203125</ele>
        <time>2011-02-11T15:37:23Z</time>
      </trkpt>
    </trkseg>
  </trk>
  <trk>
    <name><![CDATA[ACTIVE LOG 002]]></name>
    <trkseg>
      <trkpt lat="49.0025" lon="1.0891">
        <ele>119.3408203125</ele>
        <time>2011-02-11T15:38:37Z</time>
      </trkpt>
      <trkpt lat="49.0025" lon="1.0891">
        <ele>121.744140625</ele>
        <time>2011-02-11T15:38:38Z</time>
      </trkpt>
    </trkseg>
  </trk>
  <trk>
    <name><![CDATA[ACTIVE LOG 003]]></name>
    <trkseg>
      <trkpt lat="49.0025" lon="1.0891">
        <ele>119.3408203125</ele>
        <time>2011-02-11T15:39:47Z</time>
      </trkpt>
      <trkpt lat="49.0025" lon="1.0891">
        <ele>121.26354980469</ele>
        <time>2011-02-11T15:39:48Z</time>
      </trkpt>
    </trkseg>
  </trk>
  <trk>
    <name><![CDATA[ACTIVE LOG 004]]></name>
    <trkseg>
      <trkpt lat="49.0025" lon="1.0891">
        <ele>119.3408203125</ele>
        <time>2011-02-11T15:40:09Z</time>
      </trkpt>
      <trkpt lat="49.0025" lon="1.0891">
        <ele>120.30212402344</ele>
        <time>2011-02-11T15:40:10Z</time>
      </trkpt>
    </trkseg>
  </trk>
  <trk>
    <name><![CDATA[ACTIVE LOG 005]]></name>
    <trkseg>
      <trkpt lat="49.00241" lon="1.08901">
        <ele>120.78283691406</ele>
        <time>2011-02-11T15:40:11Z</time>
      </trkpt>
      <trkpt lat="49.00242" lon="1.08902">
        <ele>120.30212402344</ele>
        <time>2011-02-11T15:40:32Z</time>
      </trkpt>
    </trkseg>
  </trk>
  <trk>
    <name><![CDATA[ACTIVE LOG 006]]></name>
    <trkseg>
      <trkpt lat="49.00242" lon="1.08902">
        <ele>107.80505371094</ele>
        <time>2011-02-11T15:43:46Z</time>
      </trkpt>
      <trkpt lat="49.00242" lon="1.08902">
        <ele>122.22473144531</ele>
        <time>2011-02-11T15:43:47Z</time>
      </trkpt>
    </trkseg>
  </trk>
  <trk>
    <name><![CDATA[ACTIVE LOG 007]]></name>
    <trkseg>
      <trkpt lat="49.00242" lon="1.08902">
        <ele>107.80505371094</ele>
        <time>2011-02-11T15:44:46Z</time>
      </trkpt>
    </trkseg>
  </trk>
  <trk>
    <name><![CDATA[ACTIVE LOG 008]]></name>
    <trkseg>
      <trkpt lat="49.00242" lon="1.08902">
        <ele>107.80505371094</ele>
        <time>2011-02-11T15:45:17Z</time>
      </trkpt>
    </trkseg>
  </trk>
  <trk>
    <name><![CDATA[ACTIVE LOG 009]]></name>
    <trkseg>
      <trkpt lat="49.00243" lon="1.08902">
        <ele>121.26354980469</ele>
        <time>2011-02-11T15:45:18Z</time>
      </trkpt>
      <trkpt lat="49.0024" lon="1.08899">
        <ele>120.30212402344</ele>
        <time>2011-02-11T15:45:19Z</time>
      </trkpt>
      <trkpt lat="49.00244" lon="1.08904">
        <ele>119.82141113281</ele>
        <time>2011-02-11T15:45:37Z</time>
      </trkpt>
      <trkpt lat="49.00244" lon="1.08904">
        <ele>122.22473144531</ele>
        <time>2011-02-11T15:45:39Z</time>
      </trkpt>
      <trkpt lat="49.00239" lon="1.08905">
        <ele>118.86010742188</ele>
        <time>2011-02-11T15:46:25Z</time>
      </trkpt>
      <trkpt lat="49.00239" lon="1.08905">
        <ele>120.78283691406</ele>
        <time>2011-02-11T15:46:28Z</time>
      </trkpt>
    </trkseg>
  </trk>
  <trk>
    <name><![CDATA[ACTIVE LOG 010]]></name>
    <trkseg>
      <trkpt lat="49.0024" lon="1.08906">
        <ele>120.30212402344</ele>
        <time>2011-02-11T15:47:38Z</time>
      </trkpt>
      <trkpt lat="49.0024" lon="1.08906">
        <ele>120.30212402344</ele>
        <time>2011-02-11T15:47:39Z</time>
      </trkpt>
    </trkseg>
  </trk>
  <trk>
    <name><![CDATA[ACTIVE LOG 011]]></name>
    <trkseg>
      <trkpt lat="49.0024" lon="1.08906">
        <ele>167.88732910156</ele>
        <time>2011-02-11T15:47:49Z</time>
      </trkpt>
    </trkseg>
  </trk>
  <trk>
    <name><![CDATA[ACTIVE LOG 012]]></name>
    <trkseg>
      <trkpt lat="49.0025" lon="1.08901">
        <ele>120.78283691406</ele>
        <time>2011-02-11T15:47:51Z</time>
      </trkpt>
      <trkpt lat="49.00248" lon="1.08898">
        <ele>120.78283691406</ele>
        <time>2011-02-11T15:47:52Z</time>
      </trkpt>
      <trkpt lat="49.00247" lon="1.08898">
        <ele>122.22473144531</ele>
        <time>2011-02-11T15:48:14Z</time>
      </trkpt>
    </trkseg>
  </trk>
  <trk>
    <name><![CDATA[ACTIVE LOG 013]]></name>
    <trkseg>
      <trkpt lat="49.00247" lon="1.08898">
        <ele>167.88732910156</ele>
        <time>2011-02-11T15:49:04Z</time>
      </trkpt>
    </trkseg>
  </trk>
  <trk>
    <name><![CDATA[ACTIVE LOG 014]]></name>
    <trkseg>
      <trkpt lat="49.00245" lon="1.08897">
        <ele>120.30212402344</ele>
        <time>2011-02-11T15:49:06Z</time>
      </trkpt>
    </trkseg>
  </trk>
</gpx>